Wetterdaten: Montag, 30.09.2019
Datum Zeit Temp. A. Feuchte A. Luftdruck Regen Wind Richtung Richtung Sonnenschein ET UV Solar Taupunkt Windchill Windböen
30.09.2019 00:00 15,3 °C 66 % 1004,9 hPa 0,0 mm 1,1 km/h (1 Bft) S-SW 197 ° 0 min 0,000 mm 0,0 UV-I 0 W/m² 9,0 °C 15,3 °C 3,2 km/h (1 Bft)
30.09.2019 00:01 15,4 °C 66 % 1004,9 hPa 0,0 mm 0,0 km/h (0 Bft) S-SW 197 ° 0 min 0,000 mm 0,0 UV-I 0 W/m² 9,1 °C 15,4 °C 0,0 km/h (0 Bft)
30.09.2019 00:02 15,5 °C 65 % 1004,9 hPa 0,0 mm 0,0 km/h (0 Bft) S-SW 197 ° 0 min 0,000 mm 0,0 UV-I 0 W/m² 8,9 °C 15,5 °C 0,0 km/h (0 Bft)
30.09.2019 00:03 15,7 °C 65 % 1005,0 hPa 0,0 mm 0,0 km/h (0 Bft) SW 224 ° 0 min 0,000 mm 0,0 UV-I 0 W/m² 9,1 °C 15,7 °C 0,0 km/h (0 Bft)
30.09.2019 00:04 15,7 °C 65 % 1005,0 hPa 0,0 mm 1,2 km/h (1 Bft) S-SW 209 ° 0 min 0,000 mm 0,0 UV-I 0 W/m² 9,1 °C 15,7 °C 3,2 km/h (1 Bft)
30.09.2019 00:05 15,7 °C 64 % 1004,9 hPa 0,0 mm 1,0 km/h (0 Bft) S-SW 209 ° 0 min 0,000 mm 0,0 UV-I 0 W/m² 8,9 °C 15,7 °C 3,2 km/h (1 Bft)
30.09.2019 00:06 15,8 °C 64 % 1005,0 hPa 0,0 mm 2,3 km/h (1 Bft) S 183 ° 0 min 0,000 mm 0,0 UV-I 0 W/m² 9,0 °C 15,8 °C 4,8 km/h (1 Bft)
30.09.2019 00:07 15,8 °C 64 % 1005,0 hPa 0,0 mm 0,2 km/h (0 Bft) S 183 ° 0 min 0,000 mm 0,0 UV-I 0 W/m² 9,0 °C 15,8 °C 1,6 km/h (1 Bft)
30.09.2019 00:08 15,9 °C 64 % 1005,0 hPa 0,0 mm 0,0 km/h (0 Bft) S 183 ° 0 min 0,000 mm 0,0 UV-I 0 W/m² 9,1 °C 15,9 °C 0,0 km/h (0 Bft)
30.09.2019 00:09 15,9 °C 65 % 1004,9 hPa 0,0 mm 1,0 km/h (0 Bft) S-SW 200 ° 0 min 0,000 mm 0,0 UV-I 0 W/m² 9,3 °C 15,9 °C 4,8 km/h (1 Bft)
30.09.2019 00:10 16,0 °C 63 % 1005,0 hPa 0,0 mm 0,7 km/h (0 Bft) S-SW 200 ° 0 min 0,000 mm 0,0 UV-I 0 W/m² 9,0 °C 16,0 °C 3,2 km/h (1 Bft)
30.09.2019 00:11 15,9 °C 64 % 1005,0 hPa 0,0 mm 1,9 km/h (1 Bft) S-SW 200 ° 0 min 0,000 mm 0,0 UV-I 0 W/m² 9,1 °C 15,9 °C 3,2 km/h (1 Bft)
30.09.2019 00:12 15,8 °C 65 % 1004,9 hPa 0,0 mm 1,5 km/h (1 Bft) S-SW 200 ° 0 min 0,000 mm 0,0 UV-I 0 W/m² 9,2 °C 15,8 °C 3,2 km/h (1 Bft)
30.09.2019 00:13 15,8 °C 64 % 1004,9 hPa 0,0 mm 0,1 km/h (0 Bft) S-SW 207 ° 0 min 0,000 mm 0,0 UV-I 0 W/m² 9,0 °C 15,8 °C 1,6 km/h (1 Bft)
30.09.2019 00:14 15,9 °C 64 % 1004,9 hPa 0,0 mm 1,3 km/h (1 Bft) S-SW 205 ° 0 min 0,000 mm 0,0 UV-I 0 W/m² 9,1 °C 15,9 °C 3,2 km/h (1 Bft)
30.09.2019 00:15 15,8 °C 64 % 1004,9 hPa 0,0 mm 0,1 km/h (0 Bft) S-SW 205 ° 0 min 0,000 mm 0,0 UV-I 0 W/m² 9,0 °C 15,8 °C 1,6 km/h (1 Bft)
30.09.2019 00:16 15,8 °C 64 % 1004,9 hPa 0,0 mm 0,7 km/h (0 Bft) S-SW 203 ° 0 min 0,000 mm 0,0 UV-I 0 W/m² 9,0 °C 15,8 °C 3,2 km/h (1 Bft)
30.09.2019 00:17 15,9 °C 63 % 1004,9 hPa 0,0 mm 1,1 km/h (1 Bft) S-SW 203 ° 0 min 0,000 mm 0,0 UV-I 0 W/m² 8,9 °C 15,9 °C 3,2 km/h (1 Bft)
30.09.2019 00:18 15,9 °C 64 % 1004,9 hPa 0,0 mm 2,1 km/h (1 Bft) S-SW 203 ° 0 min 0,000 mm 0,0 UV-I 0 W/m² 9,1 °C 15,9 °C 4,8 km/h (1 Bft)
30.09.2019 00:19 16,0 °C 63 % 1004,9 hPa 0,0 mm 1,5 km/h (1 Bft) S-SW 203 ° 0 min 0,000 mm 0,0 UV-I 0 W/m² 9,0 °C 16,0 °C 4,8 km/h (1 Bft)
30.09.2019 00:20 16,1 °C 62 % 1004,9 hPa 0,0 mm 1,2 km/h (1 Bft) S 182 ° 0 min 0,000 mm 0,0 UV-I 0 W/m² 8,8 °C 16,1 °C 4,8 km/h (1 Bft)
30.09.2019 00:21 16,2 °C 61 % 1004,9 hPa 0,0 mm 2,0 km/h (1 Bft) S-SW 194 ° 0 min 0,000 mm 0,0 UV-I 0 W/m² 8,7 °C 16,2 °C 4,8 km/h (1 Bft)
30.09.2019 00:22 16,3 °C 61 % 1004,9 hPa 0,0 mm 1,9 km/h (1 Bft) S-SW 193 ° 0 min 0,000 mm 0,0 UV-I 0 W/m² 8,8 °C 16,3 °C 3,2 km/h (1 Bft)
30.09.2019 00:23 16,3 °C 61 % 1004,9 hPa 0,0 mm 0,4 km/h (0 Bft) S-SW 194 ° 0 min 0,000 mm 0,0 UV-I 0 W/m² 8,8 °C 16,3 °C 1,6 km/h (1 Bft)
30.09.2019 00:24 16,4 °C 59 % 1004,9 hPa 0,0 mm 0,0 km/h (0 Bft) S-SW 194 ° 0 min 0,000 mm 0,0 UV-I 0 W/m² 8,4 °C 16,4 °C 0,0 km/h (0 Bft)
30.09.2019 00:25 16,4 °C 61 % 1004,9 hPa 0,0 mm 0,0 km/h (0 Bft) S-SW 193 ° 0 min 0,000 mm 0,0 UV-I 0 W/m² 8,9 °C 16,4 °C 0,0 km/h (0 Bft)
30.09.2019 00:26 16,4 °C 60 % 1004,9 hPa 0,0 mm 2,8 km/h (1 Bft) S 189 ° 0 min 0,000 mm 0,0 UV-I 0 W/m² 8,6 °C 16,4 °C 8,0 km/h (2 Bft)
30.09.2019 00:27 16,4 °C 59 % 1005,0 hPa 0,0 mm 7,0 km/h (2 Bft) S-SO 159 ° 0 min 0,000 mm 0,0 UV-I 0 W/m² 8,4 °C 16,4 °C 11,3 km/h (2 Bft)
30.09.2019 00:28 16,6 °C 61 % 1004,8 hPa 0,0 mm 6,8 km/h (2 Bft) S 179 ° 0 min 0,000 mm 0,0 UV-I 0 W/m² 9,0 °C 16,6 °C 9,7 km/h (2 Bft)
30.09.2019 00:29 16,6 °C 60 % 1004,9 hPa 0,0 mm 3,8 km/h (1 Bft) S-SW 207 ° 0 min 0,000 mm 0,0 UV-I 0 W/m² 8,8 °C 16,6 °C 6,4 km/h (2 Bft)
30.09.2019 00:30 16,6 °C 59 % 1004,9 hPa 0,0 mm 3,6 km/h (1 Bft) S-SW 198 ° 0 min 0,000 mm 0,0 UV-I 0 W/m² 8,6 °C 16,6 °C 6,4 km/h (2 Bft)
30.09.2019 00:31 16,6 °C 60 % 1004,9 hPa 0,0 mm 2,6 km/h (1 Bft) S-SW 200 ° 0 min 0,000 mm 0,0 UV-I 0 W/m² 8,8 °C 16,6 °C 8,0 km/h (2 Bft)
30.09.2019 00:32 16,6 °C 60 % 1004,9 hPa 0,0 mm 4,9 km/h (1 Bft) S-SW 198 ° 0 min 0,000 mm 0,0 UV-I 0 W/m² 8,8 °C 16,6 °C 8,0 km/h (2 Bft)
30.09.2019 00:33 16,6 °C 59 % 1004,9 hPa 0,0 mm 5,0 km/h (1 Bft) S 189 ° 0 min 0,000 mm 0,0 UV-I 0 W/m² 8,6 °C 16,6 °C 6,4 km/h (2 Bft)
30.09.2019 00:34 16,6 °C 60 % 1004,9 hPa 0,0 mm 5,1 km/h (1 Bft) S-SW 195 ° 0 min 0,000 mm 0,0 UV-I 0 W/m² 8,8 °C 16,6 °C 8,0 km/h (2 Bft)
30.09.2019 00:35 16,5 °C 60 % 1004,9 hPa 0,0 mm 4,4 km/h (1 Bft) W-SW 248 ° 0 min 0,000 mm 0,0 UV-I 0 W/m² 8,7 °C 16,5 °C 12,9 km/h (3 Bft)
30.09.2019 00:36 16,6 °C 59 % 1004,9 hPa 0,0 mm 4,7 km/h (1 Bft) W-SW 237 ° 0 min 0,000 mm 0,0 UV-I 0 W/m² 8,6 °C 16,6 °C 9,7 km/h (2 Bft)
30.09.2019 00:37 16,7 °C 59 % 1005,0 hPa 0,0 mm 6,0 km/h (2 Bft) W-SW 252 ° 0 min 0,000 mm 0,0 UV-I 0 W/m² 8,6 °C 16,7 °C 9,7 km/h (2 Bft)
30.09.2019 00:38 16,6 °C 59 % 1005,0 hPa 0,0 mm 6,9 km/h (2 Bft) W-SW 255 ° 0 min 0,000 mm 0,0 UV-I 0 W/m² 8,6 °C 16,6 °C 12,9 km/h (3 Bft)
30.09.2019 00:39 16,7 °C 58 % 1004,9 hPa 0,0 mm 2,6 km/h (1 Bft) S-SW 211 ° 0 min 0,000 mm 0,0 UV-I 0 W/m² 8,4 °C 16,7 °C 4,8 km/h (1 Bft)
30.09.2019 00:40 16,8 °C 58 % 1004,9 hPa 0,0 mm 4,1 km/h (1 Bft) W-SW 245 ° 0 min 0,000 mm 0,0 UV-I 0 W/m² 8,5 °C 16,8 °C 17,7 km/h (3 Bft)
30.09.2019 00:41 16,8 °C 57 % 1004,9 hPa 0,0 mm 6,9 km/h (2 Bft) W-NW 286 ° 0 min 0,000 mm 0,0 UV-I 0 W/m² 8,2 °C 16,8 °C 12,9 km/h (3 Bft)
30.09.2019 00:42 16,9 °C 57 % 1004,9 hPa 0,0 mm 4,6 km/h (1 Bft) W 275 ° 0 min 0,000 mm 0,0 UV-I 0 W/m² 8,3 °C 16,9 °C 6,4 km/h (2 Bft)
30.09.2019 00:43 17,1 °C 57 % 1004,9 hPa 0,0 mm 5,2 km/h (1 Bft) W 275 ° 0 min 0,000 mm 0,0 UV-I 0 W/m² 8,5 °C 17,1 °C 8,0 km/h (2 Bft)
30.09.2019 00:44 17,1 °C 57 % 1004,9 hPa 0,0 mm 5,0 km/h (1 Bft) W 272 ° 0 min 0,000 mm 0,0 UV-I 0 W/m² 8,5 °C 17,1 °C 11,3 km/h (2 Bft)
30.09.2019 00:45 17,1 °C 57 % 1004,9 hPa 0,0 mm 4,8 km/h (1 Bft) W 274 ° 0 min 0,000 mm 0,0 UV-I 0 W/m² 8,5 °C 17,1 °C 6,4 km/h (2 Bft)
30.09.2019 00:46 17,1 °C 58 % 1004,9 hPa 0,0 mm 5,0 km/h (1 Bft) SW 228 ° 0 min 0,000 mm 0,0 UV-I 0 W/m² 8,8 °C 17,1 °C 8,0 km/h (2 Bft)
30.09.2019 00:47 17,0 °C 58 % 1005,0 hPa 0,0 mm 4,2 km/h (1 Bft) W 270 ° 0 min 0,000 mm 0,0 UV-I 0 W/m² 8,7 °C 17,0 °C 4,8 km/h (1 Bft)
30.09.2019 00:48 16,9 °C 58 % 1005,0 hPa 0,0 mm 5,0 km/h (1 Bft) W 269 ° 0 min 0,000 mm 0,0 UV-I 0 W/m² 8,6 °C 16,9 °C 6,4 km/h (2 Bft)
30.09.2019 00:49 16,9 °C 58 % 1005,0 hPa 0,0 mm 7,9 km/h (2 Bft) W 261 ° 0 min 0,000 mm 0,0 UV-I 0 W/m² 8,6 °C 16,9 °C 12,9 km/h (3 Bft)
30.09.2019 00:50 16,8 °C 59 % 1005,0 hPa 0,0 mm 3,4 km/h (1 Bft) W-SW 249 ° 0 min 0,000 mm 0,0 UV-I 0 W/m² 8,7 °C 16,8 °C 6,4 km/h (2 Bft)
30.09.2019 00:51 16,7 °C 59 % 1005,0 hPa 0,0 mm 6,5 km/h (2 Bft) W 277 ° 0 min 0,000 mm 0,0 UV-I 0 W/m² 8,6 °C 16,7 °C 11,3 km/h (2 Bft)
30.09.2019 00:52 16,6 °C 60 % 1005,1 hPa 0,0 mm 6,0 km/h (2 Bft) W 269 ° 0 min 0,000 mm 0,0 UV-I 0 W/m² 8,8 °C 16,6 °C 9,7 km/h (2 Bft)
30.09.2019 00:53 16,5 °C 59 % 1005,0 hPa 0,0 mm 1,1 km/h (1 Bft) W 269 ° 0 min 0,000 mm 0,0 UV-I 0 W/m² 8,5 °C 16,5 °C 3,2 km/h (1 Bft)
30.09.2019 00:54 16,4 °C 59 % 1005,0 hPa 0,0 mm 3,7 km/h (1 Bft) W-SW 255 ° 0 min 0,000 mm 0,0 UV-I 0 W/m² 8,4 °C 16,4 °C 9,7 km/h (2 Bft)
30.09.2019 00:55 16,5 °C 59 % 1005,0 hPa 0,0 mm 3,6 km/h (1 Bft) W 271 ° 0 min 0,000 mm 0,0 UV-I 0 W/m² 8,5 °C 16,5 °C 9,7 km/h (2 Bft)
30.09.2019 00:56 16,5 °C 59 % 1005,0 hPa 0,0 mm 10,3 km/h (2 Bft) W-SW 257 ° 0 min 0,000 mm 0,0 UV-I 0 W/m² 8,5 °C 16,5 °C 19,3 km/h (3 Bft)
30.09.2019 00:57 16,6 °C 59 % 1005,1 hPa 0,0 mm 4,7 km/h (1 Bft) S-SW 198 ° 0 min 0,000 mm 0,0 UV-I 0 W/m² 8,6 °C 16,6 °C 6,4 km/h (2 Bft)
30.09.2019 00:58 16,6 °C 59 % 1005,1 hPa 0,0 mm 3,9 km/h (1 Bft) W-SW 256 ° 0 min 0,000 mm 0,0 UV-I 0 W/m² 8,6 °C 16,6 °C 6,4 km/h (2 Bft)
30.09.2019 00:59 16,6 °C 59 % 1005,1 hPa 0,0 mm 1,7 km/h (1 Bft) W-SW 258 ° 0 min 0,000 mm 0,0 UV-I 0 W/m² 8,6 °C 16,6 °C 6,4 km/h (2 Bft)
30.09.2019 01:00 16,7 °C 59 % 1005,1 hPa 0,0 mm 4,7 km/h (1 Bft) W 271 ° 0 min 0,000 mm 0,0 UV-I 0 W/m² 8,6 °C 16,7 °C 6,4 km/h (2 Bft)
30.09.2019 01:01 16,7 °C 59 % 1005,1 hPa 0,0 mm 2,5 km/h (1 Bft) W 266 ° 0 min 0,051 mm 0,0 UV-I 0 W/m² 8,6 °C 16,7 °C 6,4 km/h (2 Bft)
30.09.2019 01:02 16,7 °C 59 % 1005,1 hPa 0,0 mm 6,1 km/h (2 Bft) W 276 ° 0 min 0,000 mm 0,0 UV-I 0 W/m² 8,6 °C 16,7 °C 9,7 km/h (2 Bft)
30.09.2019 01:03 16,6 °C 60 % 1005,1 hPa 0,0 mm 6,0 km/h (2 Bft) SW 229 ° 0 min 0,000 mm 0,0 UV-I 0 W/m² 8,8 °C 16,6 °C 11,3 km/h (2 Bft)
30.09.2019 01:04 16,6 °C 59 % 1005,1 hPa 0,0 mm 3,8 km/h (1 Bft) W-SW 246 ° 0 min 0,000 mm 0,0 UV-I 0 W/m² 8,6 °C 16,6 °C 8,0 km/h (2 Bft)
30.09.2019 01:05 16,4 °C 61 % 1005,1 hPa 0,0 mm 5,6 km/h (1 Bft) S-SW 208 ° 0 min 0,000 mm 0,0 UV-I 0 W/m² 8,9 °C 16,4 °C 9,7 km/h (2 Bft)
30.09.2019 01:06 16,4 °C 60 % 1005,1 hPa 0,0 mm 9,2 km/h (2 Bft) W-SW 254 ° 0 min 0,000 mm 0,0 UV-I 0 W/m² 8,6 °C 16,4 °C 14,5 km/h (3 Bft)
30.09.2019 01:07 16,4 °C 60 % 1005,1 hPa 0,0 mm 14,7 km/h (3 Bft) W-SW 254 ° 0 min 0,000 mm 0,0 UV-I 0 W/m² 8,6 °C 16,4 °C 19,3 km/h (3 Bft)
30.09.2019 01:08 16,4 °C 60 % 1005,0 hPa 0,0 mm 11,9 km/h (2 Bft) W 263 ° 0 min 0,000 mm 0,0 UV-I 0 W/m² 8,6 °C 16,4 °C 19,3 km/h (3 Bft)
30.09.2019 01:09 16,6 °C 60 % 1005,1 hPa 0,0 mm 9,7 km/h (2 Bft) S 189 ° 0 min 0,000 mm 0,0 UV-I 0 W/m² 8,8 °C 16,6 °C 14,5 km/h (3 Bft)
30.09.2019 01:10 16,6 °C 60 % 1005,1 hPa 0,0 mm 8,6 km/h (2 Bft) W 263 ° 0 min 0,000 mm 0,0 UV-I 0 W/m² 8,8 °C 16,6 °C 12,9 km/h (3 Bft)
30.09.2019 01:11 16,7 °C 59 % 1005,1 hPa 0,0 mm 5,7 km/h (1 Bft) W-SW 257 ° 0 min 0,000 mm 0,0 UV-I 0 W/m² 8,6 °C 16,7 °C 14,5 km/h (3 Bft)
30.09.2019 01:12 16,7 °C 60 % 1005,1 hPa 0,2 mm 10,9 km/h (2 Bft) W 279 ° 0 min 0,000 mm 0,0 UV-I 0 W/m² 8,9 °C 16,7 °C 14,5 km/h (3 Bft)
30.09.2019 01:13 16,7 °C 60 % 1005,1 hPa 0,0 mm 12,4 km/h (3 Bft) W 275 ° 0 min 0,000 mm 0,0 UV-I 0 W/m² 8,9 °C 16,7 °C 17,7 km/h (3 Bft)
30.09.2019 01:14 16,8 °C 60 % 1005,1 hPa 0,0 mm 10,5 km/h (2 Bft) W 261 ° 0 min 0,000 mm 0,0 UV-I 0 W/m² 9,0 °C 16,8 °C 19,3 km/h (3 Bft)
30.09.2019 01:15 16,7 °C 60 % 1005,1 hPa 0,0 mm 8,6 km/h (2 Bft) W 275 ° 0 min 0,000 mm 0,0 UV-I 0 W/m² 8,9 °C 16,7 °C 14,5 km/h (3 Bft)
30.09.2019 01:16 16,7 °C 60 % 1005,1 hPa 0,0 mm 7,4 km/h (2 Bft) W-NW 282 ° 0 min 0,000 mm 0,0 UV-I 0 W/m² 8,9 °C 16,7 °C 12,9 km/h (3 Bft)
30.09.2019 01:17 16,7 °C 60 % 1005,1 hPa 0,0 mm 6,4 km/h (2 Bft) W-SW 238 ° 0 min 0,000 mm 0,0 UV-I 0 W/m² 8,9 °C 16,7 °C 11,3 km/h (2 Bft)
30.09.2019 01:18 16,6 °C 61 % 1005,1 hPa 0,0 mm 8,9 km/h (2 Bft) W-NW 292 ° 0 min 0,000 mm 0,0 UV-I 0 W/m² 9,0 °C 16,6 °C 12,9 km/h (3 Bft)
30.09.2019 01:19 16,4 °C 62 % 1005,1 hPa 0,0 mm 7,2 km/h (2 Bft) W 265 ° 0 min 0,000 mm 0,0 UV-I 0 W/m² 9,1 °C 16,4 °C 11,3 km/h (2 Bft)
30.09.2019 01:20 16,4 °C 61 % 1005,2 hPa 0,0 mm 5,2 km/h (1 Bft) W 271 ° 0 min 0,000 mm 0,0 UV-I 0 W/m² 8,9 °C 16,4 °C 9,7 km/h (2 Bft)
30.09.2019 01:21 16,4 °C 61 % 1005,2 hPa 0,0 mm 5,3 km/h (1 Bft) W-SW 237 ° 0 min 0,000 mm 0,0 UV-I 0 W/m² 8,9 °C 16,4 °C 6,4 km/h (2 Bft)
30.09.2019 01:22 16,4 °C 61 % 1005,2 hPa 0,0 mm 4,8 km/h (1 Bft) W 261 ° 0 min 0,000 mm 0,0 UV-I 0 W/m² 8,9 °C 16,4 °C 6,4 km/h (2 Bft)
30.09.2019 01:23 16,3 °C 62 % 1005,1 hPa 0,0 mm 8,1 km/h (2 Bft) W-SW 246 ° 0 min 0,000 mm 0,0 UV-I 0 W/m² 9,0 °C 16,3 °C 12,9 km/h (3 Bft)
30.09.2019 01:24 16,4 °C 61 % 1005,1 hPa 0,0 mm 4,4 km/h (1 Bft) W-SW 250 ° 0 min 0,000 mm 0,0 UV-I 0 W/m² 8,9 °C 16,4 °C 9,7 km/h (2 Bft)
30.09.2019 01:25 16,3 °C 62 % 1005,1 hPa 0,0 mm 8,3 km/h (2 Bft) W-NW 283 ° 0 min 0,000 mm 0,0 UV-I 0 W/m² 9,0 °C 16,3 °C 12,9 km/h (3 Bft)
30.09.2019 01:26 16,3 °C 61 % 1005,1 hPa 0,0 mm 4,2 km/h (1 Bft) W 263 ° 0 min 0,000 mm 0,0 UV-I 0 W/m² 8,8 °C 16,3 °C 6,4 km/h (2 Bft)
30.09.2019 01:27 16,3 °C 61 % 1005,1 hPa 0,0 mm 4,7 km/h (1 Bft) W 264 ° 0 min 0,000 mm 0,0 UV-I 0 W/m² 8,8 °C 16,3 °C 6,4 km/h (2 Bft)
30.09.2019 01:28 16,3 °C 62 % 1005,1 hPa 0,0 mm 6,4 km/h (2 Bft) W-SW 258 ° 0 min 0,000 mm 0,0 UV-I 0 W/m² 9,0 °C 16,3 °C 12,9 km/h (3 Bft)
30.09.2019 01:29 16,4 °C 62 % 1005,1 hPa 0,0 mm 11,5 km/h (2 Bft) W-SW 250 ° 0 min 0,000 mm 0,0 UV-I 0 W/m² 9,1 °C 16,4 °C 16,1 km/h (3 Bft)
30.09.2019 01:30 16,4 °C 61 % 1005,1 hPa 0,0 mm 9,7 km/h (2 Bft) W 262 ° 0 min 0,000 mm 0,0 UV-I 0 W/m² 8,9 °C 16,4 °C 16,1 km/h (3 Bft)
30.09.2019 01:31 16,5 °C 61 % 1005,2 hPa 0,0 mm 9,7 km/h (2 Bft) W-NW 282 ° 0 min 0,000 mm 0,0 UV-I 0 W/m² 9,0 °C 16,5 °C 14,5 km/h (3 Bft)
30.09.2019 01:32 16,6 °C 61 % 1005,2 hPa 0,0 mm 10,3 km/h (2 Bft) W-SW 255 ° 0 min 0,000 mm 0,0 UV-I 0 W/m² 9,0 °C 16,6 °C 17,7 km/h (3 Bft)
30.09.2019 01:33 16,6 °C 61 % 1005,2 hPa 0,0 mm 4,9 km/h (1 Bft) SW 227 ° 0 min 0,000 mm 0,0 UV-I 0 W/m² 9,0 °C 16,6 °C 8,0 km/h (2 Bft)
30.09.2019 01:34 16,6 °C 61 % 1005,2 hPa 0,0 mm 8,0 km/h (2 Bft) W 273 ° 0 min 0,000 mm 0,0 UV-I 0 W/m² 9,0 °C 16,6 °C 11,3 km/h (2 Bft)
30.09.2019 01:35 16,6 °C 61 % 1005,3 hPa 0,0 mm 10,5 km/h (2 Bft) W-SW 246 ° 0 min 0,000 mm 0,0 UV-I 0 W/m² 9,0 °C 16,6 °C 16,1 km/h (3 Bft)
30.09.2019 01:36 16,6 °C 61 % 1005,3 hPa 0,0 mm 10,1 km/h (2 Bft) W 281 ° 0 min 0,000 mm 0,0 UV-I 0 W/m² 9,0 °C 16,6 °C 12,9 km/h (3 Bft)
30.09.2019 01:37 16,6 °C 61 % 1005,3 hPa 0,0 mm 7,3 km/h (2 Bft) SW 234 ° 0 min 0,000 mm 0,0 UV-I 0 W/m² 9,0 °C 16,6 °C 12,9 km/h (3 Bft)
30.09.2019 01:38 16,6 °C 61 % 1005,3 hPa 0,0 mm 6,2 km/h (2 Bft) W-NW 296 ° 0 min 0,000 mm 0,0 UV-I 0 W/m² 9,0 °C 16,6 °C 14,5 km/h (3 Bft)
30.09.2019 01:39 16,6 °C 61 % 1005,4 hPa 0,0 mm 5,6 km/h (1 Bft) W-SW 250 ° 0 min 0,000 mm 0,0 UV-I 0 W/m² 9,0 °C 16,6 °C 9,7 km/h (2 Bft)
30.09.2019 01:40 16,6 °C 61 % 1005,4 hPa 0,0 mm 6,2 km/h (2 Bft) W 263 ° 0 min 0,000 mm 0,0 UV-I 0 W/m² 9,0 °C 16,6 °C 11,3 km/h (2 Bft)
30.09.2019 01:41 16,6 °C 61 % 1005,4 hPa 0,0 mm 7,7 km/h (2 Bft) W 277 ° 0 min 0,000 mm 0,0 UV-I 0 W/m² 9,0 °C 16,6 °C 12,9 km/h (3 Bft)
30.09.2019 01:42 16,6 °C 62 % 1005,4 hPa 0,0 mm 8,3 km/h (2 Bft) SW 224 ° 0 min 0,000 mm 0,0 UV-I 0 W/m² 9,3 °C 16,6 °C 12,9 km/h (3 Bft)
30.09.2019 01:43 16,6 °C 62 % 1005,4 hPa 0,0 mm 7,0 km/h (2 Bft) SW 229 ° 0 min 0,000 mm 0,0 UV-I 0 W/m² 9,3 °C 16,6 °C 14,5 km/h (3 Bft)
30.09.2019 01:44 16,6 °C 61 % 1005,3 hPa 0,0 mm 3,8 km/h (1 Bft) W 272 ° 0 min 0,000 mm 0,0 UV-I 0 W/m² 9,0 °C 16,6 °C 6,4 km/h (2 Bft)
30.09.2019 01:45 16,6 °C 61 % 1005,3 hPa 0,0 mm 7,1 km/h (2 Bft) W 275 ° 0 min 0,000 mm 0,0 UV-I 0 W/m² 9,0 °C 16,6 °C 12,9 km/h (3 Bft)
30.09.2019 01:46 16,7 °C 61 % 1005,3 hPa 0,0 mm 8,5 km/h (2 Bft) W 265 ° 0 min 0,000 mm 0,0 UV-I 0 W/m² 9,1 °C 16,7 °C 16,1 km/h (3 Bft)
30.09.2019 01:47 16,7 °C 61 % 1005,3 hPa 0,0 mm 9,7 km/h (2 Bft) S 177 ° 0 min 0,000 mm 0,0 UV-I 0 W/m² 9,1 °C 16,7 °C 14,5 km/h (3 Bft)
30.09.2019 01:48 16,7 °C 61 % 1005,4 hPa 0,0 mm 6,7 km/h (2 Bft) W 266 ° 0 min 0,000 mm 0,0 UV-I 0 W/m² 9,1 °C 16,7 °C 14,5 km/h (3 Bft)
30.09.2019 01:49 16,7 °C 61 % 1005,4 hPa 0,0 mm 12,5 km/h (3 Bft) W 271 ° 0 min 0,000 mm 0,0 UV-I 0 W/m² 9,1 °C 16,7 °C 19,3 km/h (3 Bft)
30.09.2019 01:50 16,7 °C 61 % 1005,4 hPa 0,0 mm 12,3 km/h (3 Bft) W-NW 288 ° 0 min 0,000 mm 0,0 UV-I 0 W/m² 9,1 °C 16,7 °C 16,1 km/h (3 Bft)
30.09.2019 01:51 16,7 °C 61 % 1005,4 hPa 0,0 mm 12,0 km/h (2 Bft) W-SW 248 ° 0 min 0,000 mm 0,0 UV-I 0 W/m² 9,1 °C 16,7 °C 20,9 km/h (4 Bft)
30.09.2019 01:52 16,7 °C 61 % 1005,4 hPa 0,0 mm 8,7 km/h (2 Bft) W 267 ° 0 min 0,000 mm 0,0 UV-I 0 W/m² 9,1 °C 16,7 °C 12,9 km/h (3 Bft)
30.09.2019 01:53 16,7 °C 61 % 1005,4 hPa 0,0 mm 7,3 km/h (2 Bft) W 268 ° 0 min 0,000 mm 0,0 UV-I 0 W/m² 9,1 °C 16,7 °C 14,5 km/h (3 Bft)
30.09.2019 01:54 16,7 °C 61 % 1005,4 hPa 0,0 mm 9,1 km/h (2 Bft) W 265 ° 0 min 0,000 mm 0,0 UV-I 0 W/m² 9,1 °C 16,7 °C 16,1 km/h (3 Bft)
30.09.2019 01:55 16,7 °C 60 % 1005,5 hPa 0,0 mm 9,8 km/h (2 Bft) W 274 ° 0 min 0,000 mm 0,0 UV-I 0 W/m² 8,9 °C 16,7 °C 14,5 km/h (3 Bft)
30.09.2019 01:56 16,8 °C 61 % 1005,5 hPa 0,0 mm 13,1 km/h (3 Bft) W 268 ° 0 min 0,000 mm 0,0 UV-I 0 W/m² 9,2 °C 16,8 °C 19,3 km/h (3 Bft)
30.09.2019 01:57 16,8 °C 61 % 1005,4 hPa 0,0 mm 7,9 km/h (2 Bft) W-SW 254 ° 0 min 0,000 mm 0,0 UV-I 0 W/m² 9,2 °C 16,8 °C 12,9 km/h (3 Bft)
30.09.2019 01:58 16,8 °C 61 % 1005,4 hPa 0,0 mm 12,0 km/h (2 Bft) SW 226 ° 0 min 0,000 mm 0,0 UV-I 0 W/m² 9,2 °C 16,8 °C 22,5 km/h (4 Bft)
30.09.2019 01:59 16,8 °C 61 % 1005,4 hPa 0,0 mm 3,4 km/h (1 Bft) W-SW 250 ° 0 min 0,000 mm 0,0 UV-I 0 W/m² 9,2 °C 16,8 °C 6,4 km/h (2 Bft)
30.09.2019 02:00 16,7 °C 61 % 1005,4 hPa 0,0 mm 2,3 km/h (1 Bft) SW 221 ° 0 min 0,051 mm 0,0 UV-I 0 W/m² 9,1 °C 16,7 °C 4,8 km/h (1 Bft)
30.09.2019 02:01 16,8 °C 60 % 1005,4 hPa 0,0 mm 4,3 km/h (1 Bft) W-SW 258 ° 0 min 0,000 mm 0,0 UV-I 0 W/m² 9,0 °C 16,8 °C 11,3 km/h (2 Bft)
30.09.2019 02:02 16,8 °C 61 % 1005,4 hPa 0,0 mm 4,0 km/h (1 Bft) W 265 ° 0 min 0,000 mm 0,0 UV-I 0 W/m² 9,2 °C 16,8 °C 9,7 km/h (2 Bft)
30.09.2019 02:03 16,7 °C 61 % 1005,4 hPa 0,0 mm 5,8 km/h (2 Bft) W 271 ° 0 min 0,000 mm 0,0 UV-I 0 W/m² 9,1 °C 16,7 °C 6,4 km/h (2 Bft)
30.09.2019 02:04 16,7 °C 61 % 1005,5 hPa 0,0 mm 15,2 km/h (3 Bft) W 261 ° 0 min 0,000 mm 0,0 UV-I 0 W/m² 9,1 °C 16,7 °C 20,9 km/h (4 Bft)
30.09.2019 02:05 16,7 °C 61 % 1005,4 hPa 0,0 mm 8,0 km/h (2 Bft) S-SW 196 ° 0 min 0,000 mm 0,0 UV-I 0 W/m² 9,1 °C 16,7 °C 16,1 km/h (3 Bft)
30.09.2019 02:06 16,7 °C 61 % 1005,5 hPa 0,0 mm 8,6 km/h (2 Bft) W 274 ° 0 min 0,000 mm 0,0 UV-I 0 W/m² 9,1 °C 16,7 °C 12,9 km/h (3 Bft)
30.09.2019 02:07 16,7 °C 61 % 1005,4 hPa 0,0 mm 7,7 km/h (2 Bft) W-SW 249 ° 0 min 0,000 mm 0,0 UV-I 0 W/m² 9,1 °C 16,7 °C 17,7 km/h (3 Bft)
30.09.2019 02:08 16,8 °C 61 % 1005,5 hPa 0,0 mm 12,8 km/h (3 Bft) W-SW 255 ° 0 min 0,000 mm 0,0 UV-I 0 W/m² 9,2 °C 16,8 °C 19,3 km/h (3 Bft)
30.09.2019 02:09 16,9 °C 61 % 1005,5 hPa 0,0 mm 10,9 km/h (2 Bft) S-SW 209 ° 0 min 0,000 mm 0,0 UV-I 0 W/m² 9,3 °C 16,9 °C 22,5 km/h (4 Bft)
30.09.2019 02:10 17,0 °C 61 % 1005,5 hPa 0,0 mm 12,3 km/h (3 Bft) SW 234 ° 0 min 0,000 mm 0,0 UV-I 0 W/m² 9,4 °C 17,0 °C 17,7 km/h (3 Bft)
30.09.2019 02:11 17,1 °C 61 % 1005,4 hPa 0,0 mm 20,0 km/h (4 Bft) SW 234 ° 0 min 0,000 mm 0,0 UV-I 0 W/m² 9,5 °C 17,1 °C 29,0 km/h (5 Bft)
30.09.2019 02:12 17,1 °C 60 % 1005,4 hPa 0,0 mm 19,2 km/h (3 Bft) W 269 ° 0 min 0,000 mm 0,0 UV-I 0 W/m² 9,3 °C 17,1 °C 25,7 km/h (4 Bft)
30.09.2019 02:13 17,2 °C 60 % 1005,5 hPa 0,0 mm 6,0 km/h (2 Bft) SW 214 ° 0 min 0,000 mm 0,0 UV-I 0 W/m² 9,4 °C 17,2 °C 14,5 km/h (3 Bft)
30.09.2019 02:14 17,3 °C 60 % 1005,4 hPa 0,0 mm 10,7 km/h (2 Bft) W-SW 244 ° 0 min 0,000 mm 0,0 UV-I 0 W/m² 9,5 °C 17,3 °C 17,7 km/h (3 Bft)
30.09.2019 02:15 17,3 °C 60 % 1005,5 hPa 0,0 mm 17,3 km/h (3 Bft) W 264 ° 0 min 0,000 mm 0,0 UV-I 0 W/m² 9,5 °C 17,3 °C 22,5 km/h (4 Bft)
30.09.2019 02:16 17,3 °C 60 % 1005,4 hPa 0,0 mm 15,9 km/h (3 Bft) W-SW 242 ° 0 min 0,000 mm 0,0 UV-I 0 W/m² 9,5 °C 17,3 °C 22,5 km/h (4 Bft)
30.09.2019 02:17 17,4 °C 60 % 1005,6 hPa 0,0 mm 11,8 km/h (2 Bft) W-NW 296 ° 0 min 0,000 mm 0,0 UV-I 0 W/m² 9,6 °C 17,4 °C 22,5 km/h (4 Bft)
30.09.2019 02:18 17,5 °C 59 % 1005,5 hPa 0,0 mm 8,6 km/h (2 Bft) NW 311 ° 0 min 0,000 mm 0,0 UV-I 0 W/m² 9,4 °C 17,5 °C 17,7 km/h (3 Bft)
30.09.2019 02:19 17,6 °C 59 % 1005,4 hPa 0,0 mm 10,6 km/h (2 Bft) W 279 ° 0 min 0,000 mm 0,0 UV-I 0 W/m² 9,5 °C 17,6 °C 16,1 km/h (3 Bft)
30.09.2019 02:20 17,6 °C 60 % 1005,5 hPa 0,0 mm 11,7 km/h (2 Bft) N-NW 331 ° 0 min 0,000 mm 0,0 UV-I 0 W/m² 9,7 °C 17,6 °C 17,7 km/h (3 Bft)
30.09.2019 02:21 17,6 °C 59 % 1005,4 hPa 0,0 mm 13,8 km/h (3 Bft) W-SW 248 ° 0 min 0,000 mm 0,0 UV-I 0 W/m² 9,5 °C 17,6 °C 17,7 km/h (3 Bft)
30.09.2019 02:22 17,6 °C 59 % 1005,4 hPa 0,0 mm 5,5 km/h (1 Bft) W 262 ° 0 min 0,000 mm 0,0 UV-I 0 W/m² 9,5 °C 17,6 °C 11,3 km/h (2 Bft)
30.09.2019 02:23 17,6 °C 59 % 1005,5 hPa 0,0 mm 7,9 km/h (2 Bft) W-SW 241 ° 0 min 0,000 mm 0,0 UV-I 0 W/m² 9,5 °C 17,6 °C 16,1 km/h (3 Bft)
30.09.2019 02:24 17,5 °C 59 % 1005,5 hPa 0,0 mm 9,9 km/h (2 Bft) W-SW 250 ° 0 min 0,000 mm 0,0 UV-I 0 W/m² 9,4 °C 17,5 °C 14,5 km/h (3 Bft)
30.09.2019 02:25 17,5 °C 60 % 1005,4 hPa 0,0 mm 15,4 km/h (3 Bft) NW 315 ° 0 min 0,000 mm 0,0 UV-I 0 W/m² 9,6 °C 17,5 °C 38,6 km/h (5 Bft)
30.09.2019 02:26 17,5 °C 60 % 1005,6 hPa 0,0 mm 20,1 km/h (4 Bft) W 267 ° 0 min 0,000 mm 0,0 UV-I 0 W/m² 9,6 °C 17,5 °C 33,8 km/h (5 Bft)
30.09.2019 02:27 17,5 °C 60 % 1005,5 hPa 0,0 mm 12,9 km/h (3 Bft) W-NW 290 ° 0 min 0,000 mm 0,0 UV-I 0 W/m² 9,6 °C 17,5 °C 17,7 km/h (3 Bft)
30.09.2019 02:28 17,6 °C 60 % 1005,5 hPa 0,0 mm 8,7 km/h (2 Bft) W 271 ° 0 min 0,000 mm 0,0 UV-I 0 W/m² 9,7 °C 17,6 °C 14,5 km/h (3 Bft)
30.09.2019 02:29 17,5 °C 60 % 1005,5 hPa 0,0 mm 13,4 km/h (3 Bft) W 279 ° 0 min 0,000 mm 0,0 UV-I 0 W/m² 9,6 °C 17,5 °C 22,5 km/h (4 Bft)
30.09.2019 02:30 17,5 °C 60 % 1005,6 hPa 0,0 mm 11,5 km/h (2 Bft) W-NW 298 ° 0 min 0,000 mm 0,0 UV-I 0 W/m² 9,6 °C 17,5 °C 20,9 km/h (4 Bft)
30.09.2019 02:31 17,5 °C 60 % 1005,5 hPa 0,0 mm 13,1 km/h (3 Bft) W-NW 296 ° 0 min 0,000 mm 0,0 UV-I 0 W/m² 9,6 °C 17,5 °C 22,5 km/h (4 Bft)
30.09.2019 02:32 17,5 °C 60 % 1005,5 hPa 0,0 mm 13,5 km/h (3 Bft) W-NW 290 ° 0 min 0,000 mm 0,0 UV-I 0 W/m² 9,6 °C 17,5 °C 22,5 km/h (4 Bft)
30.09.2019 02:33 17,6 °C 60 % 1005,5 hPa 0,0 mm 14,1 km/h (3 Bft) W-SW 252 ° 0 min 0,000 mm 0,0 UV-I 0 W/m² 9,7 °C 17,6 °C 17,7 km/h (3 Bft)
30.09.2019 02:34 17,6 °C 60 % 1005,5 hPa 0,0 mm 13,9 km/h (3 Bft) W 259 ° 0 min 0,000 mm 0,0 UV-I 0 W/m² 9,7 °C 17,6 °C 24,1 km/h (4 Bft)
30.09.2019 02:35 17,6 °C 60 % 1005,5 hPa 0,0 mm 15,6 km/h (3 Bft) W 279 ° 0 min 0,000 mm 0,0 UV-I 0 W/m² 9,7 °C 17,6 °C 20,9 km/h (4 Bft)
30.09.2019 02:36 17,5 °C 60 % 1005,6 hPa 0,0 mm 12,1 km/h (2 Bft) W 272 ° 0 min 0,000 mm 0,0 UV-I 0 W/m² 9,6 °C 17,5 °C 20,9 km/h (4 Bft)
30.09.2019 02:37 17,5 °C 60 % 1005,5 hPa 0,0 mm 9,1 km/h (2 Bft) W 263 ° 0 min 0,000 mm 0,0 UV-I 0 W/m² 9,6 °C 17,5 °C 17,7 km/h (3 Bft)
30.09.2019 02:38 17,4 °C 60 % 1005,6 hPa 0,0 mm 11,4 km/h (2 Bft) W-NW 292 ° 0 min 0,000 mm 0,0 UV-I 0 W/m² 9,6 °C 17,4 °C 25,7 km/h (4 Bft)
30.09.2019 02:39 17,4 °C 61 % 1005,5 hPa 0,0 mm 14,6 km/h (3 Bft) SW 222 ° 0 min 0,000 mm 0,0 UV-I 0 W/m² 9,8 °C 17,4 °C 24,1 km/h (4 Bft)
30.09.2019 02:40 17,3 °C 61 % 1005,5 hPa 0,0 mm 10,4 km/h (2 Bft) S-SW 206 ° 0 min 0,000 mm 0,0 UV-I 0 W/m² 9,7 °C 17,3 °C 17,7 km/h (3 Bft)
30.09.2019 02:41 17,3 °C 61 % 1005,5 hPa 0,0 mm 13,1 km/h (3 Bft) W 265 ° 0 min 0,000 mm 0,0 UV-I 0 W/m² 9,7 °C 17,3 °C 22,5 km/h (4 Bft)
30.09.2019 02:42 17,2 °C 61 % 1005,5 hPa 0,0 mm 17,1 km/h (3 Bft) W-NW 302 ° 0 min 0,000 mm 0,0 UV-I 0 W/m² 9,6 °C 17,2 °C 20,9 km/h (4 Bft)
30.09.2019 02:43 17,2 °C 61 % 1005,4 hPa 0,0 mm 14,8 km/h (3 Bft) W-SW 248 ° 0 min 0,000 mm 0,0 UV-I 0 W/m² 9,6 °C 17,2 °C 22,5 km/h (4 Bft)
30.09.2019 02:44 17,2 °C 62 % 1005,4 hPa 0,0 mm 11,1 km/h (2 Bft) S-SW 202 ° 0 min 0,000 mm 0,0 UV-I 0 W/m² 9,9 °C 17,2 °C 19,3 km/h (3 Bft)
30.09.2019 02:45 17,1 °C 61 % 1005,5 hPa 0,0 mm 9,2 km/h (2 Bft) W 272 ° 0 min 0,000 mm 0,0 UV-I 0 W/m² 9,5 °C 17,1 °C 17,7 km/h (3 Bft)
30.09.2019 02:46 17,1 °C 62 % 1005,4 hPa 0,0 mm 11,3 km/h (2 Bft) NW 307 ° 0 min 0,000 mm 0,0 UV-I 0 W/m² 9,8 °C 17,1 °C 22,5 km/h (4 Bft)
30.09.2019 02:47 17,1 °C 62 % 1005,2 hPa 0,0 mm 11,3 km/h (2 Bft) W-SW 248 ° 0 min 0,000 mm 0,0 UV-I 0 W/m² 9,8 °C 17,1 °C 16,1 km/h (3 Bft)
30.09.2019 02:48 17,0 °C 62 % 1005,3 hPa 0,0 mm 14,8 km/h (3 Bft) S 186 ° 0 min 0,000 mm 0,0 UV-I 0 W/m² 9,7 °C 17,0 °C 24,1 km/h (4 Bft)
30.09.2019 02:49 17,0 °C 62 % 1005,3 hPa 0,0 mm 10,4 km/h (2 Bft) SW 225 ° 0 min 0,000 mm 0,0 UV-I 0 W/m² 9,7 °C 17,0 °C 19,3 km/h (3 Bft)
30.09.2019 02:50 17,0 °C 62 % 1005,3 hPa 0,0 mm 9,1 km/h (2 Bft) SW 217 ° 0 min 0,000 mm 0,0 UV-I 0 W/m² 9,7 °C 17,0 °C 12,9 km/h (3 Bft)
30.09.2019 02:51 17,0 °C 62 % 1005,3 hPa 0,0 mm 3,9 km/h (1 Bft) SW 231 ° 0 min 0,000 mm 0,0 UV-I 0 W/m² 9,7 °C 17,0 °C 11,3 km/h (2 Bft)
30.09.2019 02:52 17,0 °C 62 % 1005,2 hPa 0,0 mm 10,2 km/h (2 Bft) W 279 ° 0 min 0,000 mm 0,0 UV-I 0 W/m² 9,7 °C 17,0 °C 20,9 km/h (4 Bft)
30.09.2019 02:53 16,9 °C 62 % 1005,2 hPa 0,0 mm 12,5 km/h (3 Bft) W 262 ° 0 min 0,000 mm 0,0 UV-I 0 W/m² 9,6 °C 16,9 °C 20,9 km/h (4 Bft)
30.09.2019 02:54 16,9 °C 62 % 1005,3 hPa 0,0 mm 7,6 km/h (2 Bft) W 264 ° 0 min 0,000 mm 0,0 UV-I 0 W/m² 9,6 °C 16,9 °C 12,9 km/h (3 Bft)
30.09.2019 02:55 16,9 °C 63 % 1005,2 hPa 0,0 mm 11,9 km/h (2 Bft) W 259 ° 0 min 0,000 mm 0,0 UV-I 0 W/m² 9,8 °C 16,9 °C 17,7 km/h (3 Bft)
30.09.2019 02:56 16,8 °C 63 % 1005,2 hPa 0,0 mm 7,3 km/h (2 Bft) W 261 ° 0 min 0,000 mm 0,0 UV-I 0 W/m² 9,7 °C 16,8 °C 12,9 km/h (3 Bft)
30.09.2019 02:57 16,8 °C 63 % 1005,3 hPa 0,0 mm 8,0 km/h (2 Bft) W 272 ° 0 min 0,000 mm 0,0 UV-I 0 W/m² 9,7 °C 16,8 °C 12,9 km/h (3 Bft)
30.09.2019 02:58 16,7 °C 64 % 1005,3 hPa 0,0 mm 13,5 km/h (3 Bft) W 266 ° 0 min 0,000 mm 0,0 UV-I 0 W/m² 9,9 °C 16,7 °C 19,3 km/h (3 Bft)
30.09.2019 02:59 16,7 °C 64 % 1005,3 hPa 0,0 mm 13,3 km/h (3 Bft) W 275 ° 0 min 0,000 mm 0,0 UV-I 0 W/m² 9,9 °C 16,7 °C 19,3 km/h (3 Bft)
30.09.2019 03:00 16,6 °C 64 % 1005,2 hPa 0,0 mm 8,2 km/h (2 Bft) W 271 ° 0 min 0,076 mm 0,0 UV-I 0 W/m² 9,8 °C 16,6 °C 16,1 km/h (3 Bft)
30.09.2019 03:01 16,4 °C 65 % 1005,2 hPa 0,0 mm 6,9 km/h (2 Bft) W 266 ° 0 min 0,000 mm 0,0 UV-I 0 W/m² 9,8 °C 16,4 °C 11,3 km/h (2 Bft)
30.09.2019 03:02 16,3 °C 65 % 1005,2 hPa 0,0 mm 12,2 km/h (2 Bft) SW 228 ° 0 min 0,000 mm 0,0 UV-I 0 W/m² 9,7 °C 16,3 °C 24,1 km/h (4 Bft)
30.09.2019 03:03 16,3 °C 65 % 1005,2 hPa 0,0 mm 14,7 km/h (3 Bft) W-SW 251 ° 0 min 0,000 mm 0,0 UV-I 0 W/m² 9,7 °C 16,3 °C 20,9 km/h (4 Bft)
30.09.2019 03:04 16,3 °C 65 % 1005,1 hPa 0,0 mm 12,0 km/h (2 Bft) W-SW 244 ° 0 min 0,000 mm 0,0 UV-I 0 W/m² 9,7 °C 16,3 °C 17,7 km/h (3 Bft)
30.09.2019 03:05 16,4 °C 64 % 1005,1 hPa 0,0 mm 14,8 km/h (3 Bft) W-SW 247 ° 0 min 0,000 mm 0,0 UV-I 0 W/m² 9,6 °C 16,4 °C 25,7 km/h (4 Bft)
30.09.2019 03:06 16,5 °C 65 % 1005,1 hPa 0,0 mm 8,3 km/h (2 Bft) W 275 ° 0 min 0,000 mm 0,0 UV-I 0 W/m² 9,9 °C 16,5 °C 20,9 km/h (4 Bft)
30.09.2019 03:07 16,5 °C 64 % 1005,1 hPa 0,0 mm 5,4 km/h (1 Bft) W-NW 288 ° 0 min 0,000 mm 0,0 UV-I 0 W/m² 9,7 °C 16,5 °C 14,5 km/h (3 Bft)
30.09.2019 03:08 16,5 °C 64 % 1005,1 hPa 0,0 mm 7,5 km/h (2 Bft) W 281 ° 0 min 0,000 mm 0,0 UV-I 0 W/m² 9,7 °C 16,5 °C 11,3 km/h (2 Bft)
30.09.2019 03:09 16,4 °C 65 % 1005,1 hPa 0,0 mm 9,1 km/h (2 Bft) W-SW 247 ° 0 min 0,000 mm 0,0 UV-I 0 W/m² 9,8 °C 16,4 °C 14,5 km/h (3 Bft)
30.09.2019 03:10 16,4 °C 65 % 1005,2 hPa 0,0 mm 13,9 km/h (3 Bft) NW 313 ° 0 min 0,000 mm 0,0 UV-I 0 W/m² 9,8 °C 16,4 °C 20,9 km/h (4 Bft)
30.09.2019 03:11 16,4 °C 65 % 1005,2 hPa 0,0 mm 13,9 km/h (3 Bft) W-SW 251 ° 0 min 0,000 mm 0,0 UV-I 0 W/m² 9,8 °C 16,4 °C 22,5 km/h (4 Bft)
30.09.2019 03:12 16,3 °C 65 % 1005,2 hPa 0,0 mm 7,2 km/h (2 Bft) S-SO 163 ° 0 min 0,000 mm 0,0 UV-I 0 W/m² 9,7 °C 16,3 °C 12,9 km/h (3 Bft)
30.09.2019 03:13 16,4 °C 65 % 1005,1 hPa 0,0 mm 5,0 km/h (1 Bft) W 265 ° 0 min 0,000 mm 0,0 UV-I 0 W/m² 9,8 °C 16,4 °C 12,9 km/h (3 Bft)
30.09.2019 03:14 16,4 °C 65 % 1005,2 hPa 0,2 mm 10,7 km/h (2 Bft) W-SW 252 ° 0 min 0,000 mm 0,0 UV-I 0 W/m² 9,8 °C 16,4 °C 20,9 km/h (4 Bft)
30.09.2019 03:15 16,5 °C 64 % 1005,2 hPa 0,0 mm 7,8 km/h (2 Bft) W-NW 290 ° 0 min 0,000 mm 0,0 UV-I 0 W/m² 9,7 °C 16,5 °C 11,3 km/h (2 Bft)
30.09.2019 03:16 16,6 °C 64 % 1005,2 hPa 0,0 mm 10,0 km/h (2 Bft) NW 313 ° 0 min 0,000 mm 0,0 UV-I 0 W/m² 9,8 °C 16,6 °C 17,7 km/h (3 Bft)
30.09.2019 03:17 16,6 °C 64 % 1005,2 hPa 0,0 mm 13,2 km/h (3 Bft) W-NW 294 ° 0 min 0,000 mm 0,0 UV-I 0 W/m² 9,8 °C 16,6 °C 17,7 km/h (3 Bft)
30.09.2019 03:18 16,6 °C 64 % 1005,3 hPa 0,0 mm 8,7 km/h (2 Bft) W-NW 302 ° 0 min 0,000 mm 0,0 UV-I 0 W/m² 9,8 °C 16,6 °C 16,1 km/h (3 Bft)
30.09.2019 03:19 16,6 °C 64 % 1005,3 hPa 0,0 mm 12,5 km/h (3 Bft) W 268 ° 0 min 0,000 mm 0,0 UV-I 0 W/m² 9,8 °C 16,6 °C 19,3 km/h (3 Bft)
30.09.2019 03:20 16,6 °C 64 % 1005,2 hPa 0,0 mm 14,4 km/h (3 Bft) W-SW 248 ° 0 min 0,000 mm 0,0 UV-I 0 W/m² 9,8 °C 16,6 °C 20,9 km/h (4 Bft)
30.09.2019 03:21 16,5 °C 65 % 1005,1 hPa 0,0 mm 16,7 km/h (3 Bft) N-NW 327 ° 0 min 0,000 mm 0,0 UV-I 0 W/m² 9,9 °C 16,5 °C 27,4 km/h (4 Bft)
30.09.2019 03:22 16,6 °C 64 % 1005,2 hPa 0,0 mm 12,9 km/h (3 Bft) W 267 ° 0 min 0,000 mm 0,0 UV-I 0 W/m² 9,8 °C 16,6 °C 19,3 km/h (3 Bft)
30.09.2019 03:23 16,6 °C 64 % 1005,2 hPa 0,0 mm 26,1 km/h (4 Bft) W-SW 251 ° 0 min 0,000 mm 0,0 UV-I 0 W/m² 9,8 °C 16,6 °C 45,1 km/h (6 Bft)
30.09.2019 03:24 16,6 °C 64 % 1005,2 hPa 0,0 mm 24,8 km/h (4 Bft) W 274 ° 0 min 0,000 mm 0,0 UV-I 0 W/m² 9,8 °C 16,6 °C 38,6 km/h (5 Bft)
30.09.2019 03:25 16,7 °C 64 % 1005,1 hPa 0,0 mm 19,4 km/h (3 Bft) W 265 ° 0 min 0,000 mm 0,0 UV-I 0 W/m² 9,9 °C 16,7 °C 24,1 km/h (4 Bft)
30.09.2019 03:26 16,8 °C 64 % 1005,1 hPa 0,0 mm 17,7 km/h (3 Bft) W-SW 241 ° 0 min 0,000 mm 0,0 UV-I 0 W/m² 10,0 °C 16,8 °C 24,1 km/h (4 Bft)
30.09.2019 03:27 16,8 °C 64 % 1005,1 hPa 0,0 mm 12,6 km/h (3 Bft) W-NW 283 ° 0 min 0,000 mm 0,0 UV-I 0 W/m² 10,0 °C 16,8 °C 20,9 km/h (4 Bft)
30.09.2019 03:28 16,8 °C 64 % 1005,1 hPa 0,0 mm 14,1 km/h (3 Bft) W-SW 252 ° 0 min 0,000 mm 0,0 UV-I 0 W/m² 10,0 °C 16,8 °C 24,1 km/h (4 Bft)
30.09.2019 03:29 16,8 °C 64 % 1005,0 hPa 0,0 mm 8,7 km/h (2 Bft) W-NW 290 ° 0 min 0,000 mm 0,0 UV-I 0 W/m² 10,0 °C 16,8 °C 12,9 km/h (3 Bft)
30.09.2019 03:30 16,7 °C 64 % 1005,1 hPa 0,0 mm 11,1 km/h (2 Bft) NW 317 ° 0 min 0,000 mm 0,0 UV-I 0 W/m² 9,9 °C 16,7 °C 16,1 km/h (3 Bft)
30.09.2019 03:31 16,7 °C 64 % 1005,2 hPa 0,0 mm 15,2 km/h (3 Bft) W-NW 295 ° 0 min 0,000 mm 0,0 UV-I 0 W/m² 9,9 °C 16,7 °C 24,1 km/h (4 Bft)
30.09.2019 03:32 16,7 °C 64 % 1005,1 hPa 0,0 mm 18,1 km/h (3 Bft) W-NW 303 ° 0 min 0,000 mm 0,0 UV-I 0 W/m² 9,9 °C 16,7 °C 24,1 km/h (4 Bft)
30.09.2019 03:33 16,7 °C 64 % 1005,1 hPa 0,0 mm 12,1 km/h (2 Bft) W-NW 303 ° 0 min 0,000 mm 0,0 UV-I 0 W/m² 9,9 °C 16,7 °C 19,3 km/h (3 Bft)
30.09.2019 03:34 16,7 °C 64 % 1005,1 hPa 0,0 mm 11,5 km/h (2 Bft) W 262 ° 0 min 0,000 mm 0,0 UV-I 0 W/m² 9,9 °C 16,7 °C 19,3 km/h (3 Bft)
30.09.2019 03:35 16,7 °C 64 % 1005,1 hPa 0,0 mm 18,3 km/h (3 Bft) W-SW 254 ° 0 min 0,000 mm 0,0 UV-I 0 W/m² 9,9 °C 16,7 °C 27,4 km/h (4 Bft)
30.09.2019 03:36 16,7 °C 64 % 1005,1 hPa 0,0 mm 13,8 km/h (3 Bft) W 269 ° 0 min 0,000 mm 0,0 UV-I 0 W/m² 9,9 °C 16,7 °C 27,4 km/h (4 Bft)
30.09.2019 03:37 16,7 °C 64 % 1005,1 hPa 0,0 mm 14,4 km/h (3 Bft) NW 311 ° 0 min 0,000 mm 0,0 UV-I 0 W/m² 9,9 °C 16,7 °C 20,9 km/h (4 Bft)
30.09.2019 03:38 16,7 °C 64 % 1005,0 hPa 0,0 mm 12,8 km/h (3 Bft) W-SW 254 ° 0 min 0,000 mm 0,0 UV-I 0 W/m² 9,9 °C 16,7 °C 20,9 km/h (4 Bft)
30.09.2019 03:39 16,7 °C 64 % 1005,2 hPa 0,0 mm 13,7 km/h (3 Bft) W 275 ° 0 min 0,000 mm 0,0 UV-I 0 W/m² 9,9 °C 16,7 °C 22,5 km/h (4 Bft)
30.09.2019 03:40 16,7 °C 65 % 1005,2 hPa 0,0 mm 11,1 km/h (2 Bft) W-SW 248 ° 0 min 0,000 mm 0,0 UV-I 0 W/m² 10,1 °C 16,7 °C 14,5 km/h (3 Bft)
30.09.2019 03:41 16,6 °C 65 % 1005,2 hPa 0,0 mm 15,7 km/h (3 Bft) W 262 ° 0 min 0,000 mm 0,0 UV-I 0 W/m² 10,0 °C 16,6 °C 27,4 km/h (4 Bft)
30.09.2019 03:42 16,6 °C 65 % 1005,1 hPa 0,0 mm 19,6 km/h (3 Bft) W 281 ° 0 min 0,000 mm 0,0 UV-I 0 W/m² 10,0 °C 16,6 °C 32,2 km/h (5 Bft)
30.09.2019 03:43 16,6 °C 65 % 1005,1 hPa 0,0 mm 13,5 km/h (3 Bft) W 266 ° 0 min 0,000 mm 0,0 UV-I 0 W/m² 10,0 °C 16,6 °C 17,7 km/h (3 Bft)
30.09.2019 03:44 16,6 °C 65 % 1005,1 hPa 0,0 mm 15,8 km/h (3 Bft) W 273 ° 0 min 0,000 mm 0,0 UV-I 0 W/m² 10,0 °C 16,6 °C 22,5 km/h (4 Bft)
30.09.2019 03:45 16,6 °C 65 % 1005,1 hPa 0,0 mm 11,3 km/h (2 Bft) W-NW 303 ° 0 min 0,000 mm 0,0 UV-I 0 W/m² 10,0 °C 16,6 °C 19,3 km/h (3 Bft)
30.09.2019 03:46 16,6 °C 65 % 1005,1 hPa 0,0 mm 13,2 km/h (3 Bft) W 274 ° 0 min 0,000 mm 0,0 UV-I 0 W/m² 10,0 °C 16,6 °C 27,4 km/h (4 Bft)
30.09.2019 03:47 16,6 °C 66 % 1005,2 hPa 0,0 mm 15,6 km/h (3 Bft) W 275 ° 0 min 0,000 mm 0,0 UV-I 0 W/m² 10,2 °C 16,6 °C 32,2 km/h (5 Bft)
30.09.2019 03:48 16,6 °C 65 % 1005,1 hPa 0,0 mm 18,8 km/h (3 Bft) NW 304 ° 0 min 0,000 mm 0,0 UV-I 0 W/m² 10,0 °C 16,6 °C 22,5 km/h (4 Bft)
30.09.2019 03:49 16,6 °C 66 % 1005,1 hPa 0,0 mm 20,0 km/h (4 Bft) W 268 ° 0 min 0,000 mm 0,0 UV-I 0 W/m² 10,2 °C 16,6 °C 29,0 km/h (5 Bft)
30.09.2019 03:50 16,6 °C 66 % 1005,2 hPa 0,0 mm 18,8 km/h (3 Bft) W 266 ° 0 min 0,000 mm 0,0 UV-I 0 W/m² 10,2 °C 16,6 °C 27,4 km/h (4 Bft)
30.09.2019 03:51 16,5 °C 66 % 1005,0 hPa 0,0 mm 18,5 km/h (3 Bft) W-NW 293 ° 0 min 0,000 mm 0,0 UV-I 0 W/m² 10,1 °C 16,5 °C 25,7 km/h (4 Bft)
30.09.2019 03:52 16,5 °C 66 % 1005,1 hPa 0,0 mm 9,1 km/h (2 Bft) W 279 ° 0 min 0,000 mm 0,0 UV-I 0 W/m² 10,1 °C 16,5 °C 14,5 km/h (3 Bft)
30.09.2019 03:53 16,4 °C 66 % 1005,1 hPa 0,0 mm 20,7 km/h (4 Bft) W 279 ° 0 min 0,000 mm 0,0 UV-I 0 W/m² 10,0 °C 16,4 °C 33,8 km/h (5 Bft)
30.09.2019 03:54 16,4 °C 66 % 1005,1 hPa 0,0 mm 17,9 km/h (3 Bft) SW 235 ° 0 min 0,000 mm 0,0 UV-I 0 W/m² 10,0 °C 16,4 °C 25,7 km/h (4 Bft)
30.09.2019 03:55 16,4 °C 66 % 1005,1 hPa 0,0 mm 14,7 km/h (3 Bft) SW 224 ° 0 min 0,000 mm 0,0 UV-I 0 W/m² 10,0 °C 16,4 °C 27,4 km/h (4 Bft)
30.09.2019 03:56 16,4 °C 66 % 1005,0 hPa 0,0 mm 16,0 km/h (3 Bft) W 279 ° 0 min 0,000 mm 0,0 UV-I 0 W/m² 10,0 °C 16,4 °C 25,7 km/h (4 Bft)
30.09.2019 03:57 16,3 °C 66 % 1005,1 hPa 0,0 mm 15,1 km/h (3 Bft) W-NW 289 ° 0 min 0,000 mm 0,0 UV-I 0 W/m² 9,9 °C 16,3 °C 19,3 km/h (3 Bft)
30.09.2019 03:58 16,3 °C 67 % 1005,1 hPa 0,0 mm 16,6 km/h (3 Bft) W-NW 287 ° 0 min 0,000 mm 0,0 UV-I 0 W/m² 10,2 °C 16,3 °C 24,1 km/h (4 Bft)
30.09.2019 03:59 16,3 °C 67 % 1005,1 hPa 0,0 mm 12,5 km/h (3 Bft) W 278 ° 0 min 0,000 mm 0,0 UV-I 0 W/m² 10,2 °C 16,3 °C 20,9 km/h (4 Bft)
30.09.2019 04:00 16,3 °C 67 % 1005,2 hPa 0,0 mm 15,4 km/h (3 Bft) W 263 ° 0 min 0,076 mm 0,0 UV-I 0 W/m² 10,2 °C 16,3 °C 24,1 km/h (4 Bft)
30.09.2019 04:01 16,2 °C 67 % 1005,2 hPa 0,0 mm 17,3 km/h (3 Bft) W-NW 286 ° 0 min 0,000 mm 0,0 UV-I 0 W/m² 10,1 °C 16,2 °C 25,7 km/h (4 Bft)
30.09.2019 04:02 16,2 °C 67 % 1005,2 hPa 0,0 mm 16,5 km/h (3 Bft) W 281 ° 0 min 0,000 mm 0,0 UV-I 0 W/m² 10,1 °C 16,2 °C 22,5 km/h (4 Bft)
30.09.2019 04:03 16,1 °C 68 % 1005,2 hPa 0,0 mm 13,7 km/h (3 Bft) W 261 ° 0 min 0,000 mm 0,0 UV-I 0 W/m² 10,2 °C 16,1 °C 27,4 km/h (4 Bft)
30.09.2019 04:04 16,1 °C 68 % 1005,1 hPa 0,0 mm 14,3 km/h (3 Bft) W 270 ° 0 min 0,000 mm 0,0 UV-I 0 W/m² 10,2 °C 16,1 °C 22,5 km/h (4 Bft)
30.09.2019 04:05 16,1 °C 68 % 1005,0 hPa 0,0 mm 10,5 km/h (2 Bft) W-NW 292 ° 0 min 0,000 mm 0,0 UV-I 0 W/m² 10,2 °C 16,1 °C 17,7 km/h (3 Bft)
30.09.2019 04:06 16,1 °C 68 % 1005,2 hPa 0,0 mm 22,4 km/h (4 Bft) W 268 ° 0 min 0,000 mm 0,0 UV-I 0 W/m² 10,2 °C 16,1 °C 38,6 km/h (5 Bft)
30.09.2019 04:07 16,0 °C 68 % 1005,1 hPa 0,0 mm 21,1 km/h (4 Bft) W 278 ° 0 min 0,000 mm 0,0 UV-I 0 W/m² 10,1 °C 16,0 °C 35,4 km/h (5 Bft)
30.09.2019 04:08 16,1 °C 68 % 1005,2 hPa 0,0 mm 17,3 km/h (3 Bft) W 269 ° 0 min 0,000 mm 0,0 UV-I 0 W/m² 10,2 °C 16,1 °C 37,0 km/h (5 Bft)
30.09.2019 04:09 16,1 °C 68 % 1005,1 hPa 0,0 mm 18,5 km/h (3 Bft) W-NW 285 ° 0 min 0,000 mm 0,0 UV-I 0 W/m² 10,2 °C 16,1 °C 29,0 km/h (5 Bft)
30.09.2019 04:10 16,1 °C 68 % 1005,1 hPa 0,0 mm 17,0 km/h (3 Bft) W 269 ° 0 min 0,000 mm 0,0 UV-I 0 W/m² 10,2 °C 16,1 °C 25,7 km/h (4 Bft)
30.09.2019 04:11 16,1 °C 68 % 1005,2 hPa 0,0 mm 19,1 km/h (3 Bft) W-NW 286 ° 0 min 0,000 mm 0,0 UV-I 0 W/m² 10,2 °C 16,1 °C 30,6 km/h (5 Bft)
30.09.2019 04:12 16,1 °C 68 % 1005,2 hPa 0,0 mm 15,6 km/h (3 Bft) W-SW 251 ° 0 min 0,000 mm 0,0 UV-I 0 W/m² 10,2 °C 16,1 °C 20,9 km/h (4 Bft)
30.09.2019 04:13 16,1 °C 69 % 1005,2 hPa 0,0 mm 21,0 km/h (4 Bft) NW 306 ° 0 min 0,000 mm 0,0 UV-I 0 W/m² 10,4 °C 16,1 °C 33,8 km/h (5 Bft)
30.09.2019 04:14 16,1 °C 68 % 1005,3 hPa 0,0 mm 20,1 km/h (4 Bft) W-SW 254 ° 0 min 0,000 mm 0,0 UV-I 0 W/m² 10,2 °C 16,1 °C 33,8 km/h (5 Bft)
30.09.2019 04:15 16,1 °C 68 % 1005,2 hPa 0,0 mm 21,7 km/h (4 Bft) W-NW 288 ° 0 min 0,000 mm 0,0 UV-I 0 W/m² 10,2 °C 16,1 °C 33,8 km/h (5 Bft)
30.09.2019 04:16 16,1 °C 68 % 1005,2 hPa 0,0 mm 17,2 km/h (3 Bft) W 263 ° 0 min 0,000 mm 0,0 UV-I 0 W/m² 10,2 °C 16,1 °C 24,1 km/h (4 Bft)
30.09.2019 04:17 16,2 °C 68 % 1005,2 hPa 0,0 mm 18,9 km/h (3 Bft) W 264 ° 0 min 0,000 mm 0,0 UV-I 0 W/m² 10,3 °C 16,2 °C 25,7 km/h (4 Bft)
30.09.2019 04:18 16,2 °C 68 % 1005,2 hPa 0,0 mm 15,1 km/h (3 Bft) W-SW 257 ° 0 min 0,000 mm 0,0 UV-I 0 W/m² 10,3 °C 16,2 °C 20,9 km/h (4 Bft)
30.09.2019 04:19 16,2 °C 68 % 1005,2 hPa 0,0 mm 23,1 km/h (4 Bft) W-NW 282 ° 0 min 0,000 mm 0,0 UV-I 0 W/m² 10,3 °C 16,2 °C 37,0 km/h (5 Bft)
30.09.2019 04:20 16,2 °C 68 % 1005,2 hPa 0,0 mm 22,5 km/h (4 Bft) W 267 ° 0 min 0,000 mm 0,0 UV-I 0 W/m² 10,3 °C 16,2 °C 45,1 km/h (6 Bft)
30.09.2019 04:21 16,2 °C 68 % 1005,3 hPa 0,0 mm 25,7 km/h (4 Bft) NW 322 ° 0 min 0,000 mm 0,0 UV-I 0 W/m² 10,3 °C 16,2 °C 41,8 km/h (6 Bft)
30.09.2019 04:22 16,3 °C 68 % 1005,2 hPa 0,0 mm 28,5 km/h (4 Bft) W 275 ° 0 min 0,000 mm 0,0 UV-I 0 W/m² 10,4 °C 16,3 °C 49,9 km/h (6 Bft)
30.09.2019 04:23 16,3 °C 68 % 1005,2 hPa 0,0 mm 22,0 km/h (4 Bft) W-SW 258 ° 0 min 0,000 mm 0,0 UV-I 0 W/m² 10,4 °C 16,3 °C 33,8 km/h (5 Bft)
30.09.2019 04:24 16,3 °C 68 % 1005,2 hPa 0,0 mm 16,9 km/h (3 Bft) NW 306 ° 0 min 0,000 mm 0,0 UV-I 0 W/m² 10,4 °C 16,3 °C 24,1 km/h (4 Bft)
30.09.2019 04:25 16,3 °C 68 % 1005,2 hPa 0,0 mm 14,6 km/h (3 Bft) NW 311 ° 0 min 0,000 mm 0,0 UV-I 0 W/m² 10,4 °C 16,3 °C 24,1 km/h (4 Bft)
30.09.2019 04:26 16,3 °C 68 % 1005,3 hPa 0,0 mm 25,0 km/h (4 Bft) W 281 ° 0 min 0,000 mm 0,0 UV-I 0 W/m² 10,4 °C 16,3 °C 41,8 km/h (6 Bft)
30.09.2019 04:27 16,3 °C 68 % 1005,2 hPa 0,0 mm 29,9 km/h (5 Bft) W-SW 255 ° 0 min 0,000 mm 0,0 UV-I 0 W/m² 10,4 °C 16,3 °C 49,9 km/h (6 Bft)
30.09.2019 04:28 16,3 °C 68 % 1005,2 hPa 0,0 mm 16,5 km/h (3 Bft) W-NW 292 ° 0 min 0,000 mm 0,0 UV-I 0 W/m² 10,4 °C 16,3 °C 27,4 km/h (4 Bft)
30.09.2019 04:29 16,3 °C 68 % 1005,3 hPa 0,0 mm 16,2 km/h (3 Bft) W 267 ° 0 min 0,000 mm 0,0 UV-I 0 W/m² 10,4 °C 16,3 °C 24,1 km/h (4 Bft)
30.09.2019 04:30 16,3 °C 68 % 1005,4 hPa 0,0 mm 25,1 km/h (4 Bft) W 263 ° 0 min 0,000 mm 0,0 UV-I 0 W/m² 10,4 °C 16,3 °C 40,2 km/h (6 Bft)
30.09.2019 04:31 16,3 °C 69 % 1005,1 hPa 0,0 mm 28,6 km/h (4 Bft) NW 314 ° 0 min 0,000 mm 0,0 UV-I 0 W/m² 10,6 °C 16,3 °C 41,8 km/h (6 Bft)
30.09.2019 04:32 16,3 °C 68 % 1005,1 hPa 0,0 mm 24,2 km/h (4 Bft) W 281 ° 0 min 0,000 mm 0,0 UV-I 0 W/m² 10,4 °C 16,3 °C 32,2 km/h (5 Bft)
30.09.2019 04:33 16,3 °C 68 % 1005,4 hPa 0,0 mm 18,0 km/h (3 Bft) W 264 ° 0 min 0,000 mm 0,0 UV-I 0 W/m² 10,4 °C 16,3 °C 29,0 km/h (5 Bft)
30.09.2019 04:34 16,4 °C 68 % 1005,2 hPa 0,0 mm 20,6 km/h (4 Bft) W 275 ° 0 min 0,000 mm 0,0 UV-I 0 W/m² 10,5 °C 16,4 °C 37,0 km/h (5 Bft)
30.09.2019 04:35 16,4 °C 68 % 1005,2 hPa 0,0 mm 20,4 km/h (4 Bft) W-NW 300 ° 0 min 0,000 mm 0,0 UV-I 0 W/m² 10,5 °C 16,4 °C 40,2 km/h (6 Bft)
30.09.2019 04:36 16,4 °C 68 % 1005,2 hPa 0,0 mm 24,6 km/h (4 Bft) W 259 ° 0 min 0,000 mm 0,0 UV-I 0 W/m² 10,5 °C 16,4 °C 35,4 km/h (5 Bft)
30.09.2019 04:37 16,4 °C 68 % 1005,2 hPa 0,0 mm 32,8 km/h (5 Bft) W-NW 297 ° 0 min 0,000 mm 0,0 UV-I 0 W/m² 10,5 °C 16,4 °C 51,5 km/h (7 Bft)
30.09.2019 04:38 16,4 °C 68 % 1005,0 hPa 0,0 mm 24,4 km/h (4 Bft) W 273 ° 0 min 0,000 mm 0,0 UV-I 0 W/m² 10,5 °C 16,4 °C 46,7 km/h (6 Bft)
30.09.2019 04:39 16,4 °C 68 % 1005,2 hPa 0,0 mm 21,4 km/h (4 Bft) W 269 ° 0 min 0,000 mm 0,0 UV-I 0 W/m² 10,5 °C 16,4 °C 30,6 km/h (5 Bft)
30.09.2019 04:40 16,4 °C 68 % 1005,3 hPa 0,0 mm 21,1 km/h (4 Bft) W-NW 293 ° 0 min 0,000 mm 0,0 UV-I 0 W/m² 10,5 °C 16,4 °C 29,0 km/h (5 Bft)
30.09.2019 04:41 16,4 °C 68 % 1005,1 hPa 0,0 mm 25,0 km/h (4 Bft) W-SW 255 ° 0 min 0,000 mm 0,0 UV-I 0 W/m² 10,5 °C 16,4 °C 45,1 km/h (6 Bft)
30.09.2019 04:42 16,4 °C 68 % 1005,3 hPa 0,0 mm 23,4 km/h (4 Bft) W 269 ° 0 min 0,000 mm 0,0 UV-I 0 W/m² 10,5 °C 16,4 °C 32,2 km/h (5 Bft)
30.09.2019 04:43 16,4 °C 68 % 1005,2 hPa 0,0 mm 29,5 km/h (5 Bft) W-SW 244 ° 0 min 0,000 mm 0,0 UV-I 0 W/m² 10,5 °C 16,4 °C 38,6 km/h (5 Bft)
30.09.2019 04:44 16,5 °C 68 % 1005,3 hPa 0,0 mm 27,0 km/h (4 Bft) SW 232 ° 0 min 0,000 mm 0,0 UV-I 0 W/m² 10,6 °C 16,5 °C 48,3 km/h (6 Bft)
30.09.2019 04:45 16,5 °C 68 % 1005,3 hPa 0,0 mm 25,5 km/h (4 Bft) SW 222 ° 0 min 0,000 mm 0,0 UV-I 0 W/m² 10,6 °C 16,5 °C 33,8 km/h (5 Bft)
30.09.2019 04:46 16,5 °C 68 % 1005,4 hPa 0,0 mm 22,6 km/h (4 Bft) W-SW 252 ° 0 min 0,000 mm 0,0 UV-I 0 W/m² 10,6 °C 16,5 °C 38,6 km/h (5 Bft)
30.09.2019 04:47 16,5 °C 68 % 1005,3 hPa 0,0 mm 25,3 km/h (4 Bft) W 259 ° 0 min 0,000 mm 0,0 UV-I 0 W/m² 10,6 °C 16,5 °C 33,8 km/h (5 Bft)
30.09.2019 04:48 16,5 °C 68 % 1005,3 hPa 0,0 mm 24,1 km/h (4 Bft) W 265 ° 0 min 0,000 mm 0,0 UV-I 0 W/m² 10,6 °C 16,5 °C 37,0 km/h (5 Bft)
30.09.2019 04:49 16,6 °C 68 % 1005,2 hPa 0,0 mm 17,0 km/h (3 Bft) SW 233 ° 0 min 0,000 mm 0,0 UV-I 0 W/m² 10,7 °C 16,6 °C 30,6 km/h (5 Bft)
30.09.2019 04:50 16,6 °C 68 % 1005,2 hPa 0,0 mm 17,8 km/h (3 Bft) W 267 ° 0 min 0,000 mm 0,0 UV-I 0 W/m² 10,7 °C 16,6 °C 25,7 km/h (4 Bft)
30.09.2019 04:51 16,6 °C 68 % 1005,4 hPa 0,0 mm 18,7 km/h (3 Bft) W-NW 284 ° 0 min 0,000 mm 0,0 UV-I 0 W/m² 10,7 °C 16,6 °C 25,7 km/h (4 Bft)
30.09.2019 04:52 16,5 °C 69 % 1005,4 hPa 0,0 mm 17,8 km/h (3 Bft) W-SW 257 ° 0 min 0,000 mm 0,0 UV-I 0 W/m² 10,8 °C 16,5 °C 27,4 km/h (4 Bft)
30.09.2019 04:53 16,5 °C 69 % 1005,3 hPa 0,0 mm 25,5 km/h (4 Bft) W 271 ° 0 min 0,000 mm 0,0 UV-I 0 W/m² 10,8 °C 16,5 °C 43,5 km/h (6 Bft)
30.09.2019 04:54 16,5 °C 68 % 1005,4 hPa 0,0 mm 20,4 km/h (4 Bft) W 280 ° 0 min 0,000 mm 0,0 UV-I 0 W/m² 10,6 °C 16,5 °C 32,2 km/h (5 Bft)
30.09.2019 04:55 16,5 °C 68 % 1005,6 hPa 0,0 mm 33,9 km/h (5 Bft) W 265 ° 0 min 0,000 mm 0,0 UV-I 0 W/m² 10,6 °C 16,5 °C 49,9 km/h (6 Bft)
30.09.2019 04:56 16,6 °C 68 % 1005,4 hPa 0,0 mm 22,6 km/h (4 Bft) W 266 ° 0 min 0,000 mm 0,0 UV-I 0 W/m² 10,7 °C 16,6 °C 33,8 km/h (5 Bft)
30.09.2019 04:57 16,6 °C 68 % 1005,4 hPa 0,0 mm 28,1 km/h (4 Bft) W 279 ° 0 min 0,000 mm 0,0 UV-I 0 W/m² 10,7 °C 16,6 °C 45,1 km/h (6 Bft)
30.09.2019 04:58 16,7 °C 68 % 1005,4 hPa 0,0 mm 22,2 km/h (4 Bft) W-NW 284 ° 0 min 0,000 mm 0,0 UV-I 0 W/m² 10,8 °C 16,7 °C 38,6 km/h (5 Bft)
30.09.2019 04:59 16,7 °C 68 % 1005,5 hPa 0,0 mm 28,2 km/h (4 Bft) W-NW 282 ° 0 min 0,000 mm 0,0 UV-I 0 W/m² 10,8 °C 16,7 °C 43,5 km/h (6 Bft)
30.09.2019 05:00 16,7 °C 68 % 1005,4 hPa 0,0 mm 21,3 km/h (4 Bft) W-NW 285 ° 0 min 0,102 mm 0,0 UV-I 0 W/m² 10,8 °C 16,7 °C 32,2 km/h (5 Bft)
30.09.2019 05:01 16,7 °C 68 % 1005,4 hPa 0,0 mm 18,4 km/h (3 Bft) W 271 ° 0 min 0,000 mm 0,0 UV-I 0 W/m² 10,8 °C 16,7 °C 32,2 km/h (5 Bft)
30.09.2019 05:02 16,7 °C 68 % 1005,4 hPa 0,0 mm 21,5 km/h (4 Bft) W-SW 242 ° 0 min 0,000 mm 0,0 UV-I 0 W/m² 10,8 °C 16,7 °C 40,2 km/h (6 Bft)
30.09.2019 05:03 16,7 °C 68 % 1005,6 hPa 0,0 mm 30,6 km/h (5 Bft) W 277 ° 0 min 0,000 mm 0,0 UV-I 0 W/m² 10,8 °C 16,7 °C 41,8 km/h (6 Bft)
30.09.2019 05:04 16,7 °C 68 % 1005,5 hPa 0,0 mm 31,4 km/h (5 Bft) W-NW 300 ° 0 min 0,000 mm 0,0 UV-I 0 W/m² 10,8 °C 16,7 °C 43,5 km/h (6 Bft)
30.09.2019 05:05 16,7 °C 68 % 1005,4 hPa 0,0 mm 18,1 km/h (3 Bft) W 273 ° 0 min 0,000 mm 0,0 UV-I 0 W/m² 10,8 °C 16,7 °C 30,6 km/h (5 Bft)
30.09.2019 05:06 16,7 °C 68 % 1005,7 hPa 0,0 mm 28,5 km/h (4 Bft) W-SW 258 ° 0 min 0,000 mm 0,0 UV-I 0 W/m² 10,8 °C 16,7 °C 40,2 km/h (6 Bft)
30.09.2019 05:07 16,7 °C 68 % 1005,5 hPa 0,0 mm 26,4 km/h (4 Bft) W-SW 257 ° 0 min 0,000 mm 0,0 UV-I 0 W/m² 10,8 °C 16,7 °C 38,6 km/h (5 Bft)
30.09.2019 05:08 16,8 °C 68 % 1005,6 hPa 0,2 mm 25,2 km/h (4 Bft) W 275 ° 0 min 0,000 mm 0,0 UV-I 0 W/m² 10,9 °C 16,8 °C 46,7 km/h (6 Bft)
30.09.2019 05:09 16,8 °C 68 % 1005,5 hPa 0,0 mm 21,3 km/h (4 Bft) W-SW 242 ° 0 min 0,000 mm 0,0 UV-I 0 W/m² 10,9 °C 16,8 °C 30,6 km/h (5 Bft)
30.09.2019 05:10 16,8 °C 68 % 1005,6 hPa 0,0 mm 25,4 km/h (4 Bft) W 274 ° 0 min 0,000 mm 0,0 UV-I 0 W/m² 10,9 °C 16,8 °C 37,0 km/h (5 Bft)
30.09.2019 05:11 16,8 °C 68 % 1005,7 hPa 0,0 mm 17,6 km/h (3 Bft) W-SW 256 ° 0 min 0,000 mm 0,0 UV-I 0 W/m² 10,9 °C 16,8 °C 38,6 km/h (5 Bft)
30.09.2019 05:12 16,8 °C 68 % 1005,7 hPa 0,0 mm 23,6 km/h (4 Bft) W-SW 254 ° 0 min 0,000 mm 0,0 UV-I 0 W/m² 10,9 °C 16,8 °C 41,8 km/h (6 Bft)
30.09.2019 05:13 16,8 °C 68 % 1005,5 hPa 0,0 mm 23,4 km/h (4 Bft) W 265 ° 0 min 0,000 mm 0,0 UV-I 0 W/m² 10,9 °C 16,8 °C 35,4 km/h (5 Bft)
30.09.2019 05:14 16,8 °C 69 % 1005,4 hPa 0,0 mm 21,5 km/h (4 Bft) W-SW 241 ° 0 min 0,000 mm 0,0 UV-I 0 W/m² 11,1 °C 16,8 °C 35,4 km/h (5 Bft)
30.09.2019 05:15 16,8 °C 68 % 1005,8 hPa 0,0 mm 23,3 km/h (4 Bft) W-NW 288 ° 0 min 0,000 mm 0,0 UV-I 0 W/m² 10,9 °C 16,8 °C 43,5 km/h (6 Bft)
30.09.2019 05:16 16,8 °C 68 % 1005,7 hPa 0,0 mm 23,5 km/h (4 Bft) W 281 ° 0 min 0,000 mm 0,0 UV-I 0 W/m² 10,9 °C 16,8 °C 33,8 km/h (5 Bft)
30.09.2019 05:17 16,8 °C 68 % 1005,5 hPa 0,0 mm 20,3 km/h (4 Bft) NW 306 ° 0 min 0,000 mm 0,0 UV-I 0 W/m² 10,9 °C 16,8 °C 33,8 km/h (5 Bft)
30.09.2019 05:18 16,8 °C 68 % 1005,7 hPa 0,0 mm 24,8 km/h (4 Bft) W 262 ° 0 min 0,000 mm 0,0 UV-I 0 W/m² 10,9 °C 16,8 °C 38,6 km/h (5 Bft)
30.09.2019 05:19 16,8 °C 68 % 1005,7 hPa 0,0 mm 24,7 km/h (4 Bft) W-NW 294 ° 0 min 0,000 mm 0,0 UV-I 0 W/m² 10,9 °C 16,8 °C 41,8 km/h (6 Bft)
30.09.2019 05:20 16,8 °C 68 % 1005,7 hPa 0,0 mm 17,6 km/h (3 Bft) NW 325 ° 0 min 0,000 mm 0,0 UV-I 0 W/m² 10,9 °C 16,8 °C 22,5 km/h (4 Bft)
30.09.2019 05:21 16,8 °C 68 % 1005,7 hPa 0,0 mm 23,3 km/h (4 Bft) NW 309 ° 0 min 0,000 mm 0,0 UV-I 0 W/m² 10,9 °C 16,8 °C 45,1 km/h (6 Bft)
30.09.2019 05:22 16,8 °C 69 % 1005,7 hPa 0,0 mm 25,8 km/h (4 Bft) W 269 ° 0 min 0,000 mm 0,0 UV-I 0 W/m² 11,1 °C 16,8 °C 38,6 km/h (5 Bft)
30.09.2019 05:23 16,8 °C 68 % 1005,7 hPa 0,0 mm 23,6 km/h (4 Bft) W-NW 287 ° 0 min 0,000 mm 0,0 UV-I 0 W/m² 10,9 °C 16,8 °C 33,8 km/h (5 Bft)
30.09.2019 05:24 16,8 °C 69 % 1005,7 hPa 0,0 mm 20,5 km/h (4 Bft) W 267 ° 0 min 0,000 mm 0,0 UV-I 0 W/m² 11,1 °C 16,8 °C 32,2 km/h (5 Bft)
30.09.2019 05:25 16,8 °C 69 % 1005,7 hPa 0,0 mm 21,3 km/h (4 Bft) NW 323 ° 0 min 0,000 mm 0,0 UV-I 0 W/m² 11,1 °C 16,8 °C 40,2 km/h (6 Bft)
30.09.2019 05:26 16,7 °C 69 % 1005,7 hPa 0,0 mm 21,0 km/h (4 Bft) W-NW 289 ° 0 min 0,000 mm 0,0 UV-I 0 W/m² 11,0 °C 16,7 °C 30,6 km/h (5 Bft)
30.09.2019 05:27 16,7 °C 69 % 1005,6 hPa 0,0 mm 24,1 km/h (4 Bft) W-NW 295 ° 0 min 0,000 mm 0,0 UV-I 0 W/m² 11,0 °C 16,7 °C 37,0 km/h (5 Bft)
30.09.2019 05:28 16,7 °C 69 % 1005,7 hPa 0,0 mm 25,3 km/h (4 Bft) W 260 ° 0 min 0,000 mm 0,0 UV-I 0 W/m² 11,0 °C 16,7 °C 40,2 km/h (6 Bft)
30.09.2019 05:29 16,7 °C 69 % 1005,7 hPa 0,0 mm 32,3 km/h (5 Bft) W 268 ° 0 min 0,000 mm 0,0 UV-I 0 W/m² 11,0 °C 16,7 °C 48,3 km/h (6 Bft)
30.09.2019 05:30 16,7 °C 69 % 1005,8 hPa 0,0 mm 29,6 km/h (5 Bft) W-NW 292 ° 0 min 0,000 mm 0,0 UV-I 0 W/m² 11,0 °C 16,7 °C 43,5 km/h (6 Bft)
30.09.2019 05:31 16,8 °C 69 % 1005,6 hPa 0,0 mm 23,5 km/h (4 Bft) W-NW 301 ° 0 min 0,000 mm 0,0 UV-I 0 W/m² 11,1 °C 16,8 °C 30,6 km/h (5 Bft)
30.09.2019 05:32 16,8 °C 69 % 1005,7 hPa 0,0 mm 25,0 km/h (4 Bft) W 267 ° 0 min 0,000 mm 0,0 UV-I 0 W/m² 11,1 °C 16,8 °C 45,1 km/h (6 Bft)
30.09.2019 05:33 16,8 °C 69 % 1005,7 hPa 0,0 mm 31,0 km/h (5 Bft) S-SW 207 ° 0 min 0,000 mm 0,0 UV-I 0 W/m² 11,1 °C 16,8 °C 49,9 km/h (6 Bft)
30.09.2019 05:34 16,8 °C 69 % 1005,6 hPa 0,0 mm 37,2 km/h (5 Bft) W-NW 296 ° 0 min 0,000 mm 0,0 UV-I 0 W/m² 11,1 °C 16,8 °C 54,7 km/h (7 Bft)
30.09.2019 05:35 16,8 °C 69 % 1005,7 hPa 0,0 mm 23,1 km/h (4 Bft) S-SW 213 ° 0 min 0,000 mm 0,0 UV-I 0 W/m² 11,1 °C 16,8 °C 35,4 km/h (5 Bft)
30.09.2019 05:36 16,8 °C 69 % 1005,7 hPa 0,0 mm 17,4 km/h (3 Bft) W-NW 294 ° 0 min 0,000 mm 0,0 UV-I 0 W/m² 11,1 °C 16,8 °C 24,1 km/h (4 Bft)
30.09.2019 05:37 16,8 °C 69 % 1005,8 hPa 0,0 mm 29,9 km/h (5 Bft) W-NW 283 ° 0 min 0,000 mm 0,0 UV-I 0 W/m² 11,1 °C 16,8 °C 48,3 km/h (6 Bft)
30.09.2019 05:38 16,8 °C 69 % 1005,7 hPa 0,0 mm 17,6 km/h (3 Bft) SW 224 ° 0 min 0,000 mm 0,0 UV-I 0 W/m² 11,1 °C 16,8 °C 30,6 km/h (5 Bft)
30.09.2019 05:39 16,8 °C 69 % 1005,8 hPa 0,0 mm 24,0 km/h (4 Bft) W 269 ° 0 min 0,000 mm 0,0 UV-I 0 W/m² 11,1 °C 16,8 °C 46,7 km/h (6 Bft)
30.09.2019 05:40 16,8 °C 69 % 1005,8 hPa 0,0 mm 28,2 km/h (4 Bft) W 278 ° 0 min 0,000 mm 0,0 UV-I 0 W/m² 11,1 °C 16,8 °C 46,7 km/h (6 Bft)
30.09.2019 05:41 16,8 °C 69 % 1005,8 hPa 0,0 mm 25,5 km/h (4 Bft) W 277 ° 0 min 0,000 mm 0,0 UV-I 0 W/m² 11,1 °C 16,8 °C 41,8 km/h (6 Bft)
30.09.2019 05:42 16,8 °C 69 % 1005,8 hPa 0,0 mm 22,4 km/h (4 Bft) W 264 ° 0 min 0,000 mm 0,0 UV-I 0 W/m² 11,1 °C 16,8 °C 43,5 km/h (6 Bft)
30.09.2019 05:43 16,8 °C 69 % 1005,7 hPa 0,0 mm 21,7 km/h (4 Bft) W 271 ° 0 min 0,000 mm 0,0 UV-I 0 W/m² 11,1 °C 16,8 °C 32,2 km/h (5 Bft)
30.09.2019 05:44 16,8 °C 69 % 1005,7 hPa 0,0 mm 27,6 km/h (4 Bft) W-SW 250 ° 0 min 0,000 mm 0,0 UV-I 0 W/m² 11,1 °C 16,8 °C 45,1 km/h (6 Bft)
30.09.2019 05:45 16,8 °C 69 % 1005,7 hPa 0,0 mm 25,7 km/h (4 Bft) W 266 ° 0 min 0,000 mm 0,0 UV-I 0 W/m² 11,1 °C 16,8 °C 32,2 km/h (5 Bft)
30.09.2019 05:46 16,8 °C 69 % 1005,7 hPa 0,0 mm 26,9 km/h (4 Bft) W-NW 301 ° 0 min 0,000 mm 0,0 UV-I 0 W/m² 11,1 °C 16,8 °C 37,0 km/h (5 Bft)
30.09.2019 05:47 16,8 °C 69 % 1005,7 hPa 0,0 mm 22,9 km/h (4 Bft) W-SW 255 ° 0 min 0,000 mm 0,0 UV-I 0 W/m² 11,1 °C 16,8 °C 54,7 km/h (7 Bft)
30.09.2019 05:48 16,8 °C 68 % 1005,9 hPa 0,0 mm 30,1 km/h (5 Bft) W-NW 296 ° 0 min 0,000 mm 0,0 UV-I 0 W/m² 10,9 °C 16,8 °C 51,5 km/h (7 Bft)
30.09.2019 05:49 16,8 °C 68 % 1005,7 hPa 0,0 mm 23,4 km/h (4 Bft) W 275 ° 0 min 0,000 mm 0,0 UV-I 0 W/m² 10,9 °C 16,8 °C 37,0 km/h (5 Bft)
30.09.2019 05:50 16,8 °C 68 % 1005,7 hPa 0,0 mm 23,4 km/h (4 Bft) W-NW 293 ° 0 min 0,000 mm 0,0 UV-I 0 W/m² 10,9 °C 16,8 °C 30,6 km/h (5 Bft)
30.09.2019 05:51 16,8 °C 68 % 1005,7 hPa 0,0 mm 23,9 km/h (4 Bft) W-SW 238 ° 0 min 0,000 mm 0,0 UV-I 0 W/m² 10,9 °C 16,8 °C 30,6 km/h (5 Bft)
30.09.2019 05:52 16,7 °C 69 % 1005,8 hPa 0,0 mm 28,7 km/h (4 Bft) N 360 ° 0 min 0,000 mm 0,0 UV-I 0 W/m² 11,0 °C 16,7 °C 43,5 km/h (6 Bft)
30.09.2019 05:53 16,7 °C 68 % 1005,8 hPa 0,0 mm 17,7 km/h (3 Bft) W 278 ° 0 min 0,000 mm 0,0 UV-I 0 W/m² 10,8 °C 16,7 °C 27,4 km/h (4 Bft)
30.09.2019 05:54 16,7 °C 68 % 1005,8 hPa 0,0 mm 28,4 km/h (4 Bft) W 275 ° 0 min 0,000 mm 0,0 UV-I 0 W/m² 10,8 °C 16,7 °C 49,9 km/h (6 Bft)
30.09.2019 05:55 16,7 °C 68 % 1005,8 hPa 0,0 mm 22,5 km/h (4 Bft) W-NW 288 ° 0 min 0,000 mm 0,0 UV-I 0 W/m² 10,8 °C 16,7 °C 38,6 km/h (5 Bft)
30.09.2019 05:56 16,7 °C 68 % 1005,8 hPa 0,0 mm 26,9 km/h (4 Bft) W 277 ° 0 min 0,000 mm 0,0 UV-I 0 W/m² 10,8 °C 16,7 °C 48,3 km/h (6 Bft)
30.09.2019 05:57 16,7 °C 68 % 1005,9 hPa 0,0 mm 26,0 km/h (4 Bft) W 278 ° 0 min 0,000 mm 0,0 UV-I 0 W/m² 10,8 °C 16,7 °C 33,8 km/h (5 Bft)
30.09.2019 05:58 16,7 °C 68 % 1005,8 hPa 0,0 mm 25,0 km/h (4 Bft) W 276 ° 0 min 0,000 mm 0,0 UV-I 0 W/m² 10,8 °C 16,7 °C 35,4 km/h (5 Bft)
30.09.2019 05:59 16,7 °C 68 % 1005,8 hPa 0,0 mm 31,9 km/h (5 Bft) W 263 ° 0 min 0,000 mm 0,0 UV-I 0 W/m² 10,8 °C 16,7 °C 43,5 km/h (6 Bft)
30.09.2019 06:00 16,7 °C 68 % 1005,8 hPa 0,0 mm 28,9 km/h (5 Bft) W-SW 238 ° 0 min 0,000 mm 0,0 UV-I 0 W/m² 10,8 °C 16,7 °C 51,5 km/h (7 Bft)
30.09.2019 06:01 16,7 °C 68 % 1005,7 hPa 0,0 mm 33,8 km/h (5 Bft) NW 304 ° 0 min 0,101 mm 0,0 UV-I 0 W/m² 10,8 °C 16,7 °C 46,7 km/h (6 Bft)
30.09.2019 06:02 16,7 °C 68 % 1005,9 hPa 0,0 mm 23,4 km/h (4 Bft) W-SW 251 ° 0 min 0,000 mm 0,0 UV-I 0 W/m² 10,8 °C 16,7 °C 37,0 km/h (5 Bft)
30.09.2019 06:03 16,7 °C 68 % 1005,7 hPa 0,0 mm 25,4 km/h (4 Bft) W 270 ° 0 min 0,000 mm 0,0 UV-I 0 W/m² 10,8 °C 16,7 °C 30,6 km/h (5 Bft)
30.09.2019 06:04 16,7 °C 68 % 1005,9 hPa 0,0 mm 27,9 km/h (4 Bft) W 265 ° 0 min 0,000 mm 0,0 UV-I 0 W/m² 10,8 °C 16,7 °C 41,8 km/h (6 Bft)
30.09.2019 06:05 16,7 °C 68 % 1005,9 hPa 0,0 mm 25,8 km/h (4 Bft) NW 317 ° 0 min 0,000 mm 0,0 UV-I 0 W/m² 10,8 °C 16,7 °C 41,8 km/h (6 Bft)
30.09.2019 06:06 16,7 °C 67 % 1005,8 hPa 0,0 mm 21,1 km/h (4 Bft) W-NW 288 ° 0 min 0,000 mm 0,0 UV-I 0 W/m² 10,5 °C 16,7 °C 32,2 km/h (5 Bft)
30.09.2019 06:07 16,7 °C 67 % 1005,8 hPa 0,0 mm 26,8 km/h (4 Bft) NW 323 ° 0 min 0,000 mm 0,0 UV-I 0 W/m² 10,5 °C 16,7 °C 41,8 km/h (6 Bft)
30.09.2019 06:08 16,7 °C 67 % 1005,8 hPa 0,0 mm 31,9 km/h (5 Bft) NW 309 ° 0 min 0,000 mm 0,0 UV-I 0 W/m² 10,5 °C 16,7 °C 54,7 km/h (7 Bft)
30.09.2019 06:09 16,8 °C 67 % 1005,9 hPa 0,0 mm 25,0 km/h (4 Bft) W-NW 299 ° 0 min 0,000 mm 0,0 UV-I 0 W/m² 10,6 °C 16,8 °C 43,5 km/h (6 Bft)
30.09.2019 06:10 16,7 °C 67 % 1005,9 hPa 0,0 mm 25,5 km/h (4 Bft) W 266 ° 0 min 0,000 mm 0,0 UV-I 0 W/m² 10,5 °C 16,7 °C 38,6 km/h (5 Bft)
30.09.2019 06:11 16,7 °C 67 % 1005,9 hPa 0,0 mm 15,4 km/h (3 Bft) W 269 ° 0 min 0,000 mm 0,0 UV-I 0 W/m² 10,5 °C 16,7 °C 29,0 km/h (5 Bft)
30.09.2019 06:12 16,7 °C 67 % 1005,8 hPa 0,0 mm 33,1 km/h (5 Bft) NW 309 ° 0 min 0,000 mm 0,0 UV-I 0 W/m² 10,5 °C 16,7 °C 51,5 km/h (7 Bft)
30.09.2019 06:13 16,7 °C 67 % 1005,9 hPa 0,0 mm 19,0 km/h (3 Bft) W-NW 293 ° 0 min 0,000 mm 0,0 UV-I 0 W/m² 10,5 °C 16,7 °C 30,6 km/h (5 Bft)
30.09.2019 06:14 16,7 °C 67 % 1005,9 hPa 0,0 mm 18,9 km/h (3 Bft) W-SW 238 ° 0 min 0,000 mm 0,0 UV-I 0 W/m² 10,5 °C 16,7 °C 27,4 km/h (4 Bft)
30.09.2019 06:15 16,7 °C 68 % 1005,8 hPa 0,0 mm 26,8 km/h (4 Bft) W-SW 250 ° 0 min 0,000 mm 0,0 UV-I 0 W/m² 10,8 °C 16,7 °C 41,8 km/h (6 Bft)
30.09.2019 06:16 16,7 °C 68 % 1005,9 hPa 0,0 mm 31,6 km/h (5 Bft) NW 304 ° 0 min 0,000 mm 0,0 UV-I 0 W/m² 10,8 °C 16,7 °C 46,7 km/h (6 Bft)
30.09.2019 06:17 16,7 °C 68 % 1005,7 hPa 0,0 mm 31,0 km/h (5 Bft) W 270 ° 0 min 0,000 mm 0,0 UV-I 0 W/m² 10,8 °C 16,7 °C 46,7 km/h (6 Bft)
30.09.2019 06:18 16,7 °C 68 % 1005,8 hPa 0,0 mm 26,8 km/h (4 Bft) W-SW 258 ° 0 min 0,000 mm 0,0 UV-I 0 W/m² 10,8 °C 16,7 °C 38,6 km/h (5 Bft)
30.09.2019 06:19 16,7 °C 68 % 1005,9 hPa 0,0 mm 28,6 km/h (4 Bft) NW 314 ° 0 min 0,000 mm 0,0 UV-I 0 W/m² 10,8 °C 16,7 °C 38,6 km/h (5 Bft)
30.09.2019 06:20 16,7 °C 68 % 1005,8 hPa 0,0 mm 36,9 km/h (5 Bft) W-NW 296 ° 0 min 0,000 mm 0,0 UV-I 0 W/m² 10,8 °C 16,7 °C 49,9 km/h (6 Bft)
30.09.2019 06:21 16,7 °C 68 % 1005,9 hPa 0,0 mm 25,5 km/h (4 Bft) NW 311 ° 0 min 0,000 mm 0,0 UV-I 0 W/m² 10,8 °C 16,7 °C 49,9 km/h (6 Bft)
30.09.2019 06:22 16,7 °C 68 % 1005,9 hPa 0,0 mm 29,9 km/h (5 Bft) W-NW 292 ° 0 min 0,000 mm 0,0 UV-I 0 W/m² 10,8 °C 16,7 °C 43,5 km/h (6 Bft)
30.09.2019 06:23 16,7 °C 68 % 1005,9 hPa 0,0 mm 22,6 km/h (4 Bft) W-NW 289 ° 0 min 0,000 mm 0,0 UV-I 0 W/m² 10,8 °C 16,7 °C 37,0 km/h (5 Bft)
30.09.2019 06:24 16,6 °C 68 % 1005,9 hPa 0,0 mm 20,5 km/h (4 Bft) W 271 ° 0 min 0,000 mm 0,0 UV-I 0 W/m² 10,7 °C 16,6 °C 37,0 km/h (5 Bft)
30.09.2019 06:25 16,6 °C 68 % 1006,0 hPa 0,0 mm 22,3 km/h (4 Bft) NW 308 ° 0 min 0,000 mm 0,0 UV-I 0 W/m² 10,7 °C 16,6 °C 29,0 km/h (5 Bft)
30.09.2019 06:26 16,6 °C 68 % 1005,9 hPa 0,0 mm 18,5 km/h (3 Bft) W-NW 297 ° 0 min 0,000 mm 0,0 UV-I 0 W/m² 10,7 °C 16,6 °C 30,6 km/h (5 Bft)
30.09.2019 06:27 16,5 °C 69 % 1005,8 hPa 0,0 mm 30,4 km/h (5 Bft) SW 229 ° 0 min 0,000 mm 0,0 UV-I 0 W/m² 10,8 °C 16,5 °C 56,3 km/h (7 Bft)
30.09.2019 06:28 16,4 °C 69 % 1005,9 hPa 0,0 mm 28,1 km/h (4 Bft) S-SW 206 ° 0 min 0,000 mm 0,0 UV-I 0 W/m² 10,7 °C 16,4 °C 41,8 km/h (6 Bft)
30.09.2019 06:29 16,5 °C 69 % 1005,8 hPa 0,0 mm 20,9 km/h (4 Bft) W-NW 290 ° 0 min 0,000 mm 0,0 UV-I 0 W/m² 10,8 °C 16,5 °C 37,0 km/h (5 Bft)
30.09.2019 06:30 16,4 °C 69 % 1005,9 hPa 0,0 mm 22,3 km/h (4 Bft) SW 218 ° 0 min 0,000 mm 0,0 UV-I 0 W/m² 10,7 °C 16,4 °C 40,2 km/h (6 Bft)
30.09.2019 06:31 16,4 °C 69 % 1006,0 hPa 0,0 mm 19,4 km/h (3 Bft) W 275 ° 0 min 0,000 mm 0,0 UV-I 0 W/m² 10,7 °C 16,4 °C 27,4 km/h (4 Bft)
30.09.2019 06:32 16,4 °C 69 % 1006,1 hPa 0,0 mm 21,0 km/h (4 Bft) W 277 ° 0 min 0,000 mm 0,0 UV-I 0 W/m² 10,7 °C 16,4 °C 37,0 km/h (5 Bft)
30.09.2019 06:33 16,4 °C 69 % 1006,1 hPa 0,0 mm 34,1 km/h (5 Bft) W 273 ° 0 min 0,000 mm 0,0 UV-I 0 W/m² 10,7 °C 16,4 °C 46,7 km/h (6 Bft)
30.09.2019 06:34 16,4 °C 69 % 1006,0 hPa 0,0 mm 23,3 km/h (4 Bft) W 273 ° 0 min 0,000 mm 0,0 UV-I 0 W/m² 10,7 °C 16,4 °C 41,8 km/h (6 Bft)
30.09.2019 06:35 16,4 °C 69 % 1005,9 hPa 0,0 mm 23,5 km/h (4 Bft) W-NW 301 ° 0 min 0,000 mm 0,0 UV-I 0 W/m² 10,7 °C 16,4 °C 33,8 km/h (5 Bft)
30.09.2019 06:36 16,4 °C 70 % 1005,9 hPa 0,0 mm 27,0 km/h (4 Bft) W-NW 297 ° 0 min 0,000 mm 0,0 UV-I 0 W/m² 10,9 °C 16,4 °C 41,8 km/h (6 Bft)
30.09.2019 06:37 16,4 °C 69 % 1005,9 hPa 0,0 mm 24,9 km/h (4 Bft) W-SW 253 ° 0 min 0,000 mm 0,0 UV-I 0 W/m² 10,7 °C 16,4 °C 32,2 km/h (5 Bft)
30.09.2019 06:38 16,3 °C 69 % 1006,1 hPa 0,0 mm 23,8 km/h (4 Bft) W-NW 282 ° 0 min 0,000 mm 0,0 UV-I 0 W/m² 10,6 °C 16,3 °C 37,0 km/h (5 Bft)
30.09.2019 06:39 16,3 °C 69 % 1006,0 hPa 0,0 mm 22,9 km/h (4 Bft) N 355 ° 0 min 0,000 mm 0,0 UV-I 0 W/m² 10,6 °C 16,3 °C 30,6 km/h (5 Bft)
30.09.2019 06:40 16,4 °C 69 % 1006,0 hPa 0,0 mm 20,8 km/h (4 Bft) W 267 ° 0 min 0,000 mm 0,0 UV-I 0 W/m² 10,7 °C 16,4 °C 32,2 km/h (5 Bft)
30.09.2019 06:41 16,4 °C 70 % 1006,0 hPa 0,0 mm 20,5 km/h (4 Bft) W-NW 286 ° 0 min 0,000 mm 0,0 UV-I 0 W/m² 10,9 °C 16,4 °C 30,6 km/h (5 Bft)
30.09.2019 06:42 16,3 °C 69 % 1006,0 hPa 0,0 mm 33,8 km/h (5 Bft) NW 307 ° 0 min 0,000 mm 0,0 UV-I 0 W/m² 10,6 °C 16,3 °C 45,1 km/h (6 Bft)
30.09.2019 06:43 16,3 °C 69 % 1006,0 hPa 0,0 mm 14,2 km/h (3 Bft) W-SW 239 ° 0 min 0,000 mm 0,0 UV-I 0 W/m² 10,6 °C 16,3 °C 25,7 km/h (4 Bft)
30.09.2019 06:44 16,3 °C 70 % 1006,0 hPa 0,0 mm 17,5 km/h (3 Bft) W-NW 295 ° 0 min 0,000 mm 0,0 UV-I 0 W/m² 10,8 °C 16,3 °C 38,6 km/h (5 Bft)
30.09.2019 06:45 16,3 °C 70 % 1006,2 hPa 0,0 mm 37,7 km/h (5 Bft) W-NW 290 ° 0 min 0,000 mm 0,0 UV-I 0 W/m² 10,8 °C 16,3 °C 54,7 km/h (7 Bft)
30.09.2019 06:46 16,3 °C 70 % 1006,1 hPa 0,0 mm 22,1 km/h (4 Bft) W-NW 288 ° 0 min 0,000 mm 0,0 UV-I 0 W/m² 10,8 °C 16,3 °C 27,4 km/h (4 Bft)
30.09.2019 06:47 16,3 °C 70 % 1006,0 hPa 0,0 mm 20,7 km/h (4 Bft) W-SW 252 ° 0 min 0,000 mm 0,0 UV-I 0 W/m² 10,8 °C 16,3 °C 33,8 km/h (5 Bft)
30.09.2019 06:48 16,3 °C 70 % 1006,1 hPa 0,0 mm 34,3 km/h (5 Bft) W 269 ° 0 min 0,000 mm 0,0 UV-I 0 W/m² 10,8 °C 16,3 °C 49,9 km/h (6 Bft)
30.09.2019 06:49 16,3 °C 70 % 1006,1 hPa 0,0 mm 19,7 km/h (3 Bft) W-NW 298 ° 0 min 0,000 mm 0,0 UV-I 0 W/m² 10,8 °C 16,3 °C 27,4 km/h (4 Bft)
30.09.2019 06:50 16,3 °C 70 % 1006,1 hPa 0,0 mm 23,1 km/h (4 Bft) W 279 ° 0 min 0,000 mm 0,0 UV-I 0 W/m² 10,8 °C 16,3 °C 35,4 km/h (5 Bft)
30.09.2019 06:51 16,3 °C 70 % 1006,2 hPa 0,0 mm 16,6 km/h (3 Bft) W-NW 291 ° 0 min 0,000 mm 0,0 UV-I 0 W/m² 10,8 °C 16,3 °C 22,5 km/h (4 Bft)
30.09.2019 06:52 16,3 °C 70 % 1006,1 hPa 0,0 mm 32,3 km/h (5 Bft) W 266 ° 0 min 0,000 mm 0,0 UV-I 0 W/m² 10,8 °C 16,3 °C 49,9 km/h (6 Bft)
30.09.2019 06:53 16,3 °C 70 % 1006,2 hPa 0,0 mm 22,1 km/h (4 Bft) W-NW 295 ° 0 min 0,000 mm 0,0 UV-I 0 W/m² 10,8 °C 16,3 °C 32,2 km/h (5 Bft)
30.09.2019 06:54 16,3 °C 70 % 1006,2 hPa 0,0 mm 21,6 km/h (4 Bft) W-NW 301 ° 0 min 0,000 mm 0,0 UV-I 0 W/m² 10,8 °C 16,3 °C 37,0 km/h (5 Bft)
30.09.2019 06:55 16,3 °C 70 % 1006,2 hPa 0,0 mm 23,0 km/h (4 Bft) W 280 ° 0 min 0,000 mm 0,0 UV-I 0 W/m² 10,8 °C 16,3 °C 41,8 km/h (6 Bft)
30.09.2019 06:56 16,3 °C 70 % 1006,2 hPa 0,0 mm 28,0 km/h (4 Bft) W-NW 303 ° 0 min 0,000 mm 0,0 UV-I 0 W/m² 10,8 °C 16,3 °C 38,6 km/h (5 Bft)
30.09.2019 06:57 16,3 °C 70 % 1006,3 hPa 0,0 mm 22,6 km/h (4 Bft) W 275 ° 0 min 0,000 mm 0,0 UV-I 0 W/m² 10,8 °C 16,3 °C 43,5 km/h (6 Bft)
30.09.2019 06:58 16,2 °C 71 % 1006,2 hPa 0,0 mm 22,7 km/h (4 Bft) NW 308 ° 0 min 0,000 mm 0,0 UV-I 0 W/m² 10,9 °C 16,2 °C 30,6 km/h (5 Bft)
30.09.2019 06:59 16,2 °C 71 % 1006,3 hPa 0,0 mm 16,0 km/h (3 Bft) W-SW 253 ° 0 min 0,000 mm 0,0 UV-I 0 W/m² 10,9 °C 16,2 °C 27,4 km/h (4 Bft)
30.09.2019 07:00 16,2 °C 71 % 1006,3 hPa 0,0 mm 18,7 km/h (3 Bft) W 259 ° 0 min 0,000 mm 0,0 UV-I 0 W/m² 10,9 °C 16,2 °C 25,7 km/h (4 Bft)
30.09.2019 07:01 16,1 °C 71 % 1006,2 hPa 0,0 mm 14,5 km/h (3 Bft) W 259 ° 0 min 0,102 mm 0,0 UV-I 0 W/m² 10,8 °C 16,1 °C 19,3 km/h (3 Bft)
30.09.2019 07:02 16,1 °C 72 % 1006,3 hPa 0,0 mm 18,4 km/h (3 Bft) W-SW 249 ° 0 min 0,000 mm 0,0 UV-I 0 W/m² 11,0 °C 16,1 °C 37,0 km/h (5 Bft)
30.09.2019 07:03 16,1 °C 72 % 1006,3 hPa 0,0 mm 25,2 km/h (4 Bft) W-SW 247 ° 0 min 0,000 mm 0,0 UV-I 0 W/m² 11,0 °C 16,1 °C 37,0 km/h (5 Bft)
30.09.2019 07:04 16,1 °C 72 % 1006,4 hPa 0,0 mm 23,7 km/h (4 Bft) W-SW 257 ° 0 min 0,000 mm 0,0 UV-I 0 W/m² 11,0 °C 16,1 °C 35,4 km/h (5 Bft)
30.09.2019 07:05 16,0 °C 72 % 1006,4 hPa 0,0 mm 21,5 km/h (4 Bft) W-SW 239 ° 0 min 0,000 mm 0,0 UV-I 0 W/m² 11,0 °C 16,0 °C 27,4 km/h (4 Bft)
30.09.2019 07:06 15,9 °C 72 % 1006,5 hPa 0,0 mm 20,3 km/h (4 Bft) W 259 ° 0 min 0,000 mm 0,0 UV-I 0 W/m² 10,9 °C 15,9 °C 29,0 km/h (5 Bft)
30.09.2019 07:07 15,9 °C 73 % 1006,5 hPa 0,0 mm 23,3 km/h (4 Bft) W 269 ° 0 min 0,000 mm 0,0 UV-I 0 W/m² 11,1 °C 15,9 °C 37,0 km/h (5 Bft)
30.09.2019 07:08 15,9 °C 73 % 1006,5 hPa 0,0 mm 24,1 km/h (4 Bft) W 268 ° 0 min 0,000 mm 0,0 UV-I 0 W/m² 11,1 °C 15,9 °C 33,8 km/h (5 Bft)
30.09.2019 07:09 15,9 °C 73 % 1006,5 hPa 0,0 mm 20,5 km/h (4 Bft) W 273 ° 0 min 0,000 mm 0,0 UV-I 0 W/m² 11,1 °C 15,9 °C 30,6 km/h (5 Bft)
30.09.2019 07:10 15,9 °C 73 % 1006,5 hPa 0,0 mm 22,1 km/h (4 Bft) W-NW 300 ° 0 min 0,000 mm 0,0 UV-I 0 W/m² 11,1 °C 15,9 °C 33,8 km/h (5 Bft)
30.09.2019 07:11 15,9 °C 73 % 1006,5 hPa 0,0 mm 15,8 km/h (3 Bft) W-NW 289 ° 0 min 0,000 mm 0,0 UV-I 0 W/m² 11,1 °C 15,9 °C 17,7 km/h (3 Bft)
30.09.2019 07:12 15,9 °C 73 % 1006,6 hPa 0,0 mm 19,9 km/h (4 Bft) W 269 ° 0 min 0,000 mm 0,0 UV-I 0 W/m² 11,1 °C 15,9 °C 32,2 km/h (5 Bft)
30.09.2019 07:13 15,8 °C 73 % 1006,6 hPa 0,0 mm 23,4 km/h (4 Bft) W 273 ° 0 min 0,000 mm 0,0 UV-I 0 W/m² 11,0 °C 15,8 °C 43,5 km/h (6 Bft)
30.09.2019 07:14 15,8 °C 73 % 1006,5 hPa 0,0 mm 19,0 km/h (3 Bft) W 281 ° 0 min 0,000 mm 0,0 UV-I 5 W/m² 11,0 °C 15,8 °C 24,1 km/h (4 Bft)
30.09.2019 07:15 15,7 °C 74 % 1006,6 hPa 0,0 mm 23,1 km/h (4 Bft) W 259 ° 0 min 0,000 mm 0,0 UV-I 5 W/m² 11,1 °C 15,7 °C 45,1 km/h (6 Bft)
30.09.2019 07:16 15,7 °C 74 % 1006,6 hPa 0,0 mm 22,8 km/h (4 Bft) W-NW 286 ° 0 min 0,000 mm 0,0 UV-I 5 W/m² 11,1 °C 15,7 °C 41,8 km/h (6 Bft)
30.09.2019 07:17 15,7 °C 74 % 1006,6 hPa 0,0 mm 18,3 km/h (3 Bft) W-NW 299 ° 0 min 0,000 mm 0,0 UV-I 5 W/m² 11,1 °C 15,7 °C 38,6 km/h (5 Bft)
30.09.2019 07:18 15,7 °C 74 % 1006,7 hPa 0,0 mm 21,1 km/h (4 Bft) W 279 ° 0 min 0,000 mm 0,0 UV-I 7 W/m² 11,1 °C 15,7 °C 27,4 km/h (4 Bft)
30.09.2019 07:19 15,7 °C 74 % 1006,6 hPa 0,0 mm 20,9 km/h (4 Bft) W 269 ° 0 min 0,000 mm 0,0 UV-I 7 W/m² 11,1 °C 15,7 °C 32,2 km/h (5 Bft)
30.09.2019 07:20 15,6 °C 75 % 1006,7 hPa 0,0 mm 23,9 km/h (4 Bft) W-NW 287 ° 0 min 0,000 mm 0,0 UV-I 7 W/m² 11,2 °C 15,6 °C 30,6 km/h (5 Bft)
30.09.2019 07:21 15,6 °C 75 % 1006,8 hPa 0,0 mm 13,8 km/h (3 Bft) W-NW 289 ° 0 min 0,000 mm 0,0 UV-I 7 W/m² 11,2 °C 15,6 °C 20,9 km/h (4 Bft)
30.09.2019 07:22 15,5 °C 75 % 1006,7 hPa 0,0 mm 22,1 km/h (4 Bft) W-NW 290 ° 0 min 0,000 mm 0,0 UV-I 7 W/m² 11,1 °C 15,5 °C 30,6 km/h (5 Bft)
30.09.2019 07:23 15,5 °C 75 % 1006,8 hPa 0,0 mm 18,6 km/h (3 Bft) W 271 ° 0 min 0,000 mm 0,0 UV-I 7 W/m² 11,1 °C 15,5 °C 30,6 km/h (5 Bft)
30.09.2019 07:24 15,4 °C 75 % 1006,8 hPa 0,0 mm 18,1 km/h (3 Bft) NW 314 ° 0 min 0,000 mm 0,0 UV-I 7 W/m² 11,0 °C 15,4 °C 25,7 km/h (4 Bft)
30.09.2019 07:25 15,4 °C 76 % 1006,8 hPa 0,0 mm 18,8 km/h (3 Bft) W-NW 292 ° 0 min 0,000 mm 0,0 UV-I 7 W/m² 11,2 °C 15,4 °C 30,6 km/h (5 Bft)
30.09.2019 07:26 15,3 °C 76 % 1006,7 hPa 0,0 mm 17,4 km/h (3 Bft) W-NW 296 ° 0 min 0,000 mm 0,0 UV-I 7 W/m² 11,1 °C 15,3 °C 25,7 km/h (4 Bft)
30.09.2019 07:27 15,3 °C 76 % 1006,8 hPa 0,0 mm 26,1 km/h (4 Bft) W-SW 247 ° 0 min 0,000 mm 0,0 UV-I 9 W/m² 11,1 °C 15,3 °C 45,1 km/h (6 Bft)
30.09.2019 07:28 15,2 °C 76 % 1006,9 hPa 0,0 mm 30,6 km/h (5 Bft) W 276 ° 0 min 0,000 mm 0,0 UV-I 9 W/m² 11,0 °C 15,2 °C 43,5 km/h (6 Bft)
30.09.2019 07:29 15,2 °C 77 % 1006,9 hPa 0,0 mm 26,4 km/h (4 Bft) W 269 ° 0 min 0,000 mm 0,0 UV-I 11 W/m² 11,2 °C 15,2 °C 37,0 km/h (5 Bft)
30.09.2019 07:30 15,2 °C 77 % 1006,9 hPa 0,0 mm 31,3 km/h (5 Bft) NW 309 ° 0 min 0,000 mm 0,0 UV-I 11 W/m² 11,2 °C 15,2 °C 45,1 km/h (6 Bft)
30.09.2019 07:31 15,1 °C 77 % 1006,9 hPa 0,0 mm 23,6 km/h (4 Bft) W-NW 290 ° 0 min 0,000 mm 0,0 UV-I 12 W/m² 11,1 °C 15,1 °C 33,8 km/h (5 Bft)
30.09.2019 07:32 15,1 °C 77 % 1007,0 hPa 0,0 mm 24,2 km/h (4 Bft) W-NW 288 ° 0 min 0,000 mm 0,0 UV-I 14 W/m² 11,1 °C 15,1 °C 30,6 km/h (5 Bft)
30.09.2019 07:33 15,1 °C 77 % 1007,1 hPa 0,0 mm 29,2 km/h (5 Bft) NW 304 ° 0 min 0,000 mm 0,0 UV-I 18 W/m² 11,1 °C 15,1 °C 48,3 km/h (6 Bft)
30.09.2019 07:34 15,0 °C 78 % 1007,1 hPa 0,0 mm 21,5 km/h (4 Bft) W-NW 283 ° 0 min 0,000 mm 0,0 UV-I 21 W/m² 11,2 °C 15,0 °C 30,6 km/h (5 Bft)
30.09.2019 07:35 15,0 °C 78 % 1007,0 hPa 0,0 mm 29,5 km/h (5 Bft) W 269 ° 0 min 0,000 mm 0,0 UV-I 25 W/m² 11,2 °C 15,0 °C 49,9 km/h (6 Bft)
30.09.2019 07:36 15,0 °C 78 % 1007,0 hPa 0,0 mm 25,0 km/h (4 Bft) W-SW 257 ° 0 min 0,000 mm 0,0 UV-I 18 W/m² 11,2 °C 15,0 °C 43,5 km/h (6 Bft)
30.09.2019 07:37 14,9 °C 78 % 1007,0 hPa 0,0 mm 22,3 km/h (4 Bft) N-NW 327 ° 0 min 0,000 mm 0,0 UV-I 16 W/m² 11,1 °C 14,9 °C 41,8 km/h (6 Bft)
30.09.2019 07:38 14,9 °C 78 % 1007,0 hPa 0,0 mm 20,6 km/h (4 Bft) W-NW 286 ° 0 min 0,000 mm 0,0 UV-I 14 W/m² 11,1 °C 14,9 °C 32,2 km/h (5 Bft)
30.09.2019 07:39 14,9 °C 78 % 1007,1 hPa 0,0 mm 21,9 km/h (4 Bft) W-SW 256 ° 0 min 0,000 mm 0,0 UV-I 14 W/m² 11,1 °C 14,9 °C 33,8 km/h (5 Bft)
30.09.2019 07:40 14,8 °C 79 % 1007,2 hPa 0,0 mm 18,6 km/h (3 Bft) W 270 ° 0 min 0,000 mm 0,0 UV-I 14 W/m² 11,2 °C 14,8 °C 27,4 km/h (4 Bft)
30.09.2019 07:41 14,8 °C 79 % 1007,1 hPa 0,0 mm 18,2 km/h (3 Bft) W 278 ° 0 min 0,000 mm 0,0 UV-I 14 W/m² 11,2 °C 14,8 °C 30,6 km/h (5 Bft)
30.09.2019 07:42 14,7 °C 79 % 1007,2 hPa 0,0 mm 22,5 km/h (4 Bft) W 269 ° 0 min 0,000 mm 0,0 UV-I 14 W/m² 11,1 °C 14,7 °C 35,4 km/h (5 Bft)
30.09.2019 07:43 14,7 °C 79 % 1007,2 hPa 0,0 mm 19,5 km/h (3 Bft) W 266 ° 0 min 0,000 mm 0,0 UV-I 14 W/m² 11,1 °C 14,7 °C 35,4 km/h (5 Bft)
30.09.2019 07:44 14,6 °C 79 % 1007,2 hPa 0,0 mm 19,9 km/h (4 Bft) W 274 ° 0 min 0,000 mm 0,0 UV-I 14 W/m² 11,0 °C 14,6 °C 32,2 km/h (5 Bft)
30.09.2019 07:45 14,6 °C 80 % 1007,2 hPa 0,0 mm 16,8 km/h (3 Bft) W-NW 292 ° 0 min 0,000 mm 0,0 UV-I 16 W/m² 11,2 °C 14,6 °C 25,7 km/h (4 Bft)
30.09.2019 07:46 14,6 °C 80 % 1007,2 hPa 0,0 mm 19,1 km/h (3 Bft) NW 309 ° 0 min 0,000 mm 0,0 UV-I 16 W/m² 11,2 °C 14,6 °C 24,1 km/h (4 Bft)
30.09.2019 07:47 14,5 °C 80 % 1007,2 hPa 0,0 mm 16,3 km/h (3 Bft) W 266 ° 0 min 0,000 mm 0,0 UV-I 16 W/m² 11,1 °C 14,5 °C 43,5 km/h (6 Bft)
30.09.2019 07:48 14,4 °C 80 % 1007,2 hPa 0,0 mm 32,3 km/h (5 Bft) W-SW 252 ° 0 min 0,000 mm 0,0 UV-I 21 W/m² 11,0 °C 14,4 °C 46,7 km/h (6 Bft)
30.09.2019 07:49 14,4 °C 80 % 1007,3 hPa 0,0 mm 20,9 km/h (4 Bft) NW 312 ° 0 min 0,000 mm 0,0 UV-I 25 W/m² 11,0 °C 14,4 °C 37,0 km/h (5 Bft)
30.09.2019 07:50 14,4 °C 80 % 1007,4 hPa 0,0 mm 20,1 km/h (4 Bft) W 275 ° 0 min 0,000 mm 0,0 UV-I 32 W/m² 11,0 °C 14,4 °C 29,0 km/h (5 Bft)
30.09.2019 07:51 14,4 °C 81 % 1007,5 hPa 0,0 mm 20,7 km/h (4 Bft) W-NW 292 ° 0 min 0,000 mm 0,0 UV-I 42 W/m² 11,2 °C 14,4 °C 37,0 km/h (5 Bft)
30.09.2019 07:52 14,4 °C 81 % 1007,5 hPa 0,0 mm 21,6 km/h (4 Bft) NW 304 ° 0 min 0,000 mm 0,0 UV-I 47 W/m² 11,2 °C 14,4 °C 30,6 km/h (5 Bft)
30.09.2019 07:53 14,4 °C 81 % 1007,5 hPa 0,0 mm 24,6 km/h (4 Bft) W 275 ° 0 min 0,000 mm 0,0 UV-I 44 W/m² 11,2 °C 14,4 °C 35,4 km/h (5 Bft)
30.09.2019 07:54 14,4 °C 81 % 1007,5 hPa 0,0 mm 20,2 km/h (4 Bft) W 275 ° 0 min 0,000 mm 0,0 UV-I 51 W/m² 11,2 °C 14,4 °C 30,6 km/h (5 Bft)
30.09.2019 07:55 14,4 °C 81 % 1007,6 hPa 0,0 mm 19,4 km/h (3 Bft) W 273 ° 0 min 0,000 mm 0,0 UV-I 51 W/m² 11,2 °C 14,4 °C 24,1 km/h (4 Bft)
30.09.2019 07:56 14,4 °C 81 % 1007,6 hPa 0,0 mm 21,4 km/h (4 Bft) W-NW 294 ° 0 min 0,000 mm 0,0 UV-I 56 W/m² 11,2 °C 14,4 °C 37,0 km/h (5 Bft)
30.09.2019 07:57 14,4 °C 81 % 1007,6 hPa 0,0 mm 18,9 km/h (3 Bft) W 272 ° 0 min 0,000 mm 0,0 UV-I 60 W/m² 11,2 °C 14,4 °C 30,6 km/h (5 Bft)
30.09.2019 07:58 14,4 °C 81 % 1007,8 hPa 0,0 mm 18,2 km/h (3 Bft) W 260 ° 0 min 0,000 mm 0,0 UV-I 56 W/m² 11,2 °C 14,4 °C 27,4 km/h (4 Bft)
30.09.2019 07:59 14,4 °C 81 % 1007,5 hPa 0,0 mm 22,1 km/h (4 Bft) W 261 ° 0 min 0,000 mm 0,0 UV-I 63 W/m² 11,2 °C 14,4 °C 33,8 km/h (5 Bft)
30.09.2019 08:00 14,4 °C 81 % 1007,7 hPa 0,0 mm 20,5 km/h (4 Bft) W 264 ° 0 min 0,000 mm 0,0 UV-I 81 W/m² 11,2 °C 14,4 °C 32,2 km/h (5 Bft)
30.09.2019 08:01 14,4 °C 81 % 1007,7 hPa 0,0 mm 21,6 km/h (4 Bft) W-SW 244 ° 0 min 0,076 mm 0,0 UV-I 81 W/m² 11,2 °C 14,4 °C 37,0 km/h (5 Bft)
30.09.2019 08:02 14,4 °C 81 % 1007,6 hPa 0,0 mm 18,8 km/h (3 Bft) W-NW 289 ° 0 min 0,000 mm 0,0 UV-I 74 W/m² 11,2 °C 14,4 °C 27,4 km/h (4 Bft)
30.09.2019 08:03 14,5 °C 81 % 1007,8 hPa 0,0 mm 26,0 km/h (4 Bft) W-NW 288 ° 0 min 0,000 mm 0,0 UV-I 79 W/m² 11,3 °C 14,5 °C 35,4 km/h (5 Bft)
30.09.2019 08:04 14,5 °C 81 % 1007,7 hPa 0,0 mm 25,5 km/h (4 Bft) W 277 ° 0 min 0,000 mm 0,0 UV-I 88 W/m² 11,3 °C 14,5 °C 38,6 km/h (5 Bft)
30.09.2019 08:05 14,6 °C 81 % 1007,8 hPa 0,0 mm 24,5 km/h (4 Bft) W-NW 289 ° 0 min 0,000 mm 0,0 UV-I 74 W/m² 11,4 °C 14,6 °C 35,4 km/h (5 Bft)
30.09.2019 08:06 14,6 °C 81 % 1007,7 hPa 0,2 mm 24,8 km/h (4 Bft) W-NW 292 ° 0 min 0,000 mm 0,0 UV-I 69 W/m² 11,4 °C 14,6 °C 40,2 km/h (6 Bft)
30.09.2019 08:07 14,6 °C 81 % 1007,8 hPa 0,0 mm 28,3 km/h (4 Bft) W 281 ° 0 min 0,000 mm 0,0 UV-I 74 W/m² 11,4 °C 14,6 °C 40,2 km/h (6 Bft)
30.09.2019 08:08 14,6 °C 81 % 1007,7 hPa 0,0 mm 26,2 km/h (4 Bft) W-NW 294 ° 0 min 0,000 mm 0,0 UV-I 86 W/m² 11,4 °C 14,6 °C 38,6 km/h (5 Bft)
30.09.2019 08:09 14,6 °C 81 % 1007,7 hPa 0,0 mm 22,7 km/h (4 Bft) W-NW 286 ° 0 min 0,000 mm 0,0 UV-I 91 W/m² 11,4 °C 14,6 °C 35,4 km/h (5 Bft)
30.09.2019 08:10 14,6 °C 81 % 1007,8 hPa 0,0 mm 27,5 km/h (4 Bft) W-SW 257 ° 0 min 0,000 mm 0,0 UV-I 84 W/m² 11,4 °C 14,6 °C 46,7 km/h (6 Bft)
30.09.2019 08:11 14,6 °C 81 % 1007,9 hPa 0,0 mm 25,0 km/h (4 Bft) W-NW 284 ° 0 min 0,000 mm 0,0 UV-I 67 W/m² 11,4 °C 14,6 °C 33,8 km/h (5 Bft)
30.09.2019 08:12 14,6 °C 81 % 1007,9 hPa 0,0 mm 26,7 km/h (4 Bft) W-SW 250 ° 0 min 0,000 mm 0,0 UV-I 72 W/m² 11,4 °C 14,6 °C 35,4 km/h (5 Bft)
30.09.2019 08:13 14,6 °C 81 % 1007,8 hPa 0,0 mm 28,1 km/h (4 Bft) W-NW 284 ° 0 min 0,000 mm 0,0 UV-I 70 W/m² 11,4 °C 14,6 °C 43,5 km/h (6 Bft)
30.09.2019 08:14 14,6 °C 80 % 1007,8 hPa 0,0 mm 23,4 km/h (4 Bft) NW 304 ° 0 min 0,000 mm 0,0 UV-I 65 W/m² 11,2 °C 14,6 °C 37,0 km/h (5 Bft)
30.09.2019 08:15 14,6 °C 80 % 1007,9 hPa 0,0 mm 20,9 km/h (4 Bft) W-NW 296 ° 0 min 0,000 mm 0,0 UV-I 70 W/m² 11,2 °C 14,6 °C 30,6 km/h (5 Bft)
30.09.2019 08:16 14,6 °C 80 % 1007,8 hPa 0,0 mm 24,8 km/h (4 Bft) W-NW 294 ° 0 min 0,000 mm 0,0 UV-I 69 W/m² 11,2 °C 14,6 °C 35,4 km/h (5 Bft)
30.09.2019 08:17 14,5 °C 81 % 1007,9 hPa 0,0 mm 21,1 km/h (4 Bft) W-NW 290 ° 0 min 0,000 mm 0,0 UV-I 65 W/m² 11,3 °C 14,5 °C 27,4 km/h (4 Bft)
30.09.2019 08:18 14,4 °C 80 % 1007,9 hPa 0,0 mm 19,8 km/h (3 Bft) W-NW 288 ° 0 min 0,000 mm 0,0 UV-I 79 W/m² 11,0 °C 14,4 °C 37,0 km/h (5 Bft)
30.09.2019 08:19 14,4 °C 80 % 1008,0 hPa 0,0 mm 26,0 km/h (4 Bft) W-SW 258 ° 0 min 0,000 mm 0,0 UV-I 72 W/m² 11,0 °C 14,4 °C 46,7 km/h (6 Bft)
30.09.2019 08:20 14,4 °C 80 % 1008,1 hPa 0,0 mm 30,9 km/h (5 Bft) W 267 ° 0 min 0,000 mm 0,0 UV-I 62 W/m² 11,0 °C 14,4 °C 54,7 km/h (7 Bft)
30.09.2019 08:21 14,4 °C 80 % 1008,1 hPa 0,0 mm 26,3 km/h (4 Bft) W-NW 290 ° 0 min 0,000 mm 0,0 UV-I 70 W/m² 11,0 °C 14,4 °C 35,4 km/h (5 Bft)
30.09.2019 08:22 14,4 °C 80 % 1008,0 hPa 0,0 mm 21,1 km/h (4 Bft) W 281 ° 0 min 0,000 mm 0,5 UV-I 69 W/m² 11,0 °C 14,4 °C 30,6 km/h (5 Bft)
30.09.2019 08:23 14,4 °C 80 % 1008,0 hPa 0,0 mm 26,3 km/h (4 Bft) W-NW 287 ° 0 min 0,000 mm 0,5 UV-I 56 W/m² 11,0 °C 14,4 °C 35,4 km/h (5 Bft)
30.09.2019 08:24 14,4 °C 80 % 1007,9 hPa 0,0 mm 31,9 km/h (5 Bft) W 265 ° 0 min 0,000 mm 0,5 UV-I 54 W/m² 11,0 °C 14,4 °C 53,1 km/h (7 Bft)
30.09.2019 08:25 14,3 °C 80 % 1008,0 hPa 0,0 mm 19,1 km/h (3 Bft) W-NW 289 ° 0 min 0,000 mm 0,5 UV-I 65 W/m² 10,9 °C 14,3 °C 29,0 km/h (5 Bft)
30.09.2019 08:26 14,3 °C 81 % 1008,0 hPa 0,0 mm 27,8 km/h (4 Bft) W-NW 292 ° 0 min 0,000 mm 0,5 UV-I 69 W/m² 11,1 °C 14,3 °C 43,5 km/h (6 Bft)
30.09.2019 08:27 14,3 °C 81 % 1008,0 hPa 0,0 mm 23,1 km/h (4 Bft) W 272 ° 0 min 0,000 mm 0,5 UV-I 69 W/m² 11,1 °C 14,3 °C 37,0 km/h (5 Bft)
30.09.2019 08:28 14,3 °C 81 % 1008,0 hPa 0,0 mm 27,4 km/h (4 Bft) W 279 ° 0 min 0,000 mm 0,0 UV-I 51 W/m² 11,1 °C 14,3 °C 40,2 km/h (6 Bft)
30.09.2019 08:29 14,3 °C 81 % 1008,0 hPa 0,0 mm 19,2 km/h (3 Bft) W 275 ° 0 min 0,000 mm 0,0 UV-I 53 W/m² 11,1 °C 14,3 °C 37,0 km/h (5 Bft)
30.09.2019 08:30 14,3 °C 81 % 1008,1 hPa 0,0 mm 27,4 km/h (4 Bft) W-NW 298 ° 0 min 0,000 mm 0,5 UV-I 56 W/m² 11,1 °C 14,3 °C 38,6 km/h (5 Bft)
30.09.2019 08:31 14,3 °C 81 % 1008,1 hPa 0,0 mm 21,7 km/h (4 Bft) NW 316 ° 0 min 0,000 mm 0,6 UV-I 62 W/m² 11,1 °C 14,3 °C 30,6 km/h (5 Bft)
30.09.2019 08:32 14,3 °C 81 % 1008,0 hPa 0,0 mm 23,0 km/h (4 Bft) NW 320 ° 0 min 0,000 mm 0,0 UV-I 53 W/m² 11,1 °C 14,3 °C 43,5 km/h (6 Bft)
30.09.2019 08:33 14,3 °C 81 % 1008,0 hPa 0,0 mm 30,1 km/h (5 Bft) NW 315 ° 0 min 0,000 mm 0,0 UV-I 54 W/m² 11,1 °C 14,3 °C 43,5 km/h (6 Bft)
30.09.2019 08:34 14,3 °C 81 % 1008,1 hPa 0,0 mm 31,4 km/h (5 Bft) NW 309 ° 0 min 0,000 mm 0,6 UV-I 65 W/m² 11,1 °C 14,3 °C 41,8 km/h (6 Bft)
30.09.2019 08:35 14,3 °C 81 % 1008,1 hPa 0,0 mm 25,8 km/h (4 Bft) W-NW 285 ° 0 min 0,000 mm 0,6 UV-I 70 W/m² 11,1 °C 14,3 °C 38,6 km/h (5 Bft)
30.09.2019 08:36 14,3 °C 81 % 1008,1 hPa 0,0 mm 29,9 km/h (5 Bft) W 275 ° 0 min 0,000 mm 0,6 UV-I 74 W/m² 11,1 °C 14,3 °C 45,1 km/h (6 Bft)
30.09.2019 08:37 14,3 °C 81 % 1008,1 hPa 0,0 mm 30,0 km/h (5 Bft) NW 319 ° 0 min 0,000 mm 0,6 UV-I 70 W/m² 11,1 °C 14,3 °C 38,6 km/h (5 Bft)
30.09.2019 08:38 14,3 °C 81 % 1008,2 hPa 0,0 mm 21,6 km/h (4 Bft) W-NW 288 ° 0 min 0,000 mm 0,6 UV-I 62 W/m² 11,1 °C 14,3 °C 29,0 km/h (5 Bft)
30.09.2019 08:39 14,3 °C 81 % 1008,1 hPa 0,0 mm 24,0 km/h (4 Bft) W-NW 302 ° 0 min 0,000 mm 0,6 UV-I 58 W/m² 11,1 °C 14,3 °C 41,8 km/h (6 Bft)
30.09.2019 08:40 14,3 °C 81 % 1008,2 hPa 0,0 mm 21,7 km/h (4 Bft) W-SW 250 ° 0 min 0,000 mm 0,0 UV-I 47 W/m² 11,1 °C 14,3 °C 27,4 km/h (4 Bft)
30.09.2019 08:41 14,3 °C 81 % 1008,2 hPa 0,0 mm 20,4 km/h (4 Bft) W 278 ° 0 min 0,000 mm 0,0 UV-I 56 W/m² 11,1 °C 14,3 °C 30,6 km/h (5 Bft)
30.09.2019 08:42 14,3 °C 81 % 1008,2 hPa 0,0 mm 26,6 km/h (4 Bft) W-NW 288 ° 0 min 0,000 mm 0,6 UV-I 62 W/m² 11,1 °C 14,3 °C 35,4 km/h (5 Bft)
30.09.2019 08:43 14,3 °C 81 % 1008,2 hPa 0,0 mm 19,1 km/h (3 Bft) W 261 ° 0 min 0,000 mm 0,6 UV-I 60 W/m² 11,1 °C 14,3 °C 24,1 km/h (4 Bft)
30.09.2019 08:44 14,3 °C 81 % 1008,3 hPa 0,0 mm 25,5 km/h (4 Bft) W 265 ° 0 min 0,000 mm 0,7 UV-I 62 W/m² 11,1 °C 14,3 °C 37,0 km/h (5 Bft)
30.09.2019 08:45 14,3 °C 81 % 1008,1 hPa 0,0 mm 16,7 km/h (3 Bft) W-NW 292 ° 0 min 0,000 mm 0,7 UV-I 63 W/m² 11,1 °C 14,3 °C 17,7 km/h (3 Bft)
30.09.2019 08:46 14,3 °C 81 % 1008,1 hPa 0,0 mm 17,3 km/h (3 Bft) W 279 ° 0 min 0,000 mm 0,7 UV-I 77 W/m² 11,1 °C 14,3 °C 30,6 km/h (5 Bft)
30.09.2019 08:47 14,3 °C 81 % 1008,3 hPa 0,0 mm 27,6 km/h (4 Bft) W-NW 300 ° 0 min 0,000 mm 0,7 UV-I 84 W/m² 11,1 °C 14,3 °C 40,2 km/h (6 Bft)
30.09.2019 08:48 14,3 °C 81 % 1008,1 hPa 0,0 mm 20,7 km/h (4 Bft) W-SW 250 ° 0 min 0,000 mm 0,7 UV-I 76 W/m² 11,1 °C 14,3 °C 29,0 km/h (5 Bft)
30.09.2019 08:49 14,3 °C 81 % 1008,2 hPa 0,0 mm 21,1 km/h (4 Bft) W-NW 286 ° 0 min 0,000 mm 0,7 UV-I 76 W/m² 11,1 °C 14,3 °C 32,2 km/h (5 Bft)
30.09.2019 08:50 14,3 °C 80 % 1008,3 hPa 0,0 mm 35,9 km/h (5 Bft) W 261 ° 0 min 0,000 mm 0,7 UV-I 76 W/m² 10,9 °C 14,3 °C 48,3 km/h (6 Bft)
30.09.2019 08:51 14,4 °C 80 % 1008,4 hPa 0,0 mm 22,9 km/h (4 Bft) W-SW 252 ° 0 min 0,000 mm 0,7 UV-I 86 W/m² 11,0 °C 14,4 °C 32,2 km/h (5 Bft)
30.09.2019 08:52 14,4 °C 80 % 1008,5 hPa 0,0 mm 30,9 km/h (5 Bft) W-SW 254 ° 0 min 0,000 mm 0,8 UV-I 95 W/m² 11,0 °C 14,4 °C 41,8 km/h (6 Bft)
30.09.2019 08:53 14,4 °C 80 % 1008,2 hPa 0,0 mm 26,3 km/h (4 Bft) W 275 ° 0 min 0,000 mm 0,8 UV-I 77 W/m² 11,0 °C 14,4 °C 38,6 km/h (5 Bft)
30.09.2019 08:54 14,4 °C 80 % 1008,5 hPa 0,0 mm 25,7 km/h (4 Bft) W-NW 288 ° 0 min 0,000 mm 0,8 UV-I 77 W/m² 11,0 °C 14,4 °C 43,5 km/h (6 Bft)
30.09.2019 08:55 14,4 °C 80 % 1008,3 hPa 0,0 mm 21,2 km/h (4 Bft) W 270 ° 0 min 0,000 mm 0,8 UV-I 58 W/m² 11,0 °C 14,4 °C 25,7 km/h (4 Bft)
30.09.2019 08:56 14,4 °C 80 % 1008,3 hPa 0,0 mm 13,3 km/h (3 Bft) W 280 ° 0 min 0,000 mm 0,8 UV-I 63 W/m² 11,0 °C 14,4 °C 17,7 km/h (3 Bft)
30.09.2019 08:57 14,4 °C 80 % 1008,4 hPa 0,0 mm 30,3 km/h (5 Bft) NW 313 ° 0 min 0,000 mm 0,8 UV-I 72 W/m² 11,0 °C 14,4 °C 57,9 km/h (7 Bft)
30.09.2019 08:58 14,4 °C 80 % 1008,4 hPa 0,0 mm 29,2 km/h (5 Bft) W 261 ° 0 min 0,000 mm 0,8 UV-I 63 W/m² 11,0 °C 14,4 °C 38,6 km/h (5 Bft)
30.09.2019 08:59 14,4 °C 80 % 1008,4 hPa 0,0 mm 27,6 km/h (4 Bft) W 266 ° 0 min 0,000 mm 0,8 UV-I 72 W/m² 11,0 °C 14,4 °C 38,6 km/h (5 Bft)
30.09.2019 09:00 14,4 °C 80 % 1008,4 hPa 0,0 mm 21,5 km/h (4 Bft) NW 325 ° 0 min 0,000 mm 0,8 UV-I 83 W/m² 11,0 °C 14,4 °C 32,2 km/h (5 Bft)
30.09.2019 09:01 14,4 °C 80 % 1008,4 hPa 0,0 mm 21,6 km/h (4 Bft) SW 234 ° 0 min 0,102 mm 0,9 UV-I 90 W/m² 11,0 °C 14,4 °C 30,6 km/h (5 Bft)
30.09.2019 09:02 14,4 °C 80 % 1008,4 hPa 0,0 mm 23,2 km/h (4 Bft) W 275 ° 0 min 0,000 mm 0,8 UV-I 79 W/m² 11,0 °C 14,4 °C 37,0 km/h (5 Bft)
30.09.2019 09:03 14,4 °C 80 % 1008,4 hPa 0,0 mm 23,0 km/h (4 Bft) W-SW 252 ° 0 min 0,000 mm 0,8 UV-I 63 W/m² 11,0 °C 14,4 °C 35,4 km/h (5 Bft)
30.09.2019 09:04 14,4 °C 80 % 1008,5 hPa 0,0 mm 22,0 km/h (4 Bft) W 263 ° 0 min 0,000 mm 0,8 UV-I 63 W/m² 11,0 °C 14,4 °C 27,4 km/h (4 Bft)
30.09.2019 09:05 14,4 °C 80 % 1008,5 hPa 0,0 mm 26,9 km/h (4 Bft) W-SW 250 ° 0 min 0,000 mm 0,9 UV-I 65 W/m² 11,0 °C 14,4 °C 40,2 km/h (6 Bft)
30.09.2019 09:06 14,4 °C 80 % 1008,8 hPa 0,0 mm 32,2 km/h (5 Bft) W-SW 246 ° 0 min 0,000 mm 0,0 UV-I 54 W/m² 11,0 °C 14,4 °C 40,2 km/h (6 Bft)
30.09.2019 09:07 14,4 °C 79 % 1008,5 hPa 0,0 mm 24,1 km/h (4 Bft) W 281 ° 0 min 0,000 mm 0,9 UV-I 56 W/m² 10,8 °C 14,4 °C 33,8 km/h (5 Bft)
30.09.2019 09:08 14,4 °C 80 % 1008,5 hPa 0,0 mm 24,7 km/h (4 Bft) W 279 ° 0 min 0,000 mm 0,0 UV-I 54 W/m² 11,0 °C 14,4 °C 46,7 km/h (6 Bft)
30.09.2019 09:09 14,4 °C 80 % 1008,6 hPa 0,0 mm 22,7 km/h (4 Bft) W-NW 284 ° 0 min 0,000 mm 0,9 UV-I 58 W/m² 11,0 °C 14,4 °C 43,5 km/h (6 Bft)
30.09.2019 09:10 14,4 °C 80 % 1008,7 hPa 0,0 mm 28,2 km/h (4 Bft) W-NW 284 ° 0 min 0,000 mm 0,9 UV-I 69 W/m² 11,0 °C 14,4 °C 46,7 km/h (6 Bft)
30.09.2019 09:11 14,4 °C 80 % 1008,6 hPa 0,0 mm 20,6 km/h (4 Bft) NW 307 ° 0 min 0,000 mm 0,9 UV-I 72 W/m² 11,0 °C 14,4 °C 38,6 km/h (5 Bft)
30.09.2019 09:12 14,4 °C 80 % 1008,7 hPa 0,0 mm 24,5 km/h (4 Bft) W-SW 254 ° 0 min 0,000 mm 0,9 UV-I 83 W/m² 11,0 °C 14,4 °C 41,8 km/h (6 Bft)
30.09.2019 09:13 14,4 °C 80 % 1008,7 hPa 0,0 mm 12,5 km/h (3 Bft) W-SW 249 ° 0 min 0,000 mm 0,9 UV-I 91 W/m² 11,0 °C 14,4 °C 17,7 km/h (3 Bft)
30.09.2019 09:14 14,4 °C 80 % 1008,5 hPa 0,0 mm 16,6 km/h (3 Bft) W 281 ° 0 min 0,000 mm 0,9 UV-I 90 W/m² 11,0 °C 14,4 °C 33,8 km/h (5 Bft)
30.09.2019 09:15 14,4 °C 80 % 1008,7 hPa 0,0 mm 21,6 km/h (4 Bft) W-NW 289 ° 0 min 0,000 mm 0,9 UV-I 100 W/m² 11,0 °C 14,4 °C 33,8 km/h (5 Bft)
30.09.2019 09:16 14,6 °C 80 % 1008,7 hPa 0,0 mm 26,9 km/h (4 Bft) W-SW 240 ° 0 min 0,000 mm 1,0 UV-I 105 W/m² 11,2 °C 14,6 °C 57,9 km/h (7 Bft)
30.09.2019 09:17 14,6 °C 80 % 1008,8 hPa 0,0 mm 26,3 km/h (4 Bft) W-SW 251 ° 0 min 0,000 mm 1,0 UV-I 91 W/m² 11,2 °C 14,6 °C 35,4 km/h (5 Bft)
30.09.2019 09:18 14,6 °C 79 % 1008,7 hPa 0,0 mm 23,0 km/h (4 Bft) W-NW 287 ° 0 min 0,000 mm 1,0 UV-I 88 W/m² 11,0 °C 14,6 °C 29,0 km/h (5 Bft)
30.09.2019 09:19 14,6 °C 79 % 1008,8 hPa 0,0 mm 28,2 km/h (4 Bft) W-SW 257 ° 0 min 0,000 mm 1,0 UV-I 105 W/m² 11,0 °C 14,6 °C 35,4 km/h (5 Bft)
30.09.2019 09:20 14,6 °C 79 % 1008,8 hPa 0,0 mm 21,1 km/h (4 Bft) W-NW 296 ° 0 min 0,000 mm 1,0 UV-I 109 W/m² 11,0 °C 14,6 °C 33,8 km/h (5 Bft)
30.09.2019 09:21 14,7 °C 79 % 1008,5 hPa 0,0 mm 25,6 km/h (4 Bft) W 261 ° 0 min 0,000 mm 1,0 UV-I 90 W/m² 11,1 °C 14,7 °C 41,8 km/h (6 Bft)
30.09.2019 09:22 14,7 °C 79 % 1008,9 hPa 0,0 mm 23,6 km/h (4 Bft) W-NW 288 ° 0 min 0,000 mm 1,0 UV-I 95 W/m² 11,1 °C 14,7 °C 41,8 km/h (6 Bft)
30.09.2019 09:23 14,7 °C 79 % 1008,8 hPa 0,0 mm 30,4 km/h (5 Bft) W 262 ° 0 min 0,000 mm 1,0 UV-I 109 W/m² 11,1 °C 14,7 °C 40,2 km/h (6 Bft)
30.09.2019 09:24 14,7 °C 79 % 1008,8 hPa 0,0 mm 16,0 km/h (3 Bft) W 262 ° 0 min 0,000 mm 1,0 UV-I 118 W/m² 11,1 °C 14,7 °C 22,5 km/h (4 Bft)
30.09.2019 09:25 14,7 °C 79 % 1008,8 hPa 0,0 mm 19,8 km/h (3 Bft) W-NW 284 ° 0 min 0,000 mm 1,0 UV-I 104 W/m² 11,1 °C 14,7 °C 29,0 km/h (5 Bft)
30.09.2019 09:26 14,7 °C 79 % 1008,8 hPa 0,0 mm 21,3 km/h (4 Bft) W-SW 246 ° 0 min 0,000 mm 1,1 UV-I 111 W/m² 11,1 °C 14,7 °C 41,8 km/h (6 Bft)
30.09.2019 09:27 14,7 °C 79 % 1008,7 hPa 0,0 mm 33,8 km/h (5 Bft) W-NW 297 ° 0 min 0,000 mm 1,1 UV-I 118 W/m² 11,1 °C 14,7 °C 45,1 km/h (6 Bft)
30.09.2019 09:28 14,8 °C 78 % 1008,8 hPa 0,0 mm 22,0 km/h (4 Bft) W 280 ° 0 min 0,000 mm 1,1 UV-I 111 W/m² 11,0 °C 14,8 °C 32,2 km/h (5 Bft)
30.09.2019 09:29 14,8 °C 78 % 1008,8 hPa 0,0 mm 16,9 km/h (3 Bft) W-SW 243 ° 0 min 0,000 mm 1,1 UV-I 113 W/m² 11,0 °C 14,8 °C 24,1 km/h (4 Bft)
30.09.2019 09:30 14,8 °C 79 % 1008,9 hPa 0,0 mm 23,3 km/h (4 Bft) W 275 ° 0 min 0,000 mm 1,1 UV-I 97 W/m² 11,2 °C 14,8 °C 38,6 km/h (5 Bft)
30.09.2019 09:31 14,8 °C 78 % 1008,9 hPa 0,0 mm 24,9 km/h (4 Bft) SW 230 ° 0 min 0,000 mm 1,1 UV-I 100 W/m² 11,0 °C 14,8 °C 41,8 km/h (6 Bft)
30.09.2019 09:32 14,8 °C 78 % 1009,0 hPa 0,0 mm 20,4 km/h (4 Bft) W 273 ° 0 min 0,000 mm 1,1 UV-I 109 W/m² 11,0 °C 14,8 °C 29,0 km/h (5 Bft)
30.09.2019 09:33 14,8 °C 78 % 1008,9 hPa 0,0 mm 29,7 km/h (5 Bft) W-SW 257 ° 0 min 0,000 mm 1,2 UV-I 137 W/m² 11,0 °C 14,8 °C 45,1 km/h (6 Bft)
30.09.2019 09:34 14,8 °C 78 % 1008,9 hPa 0,0 mm 26,8 km/h (4 Bft) W 262 ° 0 min 0,000 mm 1,2 UV-I 149 W/m² 11,0 °C 14,8 °C 43,5 km/h (6 Bft)
30.09.2019 09:35 14,8 °C 78 % 1008,9 hPa 0,0 mm 21,1 km/h (4 Bft) W 273 ° 0 min 0,000 mm 1,2 UV-I 149 W/m² 11,0 °C 14,8 °C 33,8 km/h (5 Bft)
30.09.2019 09:36 14,9 °C 78 % 1008,9 hPa 0,0 mm 28,9 km/h (5 Bft) NW 324 ° 0 min 0,000 mm 1,2 UV-I 183 W/m² 11,1 °C 14,9 °C 40,2 km/h (6 Bft)
30.09.2019 09:37 14,9 °C 78 % 1008,9 hPa 0,0 mm 25,1 km/h (4 Bft) W-NW 294 ° 0 min 0,000 mm 1,3 UV-I 211 W/m² 11,1 °C 14,9 °C 38,6 km/h (5 Bft)
30.09.2019 09:38 14,9 °C 77 % 1008,9 hPa 0,0 mm 26,6 km/h (4 Bft) SW 221 ° 0 min 0,000 mm 1,3 UV-I 204 W/m² 10,9 °C 14,9 °C 48,3 km/h (6 Bft)
30.09.2019 09:39 14,9 °C 78 % 1008,9 hPa 0,0 mm 25,3 km/h (4 Bft) W-SW 250 ° 0 min 0,000 mm 1,7 UV-I 204 W/m² 11,1 °C 14,9 °C 38,6 km/h (5 Bft)
30.09.2019 09:40 15,0 °C 77 % 1008,8 hPa 0,0 mm 29,2 km/h (5 Bft) W-SW 244 ° 0 min 0,000 mm 1,3 UV-I 204 W/m² 11,0 °C 15,0 °C 37,0 km/h (5 Bft)
30.09.2019 09:41 15,0 °C 77 % 1008,9 hPa 0,0 mm 41,4 km/h (6 Bft) W-NW 295 ° 0 min 0,000 mm 1,3 UV-I 204 W/m² 11,0 °C 15,0 °C 59,5 km/h (7 Bft)
30.09.2019 09:42 15,1 °C 77 % 1009,0 hPa 0,0 mm 27,6 km/h (4 Bft) W-NW 295 ° 0 min 0,000 mm 1,2 UV-I 204 W/m² 11,1 °C 15,1 °C 40,2 km/h (6 Bft)
30.09.2019 09:43 15,1 °C 77 % 1009,0 hPa 0,0 mm 21,1 km/h (4 Bft) W 274 ° 0 min 0,000 mm 1,2 UV-I 278 W/m² 11,1 °C 15,1 °C 25,7 km/h (4 Bft)
30.09.2019 09:44 15,1 °C 77 % 1009,0 hPa 0,0 mm 20,0 km/h (4 Bft) W-NW 290 ° 0 min 0,000 mm 1,3 UV-I 178 W/m² 11,1 °C 15,1 °C 32,2 km/h (5 Bft)
30.09.2019 09:45 15,1 °C 77 % 1009,0 hPa 0,0 mm 23,0 km/h (4 Bft) W-NW 282 ° 0 min 0,000 mm 1,2 UV-I 130 W/m² 11,1 °C 15,1 °C 29,0 km/h (5 Bft)
30.09.2019 09:46 15,0 °C 77 % 1009,1 hPa 0,0 mm 18,8 km/h (3 Bft) W-SW 246 ° 0 min 0,000 mm 1,3 UV-I 130 W/m² 11,0 °C 15,0 °C 30,6 km/h (5 Bft)
30.09.2019 09:47 14,9 °C 77 % 1009,0 hPa 0,0 mm 17,3 km/h (3 Bft) SW 231 ° 0 min 0,000 mm 1,3 UV-I 91 W/m² 10,9 °C 14,9 °C 22,5 km/h (4 Bft)
30.09.2019 09:48 14,9 °C 77 % 1009,0 hPa 0,0 mm 23,9 km/h (4 Bft) W-NW 300 ° 0 min 0,000 mm 1,4 UV-I 121 W/m² 10,9 °C 14,9 °C 46,7 km/h (6 Bft)
30.09.2019 09:49 14,8 °C 77 % 1009,1 hPa 0,0 mm 26,8 km/h (4 Bft) W 269 ° 0 min 0,000 mm 1,5 UV-I 121 W/m² 10,8 °C 14,8 °C 37,0 km/h (5 Bft)
30.09.2019 09:50 14,8 °C 77 % 1009,0 hPa 0,0 mm 22,1 km/h (4 Bft) N-NW 328 ° 0 min 0,000 mm 1,4 UV-I 121 W/m² 10,8 °C 14,8 °C 32,2 km/h (5 Bft)
30.09.2019 09:51 14,8 °C 77 % 1009,1 hPa 0,0 mm 25,1 km/h (4 Bft) W 280 ° 0 min 0,000 mm 1,3 UV-I 104 W/m² 10,8 °C 14,8 °C 35,4 km/h (5 Bft)
30.09.2019 09:52 14,8 °C 77 % 1009,1 hPa 0,0 mm 22,9 km/h (4 Bft) W 267 ° 0 min 0,000 mm 1,3 UV-I 104 W/m² 10,8 °C 14,8 °C 32,2 km/h (5 Bft)
30.09.2019 09:53 14,8 °C 77 % 1009,3 hPa 0,0 mm 29,2 km/h (5 Bft) W 266 ° 0 min 0,000 mm 1,4 UV-I 162 W/m² 10,8 °C 14,8 °C 43,5 km/h (6 Bft)
30.09.2019 09:54 14,8 °C 78 % 1009,1 hPa 0,0 mm 23,9 km/h (4 Bft) W 268 ° 0 min 0,000 mm 1,5 UV-I 167 W/m² 11,0 °C 14,8 °C 38,6 km/h (5 Bft)
30.09.2019 09:55 14,7 °C 77 % 1009,2 hPa 0,0 mm 27,5 km/h (4 Bft) W-NW 297 ° 0 min 0,000 mm 1,3 UV-I 146 W/m² 10,7 °C 14,7 °C 49,9 km/h (6 Bft)
30.09.2019 09:56 14,7 °C 78 % 1009,2 hPa 0,0 mm 22,7 km/h (4 Bft) W-NW 291 ° 0 min 0,000 mm 1,4 UV-I 188 W/m² 10,9 °C 14,7 °C 33,8 km/h (5 Bft)
30.09.2019 09:57 14,7 °C 78 % 1009,3 hPa 0,0 mm 24,3 km/h (4 Bft) W-NW 292 ° 0 min 0,000 mm 1,4 UV-I 188 W/m² 10,9 °C 14,7 °C 35,4 km/h (5 Bft)
30.09.2019 09:58 14,8 °C 78 % 1009,3 hPa 0,0 mm 20,0 km/h (4 Bft) NW 317 ° 0 min 0,000 mm 1,5 UV-I 225 W/m² 11,0 °C 14,8 °C 25,7 km/h (4 Bft)
30.09.2019 09:59 14,8 °C 78 % 1009,3 hPa 0,0 mm 22,9 km/h (4 Bft) W-SW 257 ° 0 min 0,000 mm 1,2 UV-I 209 W/m² 11,0 °C 14,8 °C 32,2 km/h (5 Bft)
30.09.2019 10:00 14,8 °C 78 % 1009,3 hPa 0,0 mm 21,9 km/h (4 Bft) W 280 ° 0 min 0,000 mm 1,1 UV-I 149 W/m² 11,0 °C 14,8 °C 32,2 km/h (5 Bft)
30.09.2019 10:01 14,8 °C 77 % 1009,3 hPa 0,0 mm 25,5 km/h (4 Bft) W 269 ° 0 min 0,127 mm 1,2 UV-I 155 W/m² 10,8 °C 14,8 °C 40,2 km/h (6 Bft)
30.09.2019 10:02 14,8 °C 77 % 1009,3 hPa 0,0 mm 21,8 km/h (4 Bft) W-SW 241 ° 0 min 0,000 mm 1,3 UV-I 144 W/m² 10,8 °C 14,8 °C 32,2 km/h (5 Bft)
30.09.2019 10:03 14,8 °C 78 % 1009,3 hPa 0,0 mm 23,2 km/h (4 Bft) NW 306 ° 0 min 0,000 mm 1,2 UV-I 125 W/m² 11,0 °C 14,8 °C 32,2 km/h (5 Bft)
30.09.2019 10:04 14,8 °C 78 % 1009,4 hPa 0,0 mm 24,0 km/h (4 Bft) W 274 ° 0 min 0,000 mm 1,3 UV-I 167 W/m² 11,0 °C 14,8 °C 35,4 km/h (5 Bft)
30.09.2019 10:05 14,8 °C 78 % 1009,7 hPa 0,0 mm 26,1 km/h (4 Bft) W-NW 293 ° 0 min 0,000 mm 1,4 UV-I 190 W/m² 11,0 °C 14,8 °C 51,5 km/h (7 Bft)
30.09.2019 10:06 14,8 °C 78 % 1009,4 hPa 0,0 mm 14,7 km/h (3 Bft) W-NW 294 ° 0 min 0,000 mm 1,4 UV-I 202 W/m² 11,0 °C 14,8 °C 24,1 km/h (4 Bft)
30.09.2019 10:07 14,7 °C 78 % 1009,5 hPa 0,0 mm 29,5 km/h (5 Bft) W 274 ° 0 min 0,000 mm 1,3 UV-I 223 W/m² 10,9 °C 14,7 °C 41,8 km/h (6 Bft)
30.09.2019 10:08 14,7 °C 78 % 1009,4 hPa 0,0 mm 21,9 km/h (4 Bft) W 281 ° 0 min 0,000 mm 2,0 UV-I 211 W/m² 10,9 °C 14,7 °C 30,6 km/h (5 Bft)
30.09.2019 10:09 14,8 °C 78 % 1009,5 hPa 0,0 mm 19,0 km/h (3 Bft) W-NW 296 ° 0 min 0,000 mm 1,8 UV-I 211 W/m² 11,0 °C 14,8 °C 32,2 km/h (5 Bft)
30.09.2019 10:10 14,8 °C 78 % 1009,6 hPa 0,0 mm 16,2 km/h (3 Bft) W-SW 254 ° 0 min 0,000 mm 2,0 UV-I 410 W/m² 11,0 °C 14,8 °C 20,9 km/h (4 Bft)
30.09.2019 10:11 14,9 °C 78 % 1009,6 hPa 0,0 mm 11,3 km/h (2 Bft) W-NW 287 ° 0 min 0,000 mm 1,3 UV-I 410 W/m² 11,1 °C 14,9 °C 17,7 km/h (3 Bft)
30.09.2019 10:12 14,9 °C 79 % 1009,5 hPa 0,0 mm 18,0 km/h (3 Bft) W 281 ° 0 min 0,000 mm 1,3 UV-I 141 W/m² 11,3 °C 14,9 °C 30,6 km/h (5 Bft)
30.09.2019 10:13 14,9 °C 78 % 1009,5 hPa 0,0 mm 17,8 km/h (3 Bft) W-NW 295 ° 0 min 0,000 mm 1,4 UV-I 200 W/m² 11,1 °C 14,9 °C 29,0 km/h (5 Bft)
30.09.2019 10:14 14,9 °C 78 % 1009,5 hPa 0,0 mm 18,5 km/h (3 Bft) W-SW 239 ° 0 min 0,000 mm 1,3 UV-I 272 W/m² 11,1 °C 14,9 °C 22,5 km/h (4 Bft)
30.09.2019 10:15 14,9 °C 78 % 1009,7 hPa 0,0 mm 18,0 km/h (3 Bft) W 281 ° 0 min 0,000 mm 1,0 UV-I 130 W/m² 11,1 °C 14,9 °C 22,5 km/h (4 Bft)
30.09.2019 10:16 14,9 °C 78 % 1009,6 hPa 0,0 mm 21,5 km/h (4 Bft) W-NW 298 ° 0 min 0,000 mm 1,2 UV-I 139 W/m² 11,1 °C 14,9 °C 27,4 km/h (4 Bft)
30.09.2019 10:17 14,8 °C 78 % 1009,6 hPa 0,0 mm 22,3 km/h (4 Bft) W 260 ° 0 min 0,000 mm 1,4 UV-I 227 W/m² 11,0 °C 14,8 °C 38,6 km/h (5 Bft)
30.09.2019 10:18 14,8 °C 78 % 1009,8 hPa 0,0 mm 12,5 km/h (3 Bft) W-NW 284 ° 0 min 0,000 mm 1,4 UV-I 237 W/m² 11,0 °C 14,8 °C 16,1 km/h (3 Bft)
30.09.2019 10:19 14,8 °C 78 % 1009,8 hPa 0,0 mm 18,2 km/h (3 Bft) W-NW 294 ° 0 min 0,000 mm 1,3 UV-I 214 W/m² 11,0 °C 14,8 °C 33,8 km/h (5 Bft)
30.09.2019 10:20 14,8 °C 79 % 1009,9 hPa 0,0 mm 18,1 km/h (3 Bft) W 271 ° 0 min 0,000 mm 1,2 UV-I 127 W/m² 11,2 °C 14,8 °C 27,4 km/h (4 Bft)
30.09.2019 10:21 14,8 °C 78 % 1009,9 hPa 0,0 mm 18,8 km/h (3 Bft) W 270 ° 0 min 0,000 mm 0,9 UV-I 107 W/m² 11,0 °C 14,8 °C 27,4 km/h (4 Bft)
30.09.2019 10:22 14,8 °C 78 % 1009,9 hPa 0,0 mm 16,3 km/h (3 Bft) W-SW 244 ° 0 min 0,000 mm 0,8 UV-I 100 W/m² 11,0 °C 14,8 °C 22,5 km/h (4 Bft)
30.09.2019 10:23 14,8 °C 78 % 1010,0 hPa 0,0 mm 24,3 km/h (4 Bft) W-NW 284 ° 0 min 0,000 mm 0,7 UV-I 90 W/m² 11,0 °C 14,8 °C 33,8 km/h (5 Bft)
30.09.2019 10:24 14,7 °C 78 % 1010,0 hPa 0,0 mm 20,5 km/h (4 Bft) W 274 ° 0 min 0,000 mm 0,7 UV-I 79 W/m² 10,9 °C 14,7 °C 25,7 km/h (4 Bft)
30.09.2019 10:25 14,6 °C 78 % 1010,0 hPa 0,0 mm 13,1 km/h (3 Bft) NW 322 ° 0 min 0,000 mm 0,8 UV-I 77 W/m² 10,8 °C 14,6 °C 17,7 km/h (3 Bft)
30.09.2019 10:26 14,6 °C 79 % 1009,9 hPa 0,0 mm 14,9 km/h (3 Bft) W 274 ° 0 min 0,000 mm 0,8 UV-I 81 W/m² 11,0 °C 14,6 °C 24,1 km/h (4 Bft)
30.09.2019 10:27 14,5 °C 79 % 1010,0 hPa 0,0 mm 13,7 km/h (3 Bft) W 277 ° 0 min 0,000 mm 0,7 UV-I 72 W/m² 10,9 °C 14,5 °C 22,5 km/h (4 Bft)
30.09.2019 10:28 14,4 °C 79 % 1010,1 hPa 0,0 mm 25,7 km/h (4 Bft) W-SW 248 ° 0 min 0,000 mm 0,7 UV-I 65 W/m² 10,8 °C 14,4 °C 33,8 km/h (5 Bft)
30.09.2019 10:29 14,4 °C 79 % 1010,2 hPa 0,0 mm 20,0 km/h (4 Bft) W-SW 258 ° 0 min 0,000 mm 0,7 UV-I 70 W/m² 10,8 °C 14,4 °C 27,4 km/h (4 Bft)
30.09.2019 10:30 14,4 °C 79 % 1010,1 hPa 0,0 mm 11,3 km/h (2 Bft) W-SW 242 ° 0 min 0,000 mm 0,9 UV-I 67 W/m² 10,8 °C 14,4 °C 16,1 km/h (3 Bft)
30.09.2019 10:31 14,3 °C 79 % 1010,1 hPa 0,0 mm 17,7 km/h (3 Bft) W 271 ° 0 min 0,000 mm 1,0 UV-I 69 W/m² 10,7 °C 14,3 °C 32,2 km/h (5 Bft)
30.09.2019 10:32 14,3 °C 79 % 1010,3 hPa 0,0 mm 19,6 km/h (3 Bft) W-SW 247 ° 0 min 0,000 mm 1,0 UV-I 90 W/m² 10,7 °C 14,3 °C 27,4 km/h (4 Bft)
30.09.2019 10:33 14,3 °C 79 % 1010,2 hPa 0,0 mm 17,1 km/h (3 Bft) W-SW 251 ° 0 min 0,000 mm 1,3 UV-I 113 W/m² 10,7 °C 14,3 °C 29,0 km/h (5 Bft)
30.09.2019 10:34 14,2 °C 79 % 1010,1 hPa 0,0 mm 23,4 km/h (4 Bft) W-NW 290 ° 0 min 0,000 mm 1,4 UV-I 132 W/m² 10,6 °C 14,2 °C 35,4 km/h (5 Bft)
30.09.2019 10:35 14,2 °C 80 % 1010,3 hPa 0,0 mm 13,6 km/h (3 Bft) W-NW 297 ° 0 min 0,000 mm 1,5 UV-I 142 W/m² 10,8 °C 14,2 °C 20,9 km/h (4 Bft)
30.09.2019 10:36 14,2 °C 80 % 1010,1 hPa 0,0 mm 14,7 km/h (3 Bft) W 275 ° 0 min 0,000 mm 1,5 UV-I 144 W/m² 10,8 °C 14,2 °C 20,9 km/h (4 Bft)
30.09.2019 10:37 14,2 °C 80 % 1010,1 hPa 0,0 mm 18,2 km/h (3 Bft) W 265 ° 0 min 0,000 mm 1,6 UV-I 146 W/m² 10,8 °C 14,2 °C 25,7 km/h (4 Bft)
30.09.2019 10:38 14,2 °C 80 % 1010,1 hPa 0,0 mm 19,9 km/h (4 Bft) W-SW 240 ° 0 min 0,000 mm 1,5 UV-I 125 W/m² 10,8 °C 14,2 °C 33,8 km/h (5 Bft)
30.09.2019 10:39 14,2 °C 80 % 1010,1 hPa 0,0 mm 19,7 km/h (3 Bft) NW 307 ° 0 min 0,000 mm 1,6 UV-I 148 W/m² 10,8 °C 14,2 °C 38,6 km/h (5 Bft)
30.09.2019 10:40 14,2 °C 80 % 1010,2 hPa 0,0 mm 15,1 km/h (3 Bft) W 267 ° 0 min 0,000 mm 1,8 UV-I 148 W/m² 10,8 °C 14,2 °C 25,7 km/h (4 Bft)
30.09.2019 10:41 14,2 °C 80 % 1010,2 hPa 0,0 mm 15,0 km/h (3 Bft) W 261 ° 0 min 0,000 mm 1,9 UV-I 148 W/m² 10,8 °C 14,2 °C 27,4 km/h (4 Bft)
30.09.2019 10:42 14,2 °C 80 % 1010,2 hPa 0,0 mm 17,9 km/h (3 Bft) W 274 ° 0 min 0,000 mm 1,5 UV-I 148 W/m² 10,8 °C 14,2 °C 25,7 km/h (4 Bft)
30.09.2019 10:43 14,3 °C 80 % 1010,2 hPa 0,0 mm 12,2 km/h (2 Bft) W-SW 254 ° 0 min 0,000 mm 1,6 UV-I 151 W/m² 10,9 °C 14,3 °C 20,9 km/h (4 Bft)
30.09.2019 10:44 14,3 °C 80 % 1010,2 hPa 0,0 mm 15,1 km/h (3 Bft) W 277 ° 0 min 0,000 mm 1,6 UV-I 123 W/m² 10,9 °C 14,3 °C 19,3 km/h (3 Bft)
30.09.2019 10:45 14,3 °C 80 % 1010,1 hPa 0,0 mm 16,9 km/h (3 Bft) SW 227 ° 0 min 0,000 mm 3,0 UV-I 123 W/m² 10,9 °C 14,3 °C 27,4 km/h (4 Bft)
30.09.2019 10:46 14,3 °C 80 % 1010,0 hPa 0,0 mm 21,1 km/h (4 Bft) W 275 ° 0 min 0,000 mm 3,1 UV-I 123 W/m² 10,9 °C 14,3 °C 29,0 km/h (5 Bft)
30.09.2019 10:47 14,4 °C 80 % 1010,2 hPa 0,0 mm 24,1 km/h (4 Bft) W-NW 292 ° 0 min 0,000 mm 3,1 UV-I 587 W/m² 11,0 °C 14,4 °C 30,6 km/h (5 Bft)
30.09.2019 10:48 14,5 °C 80 % 1010,2 hPa 0,0 mm 14,6 km/h (3 Bft) W-SW 238 ° 0 min 0,000 mm 2,9 UV-I 513 W/m² 11,1 °C 14,5 °C 25,7 km/h (4 Bft)
30.09.2019 10:49 14,6 °C 80 % 1010,2 hPa 0,0 mm 22,6 km/h (4 Bft) W 263 ° 0 min 0,000 mm 2,5 UV-I 566 W/m² 11,2 °C 14,6 °C 37,0 km/h (5 Bft)
30.09.2019 10:50 14,7 °C 80 % 1010,4 hPa 0,0 mm 18,3 km/h (3 Bft) W-NW 288 ° 0 min 0,000 mm 2,1 UV-I 137 W/m² 11,3 °C 14,7 °C 27,4 km/h (4 Bft)
30.09.2019 10:51 14,6 °C 79 % 1010,2 hPa 0,0 mm 22,7 km/h (4 Bft) NW 319 ° 0 min 0,000 mm 1,7 UV-I 206 W/m² 11,0 °C 14,6 °C 35,4 km/h (5 Bft)
30.09.2019 10:52 14,6 °C 79 % 1010,2 hPa 0,0 mm 24,4 km/h (4 Bft) W 265 ° 0 min 0,000 mm 1,7 UV-I 214 W/m² 11,0 °C 14,6 °C 33,8 km/h (5 Bft)
30.09.2019 10:53 14,6 °C 79 % 1010,4 hPa 0,0 mm 23,1 km/h (4 Bft) W-NW 293 ° 0 min 0,000 mm 1,6 UV-I 121 W/m² 11,0 °C 14,6 °C 35,4 km/h (5 Bft)
30.09.2019 10:54 14,6 °C 79 % 1010,3 hPa 0,0 mm 18,2 km/h (3 Bft) W-SW 256 ° 0 min 0,000 mm 2,3 UV-I 121 W/m² 11,0 °C 14,6 °C 32,2 km/h (5 Bft)
30.09.2019 10:55 14,4 °C 80 % 1010,3 hPa 0,0 mm 23,7 km/h (4 Bft) W-SW 238 ° 0 min 0,000 mm 1,6 UV-I 141 W/m² 11,0 °C 14,4 °C 37,0 km/h (5 Bft)
30.09.2019 10:56 14,5 °C 79 % 1010,4 hPa 0,0 mm 19,2 km/h (3 Bft) W-SW 246 ° 0 min 0,000 mm 1,5 UV-I 128 W/m² 10,9 °C 14,5 °C 27,4 km/h (4 Bft)
30.09.2019 10:57 14,4 °C 79 % 1010,5 hPa 0,0 mm 17,7 km/h (3 Bft) W-NW 296 ° 0 min 0,000 mm 1,4 UV-I 132 W/m² 10,8 °C 14,4 °C 22,5 km/h (4 Bft)
30.09.2019 10:58 14,4 °C 79 % 1010,4 hPa 0,0 mm 17,7 km/h (3 Bft) NW 318 ° 0 min 0,000 mm 1,3 UV-I 123 W/m² 10,8 °C 14,4 °C 22,5 km/h (4 Bft)
30.09.2019 10:59 14,4 °C 80 % 1010,4 hPa 0,0 mm 15,6 km/h (3 Bft) W 270 ° 0 min 0,000 mm 1,3 UV-I 127 W/m² 11,0 °C 14,4 °C 20,9 km/h (4 Bft)
30.09.2019 11:00 14,4 °C 80 % 1010,6 hPa 0,0 mm 19,4 km/h (3 Bft) W-NW 284 ° 0 min 0,000 mm 1,3 UV-I 118 W/m² 11,0 °C 14,4 °C 40,2 km/h (6 Bft)
30.09.2019 11:01 14,4 °C 80 % 1010,6 hPa 0,0 mm 17,6 km/h (3 Bft) W-SW 246 ° 0 min 0,152 mm 1,4 UV-I 118 W/m² 11,0 °C 14,4 °C 32,2 km/h (5 Bft)
30.09.2019 11:02 14,4 °C 79 % 1010,5 hPa 0,0 mm 19,2 km/h (3 Bft) W 269 ° 0 min 0,000 mm 1,6 UV-I 125 W/m² 10,8 °C 14,4 °C 29,0 km/h (5 Bft)
30.09.2019 11:03 14,4 °C 80 % 1010,5 hPa 0,0 mm 20,8 km/h (4 Bft) W-NW 293 ° 0 min 0,000 mm 1,6 UV-I 141 W/m² 11,0 °C 14,4 °C 27,4 km/h (4 Bft)
30.09.2019 11:04 14,3 °C 79 % 1010,6 hPa 0,0 mm 17,8 km/h (3 Bft) W 263 ° 0 min 0,000 mm 1,5 UV-I 132 W/m² 10,7 °C 14,3 °C 22,5 km/h (4 Bft)
30.09.2019 11:05 14,3 °C 79 % 1010,6 hPa 0,0 mm 20,8 km/h (4 Bft) NW 314 ° 0 min 0,000 mm 1,7 UV-I 169 W/m² 10,7 °C 14,3 °C 30,6 km/h (5 Bft)
30.09.2019 11:06 14,4 °C 79 % 1010,5 hPa 0,0 mm 17,8 km/h (3 Bft) W-NW 298 ° 0 min 0,000 mm 2,1 UV-I 209 W/m² 10,8 °C 14,4 °C 24,1 km/h (4 Bft)
30.09.2019 11:07 14,4 °C 80 % 1010,7 hPa 0,0 mm 20,1 km/h (4 Bft) W-SW 253 ° 0 min 0,000 mm 2,2 UV-I 209 W/m² 11,0 °C 14,4 °C 27,4 km/h (4 Bft)
30.09.2019 11:08 14,5 °C 80 % 1010,6 hPa 0,0 mm 17,2 km/h (3 Bft) SW 235 ° 0 min 0,000 mm 1,6 UV-I 209 W/m² 11,1 °C 14,5 °C 22,5 km/h (4 Bft)
30.09.2019 11:09 14,6 °C 80 % 1010,7 hPa 0,0 mm 20,9 km/h (4 Bft) W 263 ° 0 min 0,000 mm 1,3 UV-I 188 W/m² 11,2 °C 14,6 °C 29,0 km/h (5 Bft)
30.09.2019 11:10 14,6 °C 79 % 1010,7 hPa 0,0 mm 21,3 km/h (4 Bft) W 263 ° 0 min 0,000 mm 1,1 UV-I 169 W/m² 11,0 °C 14,6 °C 32,2 km/h (5 Bft)
30.09.2019 11:11 14,6 °C 80 % 1010,7 hPa 0,0 mm 20,3 km/h (4 Bft) W-NW 293 ° 0 min 0,000 mm 0,8 UV-I 125 W/m² 11,2 °C 14,6 °C 27,4 km/h (4 Bft)
30.09.2019 11:12 14,5 °C 79 % 1010,7 hPa 0,0 mm 17,0 km/h (3 Bft) W-NW 285 ° 0 min 0,000 mm 0,9 UV-I 107 W/m² 10,9 °C 14,5 °C 20,9 km/h (4 Bft)
30.09.2019 11:13 14,4 °C 80 % 1010,8 hPa 0,0 mm 18,4 km/h (3 Bft) W 279 ° 0 min 0,000 mm 1,1 UV-I 167 W/m² 11,0 °C 14,4 °C 24,1 km/h (4 Bft)
30.09.2019 11:14 14,5 °C 80 % 1010,8 hPa 0,0 mm 19,8 km/h (3 Bft) W 275 ° 0 min 0,000 mm 1,0 UV-I 158 W/m² 11,1 °C 14,5 °C 32,2 km/h (5 Bft)
30.09.2019 11:15 14,4 °C 80 % 1010,8 hPa 0,0 mm 19,0 km/h (3 Bft) W-NW 282 ° 0 min 0,000 mm 0,6 UV-I 86 W/m² 11,0 °C 14,4 °C 25,7 km/h (4 Bft)
30.09.2019 11:16 14,4 °C 80 % 1010,9 hPa 0,0 mm 20,0 km/h (4 Bft) W-SW 250 ° 0 min 0,000 mm 0,7 UV-I 86 W/m² 11,0 °C 14,4 °C 35,4 km/h (5 Bft)
30.09.2019 11:17 14,4 °C 80 % 1010,8 hPa 0,2 mm 20,4 km/h (4 Bft) W 259 ° 0 min 0,000 mm 0,9 UV-I 105 W/m² 11,0 °C 14,4 °C 30,6 km/h (5 Bft)
30.09.2019 11:18 14,3 °C 80 % 1010,9 hPa 0,0 mm 15,0 km/h (3 Bft) W 271 ° 0 min 0,000 mm 0,8 UV-I 86 W/m² 10,9 °C 14,3 °C 22,5 km/h (4 Bft)
30.09.2019 11:19 14,2 °C 81 % 1010,9 hPa 0,0 mm 15,8 km/h (3 Bft) W 275 ° 0 min 0,000 mm 0,7 UV-I 81 W/m² 11,0 °C 14,2 °C 20,9 km/h (4 Bft)
30.09.2019 11:20 14,1 °C 81 % 1011,0 hPa 0,0 mm 21,7 km/h (4 Bft) W 274 ° 0 min 0,000 mm 0,8 UV-I 81 W/m² 10,9 °C 14,1 °C 30,6 km/h (5 Bft)
30.09.2019 11:21 14,0 °C 81 % 1010,9 hPa 0,0 mm 21,0 km/h (4 Bft) W 273 ° 0 min 0,000 mm 0,9 UV-I 81 W/m² 10,8 °C 14,0 °C 32,2 km/h (5 Bft)
30.09.2019 11:22 13,9 °C 82 % 1010,9 hPa 0,0 mm 18,4 km/h (3 Bft) W 270 ° 0 min 0,000 mm 1,2 UV-I 100 W/m² 10,9 °C 13,9 °C 33,8 km/h (5 Bft)
30.09.2019 11:23 13,7 °C 83 % 1010,9 hPa 0,0 mm 21,5 km/h (4 Bft) W-SW 246 ° 0 min 0,000 mm 1,5 UV-I 130 W/m² 10,9 °C 13,7 °C 38,6 km/h (5 Bft)
30.09.2019 11:24 13,7 °C 84 % 1010,9 hPa 0,0 mm 18,2 km/h (3 Bft) W 265 ° 0 min 0,000 mm 1,8 UV-I 204 W/m² 11,0 °C 13,7 °C 27,4 km/h (4 Bft)
30.09.2019 11:25 13,5 °C 84 % 1010,9 hPa 0,0 mm 19,8 km/h (3 Bft) W 275 ° 0 min 0,000 mm 2,0 UV-I 204 W/m² 10,8 °C 13,5 °C 27,4 km/h (4 Bft)
30.09.2019 11:26 13,4 °C 85 % 1011,0 hPa 0,0 mm 15,8 km/h (3 Bft) W-SW 247 ° 0 min 0,000 mm 2,1 UV-I 380 W/m² 10,9 °C 13,4 °C 24,1 km/h (4 Bft)
30.09.2019 11:27 13,3 °C 85 % 1010,9 hPa 0,0 mm 13,7 km/h (3 Bft) W 268 ° 0 min 0,000 mm 1,9 UV-I 380 W/m² 10,8 °C 13,3 °C 19,3 km/h (3 Bft)
30.09.2019 11:28 13,3 °C 85 % 1010,9 hPa 0,0 mm 16,6 km/h (3 Bft) W-SW 240 ° 0 min 0,000 mm 2,0 UV-I 223 W/m² 10,8 °C 13,3 °C 27,4 km/h (4 Bft)
30.09.2019 11:29 13,3 °C 86 % 1010,8 hPa 0,0 mm 21,3 km/h (4 Bft) SW 231 ° 0 min 0,000 mm 1,9 UV-I 264 W/m² 11,0 °C 13,3 °C 38,6 km/h (5 Bft)
30.09.2019 11:30 13,3 °C 86 % 1010,9 hPa 0,0 mm 17,8 km/h (3 Bft) W 269 ° 0 min 0,000 mm 2,0 UV-I 234 W/m² 11,0 °C 13,3 °C 24,1 km/h (4 Bft)
30.09.2019 11:31 13,3 °C 86 % 1011,1 hPa 0,0 mm 14,7 km/h (3 Bft) W-NW 295 ° 0 min 0,000 mm 2,4 UV-I 213 W/m² 11,0 °C 13,3 °C 24,1 km/h (4 Bft)
30.09.2019 11:32 13,3 °C 87 % 1010,9 hPa 0,0 mm 17,6 km/h (3 Bft) W-SW 246 ° 0 min 0,000 mm 1,9 UV-I 139 W/m² 11,2 °C 13,3 °C 24,1 km/h (4 Bft)
30.09.2019 11:33 13,3 °C 87 % 1011,0 hPa 0,0 mm 18,4 km/h (3 Bft) W-NW 290 ° 0 min 0,000 mm 1,9 UV-I 118 W/m² 11,2 °C 13,3 °C 33,8 km/h (5 Bft)
30.09.2019 11:34 13,3 °C 86 % 1011,1 hPa 0,0 mm 20,0 km/h (4 Bft) W-NW 301 ° 0 min 0,000 mm 2,0 UV-I 118 W/m² 11,0 °C 13,3 °C 30,6 km/h (5 Bft)
30.09.2019 11:35 13,2 °C 86 % 1011,1 hPa 0,0 mm 13,6 km/h (3 Bft) W 267 ° 0 min 0,000 mm 1,9 UV-I 113 W/m² 10,9 °C 13,2 °C 19,3 km/h (3 Bft)
30.09.2019 11:36 13,1 °C 86 % 1011,0 hPa 0,0 mm 10,4 km/h (2 Bft) W 263 ° 0 min 0,000 mm 1,8 UV-I 83 W/m² 10,8 °C 13,1 °C 14,5 km/h (3 Bft)
30.09.2019 11:37 13,1 °C 87 % 1011,1 hPa 0,0 mm 12,2 km/h (2 Bft) NW 306 ° 0 min 0,000 mm 2,6 UV-I 83 W/m² 11,0 °C 13,1 °C 17,7 km/h (3 Bft)
30.09.2019 11:38 13,1 °C 87 % 1011,1 hPa 0,0 mm 11,8 km/h (2 Bft) W 274 ° 0 min 0,000 mm 2,9 UV-I 83 W/m² 11,0 °C 13,1 °C 17,7 km/h (3 Bft)
30.09.2019 11:39 13,1 °C 88 % 1011,1 hPa 0,0 mm 15,7 km/h (3 Bft) W-NW 294 ° 0 min 0,000 mm 2,0 UV-I 83 W/m² 11,2 °C 13,1 °C 24,1 km/h (4 Bft)
30.09.2019 11:40 13,1 °C 88 % 1011,1 hPa 0,0 mm 10,3 km/h (2 Bft) W-SW 238 ° 0 min 0,000 mm 2,0 UV-I 148 W/m² 11,2 °C 13,1 °C 19,3 km/h (3 Bft)
30.09.2019 11:41 13,2 °C 88 % 1011,1 hPa 0,0 mm 17,2 km/h (3 Bft) W 277 ° 0 min 0,000 mm 2,3 UV-I 216 W/m² 11,3 °C 13,2 °C 27,4 km/h (4 Bft)
30.09.2019 11:42 13,2 °C 87 % 1011,1 hPa 0,0 mm 23,5 km/h (4 Bft) W-NW 284 ° 0 min 0,000 mm 2,0 UV-I 227 W/m² 11,1 °C 13,2 °C 40,2 km/h (6 Bft)
30.09.2019 11:43 13,2 °C 87 % 1011,1 hPa 0,0 mm 19,6 km/h (3 Bft) S-SW 207 ° 0 min 0,000 mm 2,1 UV-I 142 W/m² 11,1 °C 13,2 °C 29,0 km/h (5 Bft)
30.09.2019 11:44 13,3 °C 87 % 1011,1 hPa 0,0 mm 15,4 km/h (3 Bft) W 267 ° 0 min 0,000 mm 3,0 UV-I 142 W/m² 11,2 °C 13,3 °C 25,7 km/h (4 Bft)
30.09.2019 11:45 13,4 °C 86 % 1011,1 hPa 0,0 mm 18,6 km/h (3 Bft) W-SW 250 ° 0 min 0,000 mm 2,3 UV-I 580 W/m² 11,1 °C 13,4 °C 30,6 km/h (5 Bft)
30.09.2019 11:46 13,5 °C 86 % 1011,3 hPa 0,0 mm 18,7 km/h (3 Bft) W 276 ° 0 min 0,000 mm 3,5 UV-I 566 W/m² 11,2 °C 13,5 °C 27,4 km/h (4 Bft)
30.09.2019 11:47 13,6 °C 87 % 1011,2 hPa 0,0 mm 18,4 km/h (3 Bft) W 267 ° 0 min 0,000 mm 2,4 UV-I 573 W/m² 11,5 °C 13,6 °C 24,1 km/h (4 Bft)
30.09.2019 11:48 13,7 °C 86 % 1011,2 hPa 0,0 mm 17,0 km/h (3 Bft) W 263 ° 0 min 0,000 mm 3,5 UV-I 408 W/m² 11,4 °C 13,7 °C 25,7 km/h (4 Bft)
30.09.2019 11:49 13,7 °C 86 % 1011,2 hPa 0,0 mm 19,5 km/h (3 Bft) NW 304 ° 0 min 0,000 mm 2,7 UV-I 408 W/m² 11,4 °C 13,7 °C 29,0 km/h (5 Bft)
30.09.2019 11:50 13,8 °C 86 % 1011,2 hPa 0,0 mm 15,5 km/h (3 Bft) NW 313 ° 1 min 0,000 mm 3,6 UV-I 661 W/m² 11,5 °C 13,8 °C 20,9 km/h (4 Bft)
30.09.2019 11:51 13,9 °C 86 % 1011,2 hPa 0,0 mm 15,6 km/h (3 Bft) W-NW 296 ° 1 min 0,000 mm 2,6 UV-I 661 W/m² 11,6 °C 13,9 °C 25,7 km/h (4 Bft)
30.09.2019 11:52 14,0 °C 85 % 1011,3 hPa 0,0 mm 13,5 km/h (3 Bft) W-NW 289 ° 1 min 0,000 mm 2,3 UV-I 661 W/m² 11,5 °C 14,0 °C 29,0 km/h (5 Bft)
30.09.2019 11:53 14,1 °C 85 % 1011,3 hPa 0,0 mm 17,3 km/h (3 Bft) W 266 ° 1 min 0,000 mm 2,3 UV-I 661 W/m² 11,6 °C 14,1 °C 24,1 km/h (4 Bft)
30.09.2019 11:54 14,1 °C 84 % 1011,3 hPa 0,0 mm 13,4 km/h (3 Bft) W 260 ° 0 min 0,000 mm 2,1 UV-I 206 W/m² 11,4 °C 14,1 °C 24,1 km/h (4 Bft)
30.09.2019 11:55 14,1 °C 84 % 1011,2 hPa 0,0 mm 7,8 km/h (2 Bft) W-NW 295 ° 0 min 0,000 mm 2,2 UV-I 206 W/m² 11,4 °C 14,1 °C 16,1 km/h (3 Bft)
30.09.2019 11:56 14,1 °C 84 % 1011,3 hPa 0,0 mm 12,8 km/h (3 Bft) W-NW 296 ° 0 min 0,000 mm 3,7 UV-I 294 W/m² 11,4 °C 14,1 °C 19,3 km/h (3 Bft)
30.09.2019 11:57 14,1 °C 84 % 1011,3 hPa 0,0 mm 12,8 km/h (3 Bft) W 261 ° 0 min 0,000 mm 3,0 UV-I 294 W/m² 11,4 °C 14,1 °C 17,7 km/h (3 Bft)
30.09.2019 11:58 14,1 °C 84 % 1011,3 hPa 0,0 mm 23,2 km/h (4 Bft) W 270 ° 0 min 0,000 mm 2,2 UV-I 294 W/m² 11,4 °C 14,1 °C 32,2 km/h (5 Bft)
30.09.2019 11:59 14,2 °C 83 % 1011,2 hPa 0,0 mm 17,6 km/h (3 Bft) NW 304 ° 0 min 0,000 mm 3,4 UV-I 149 W/m² 11,4 °C 14,2 °C 27,4 km/h (4 Bft)
30.09.2019 12:00 14,1 °C 83 % 1011,3 hPa 0,0 mm 19,7 km/h (3 Bft) W 279 ° 0 min 0,000 mm 3,6 UV-I 149 W/m² 11,3 °C 14,1 °C 27,4 km/h (4 Bft)
30.09.2019 12:01 14,2 °C 83 % 1011,4 hPa 0,0 mm 12,9 km/h (3 Bft) SW 224 ° 0 min 0,152 mm 2,7 UV-I 149 W/m² 11,4 °C 14,2 °C 25,7 km/h (4 Bft)
30.09.2019 12:02 14,2 °C 83 % 1011,3 hPa 0,0 mm 13,8 km/h (3 Bft) S-SO 163 ° 0 min 0,000 mm 3,4 UV-I 149 W/m² 11,4 °C 14,2 °C 30,6 km/h (5 Bft)
30.09.2019 12:04 14,2 °C 83 % 1011,4 hPa 0,0 mm 17,8 km/h (3 Bft) W-SW 248 ° 0 min 0,000 mm 2,7 UV-I 366 W/m² 11,4 °C 14,2 °C 25,7 km/h (4 Bft)
30.09.2019 12:05 14,2 °C 82 % 1011,3 hPa 0,0 mm 18,1 km/h (3 Bft) W-SW 255 ° 0 min 0,000 mm 2,3 UV-I 366 W/m² 11,2 °C 14,2 °C 27,4 km/h (4 Bft)
30.09.2019 12:06 14,2 °C 82 % 1011,3 hPa 0,0 mm 22,8 km/h (4 Bft) W 261 ° 0 min 0,000 mm 2,5 UV-I 366 W/m² 11,2 °C 14,2 °C 40,2 km/h (6 Bft)
30.09.2019 12:07 14,2 °C 82 % 1011,3 hPa 0,0 mm 17,3 km/h (3 Bft) W 272 ° 0 min 0,000 mm 2,6 UV-I 325 W/m² 11,2 °C 14,2 °C 24,1 km/h (4 Bft)
30.09.2019 12:08 14,2 °C 82 % 1011,4 hPa 0,0 mm 18,2 km/h (3 Bft) W 278 ° 0 min 0,000 mm 3,4 UV-I 285 W/m² 11,2 °C 14,2 °C 30,6 km/h (5 Bft)
30.09.2019 12:09 14,3 °C 82 % 1011,3 hPa 0,0 mm 16,7 km/h (3 Bft) W-NW 298 ° 0 min 0,000 mm 2,8 UV-I 366 W/m² 11,3 °C 14,3 °C 22,5 km/h (4 Bft)
30.09.2019 12:10 14,3 °C 82 % 1011,5 hPa 0,0 mm 14,3 km/h (3 Bft) W-NW 298 ° 0 min 0,000 mm 3,1 UV-I 336 W/m² 11,3 °C 14,3 °C 20,9 km/h (4 Bft)
30.09.2019 12:11 14,3 °C 82 % 1011,4 hPa 0,0 mm 22,3 km/h (4 Bft) W 261 ° 0 min 0,000 mm 2,4 UV-I 258 W/m² 11,3 °C 14,3 °C 40,2 km/h (6 Bft)
30.09.2019 12:12 14,3 °C 81 % 1011,4 hPa 0,0 mm 14,7 km/h (3 Bft) W 260 ° 0 min 0,000 mm 2,6 UV-I 258 W/m² 11,1 °C 14,3 °C 19,3 km/h (3 Bft)
30.09.2019 12:13 14,4 °C 81 % 1011,4 hPa 0,0 mm 15,7 km/h (3 Bft) W-NW 284 ° 0 min 0,000 mm 2,6 UV-I 276 W/m² 11,2 °C 14,4 °C 27,4 km/h (4 Bft)
30.09.2019 12:14 14,4 °C 82 % 1011,3 hPa 0,0 mm 16,9 km/h (3 Bft) W-NW 293 ° 0 min 0,000 mm 4,0 UV-I 276 W/m² 11,4 °C 14,4 °C 22,5 km/h (4 Bft)
30.09.2019 12:15 14,4 °C 82 % 1011,3 hPa 0,0 mm 19,5 km/h (3 Bft) W-SW 246 ° 0 min 0,000 mm 2,4 UV-I 276 W/m² 11,4 °C 14,4 °C 25,7 km/h (4 Bft)
30.09.2019 12:16 14,4 °C 81 % 1011,4 hPa 0,0 mm 16,0 km/h (3 Bft) W 265 ° 0 min 0,000 mm 3,3 UV-I 276 W/m² 11,2 °C 14,4 °C 29,0 km/h (5 Bft)
30.09.2019 12:17 14,4 °C 81 % 1011,5 hPa 0,0 mm 30,1 km/h (5 Bft) W-SW 251 ° 0 min 0,000 mm 3,5 UV-I 276 W/m² 11,2 °C 14,4 °C 40,2 km/h (6 Bft)
30.09.2019 12:18 14,4 °C 80 % 1011,4 hPa 0,0 mm 12,3 km/h (3 Bft) S 188 ° 0 min 0,000 mm 3,5 UV-I 276 W/m² 11,0 °C 14,4 °C 22,5 km/h (4 Bft)
30.09.2019 12:19 14,4 °C 80 % 1011,4 hPa 0,0 mm 19,5 km/h (3 Bft) NW 312 ° 0 min 0,000 mm 3,6 UV-I 276 W/m² 11,0 °C 14,4 °C 40,2 km/h (6 Bft)
30.09.2019 12:20 14,4 °C 80 % 1011,3 hPa 0,0 mm 16,9 km/h (3 Bft) W 281 ° 0 min 0,000 mm 2,4 UV-I 276 W/m² 11,0 °C 14,4 °C 20,9 km/h (4 Bft)
30.09.2019 12:21 14,6 °C 81 % 1011,4 hPa 0,0 mm 12,5 km/h (3 Bft) W 279 ° 0 min 0,000 mm 4,0 UV-I 276 W/m² 11,4 °C 14,6 °C 17,7 km/h (3 Bft)
30.09.2019 12:22 14,6 °C 81 % 1011,5 hPa 0,0 mm 21,5 km/h (4 Bft) W 270 ° 0 min 0,000 mm 2,3 UV-I 276 W/m² 11,4 °C 14,6 °C 29,0 km/h (5 Bft)
30.09.2019 12:23 14,6 °C 80 % 1011,5 hPa 0,0 mm 17,5 km/h (3 Bft) SW 229 ° 0 min 0,000 mm 2,4 UV-I 214 W/m² 11,2 °C 14,6 °C 27,4 km/h (4 Bft)
30.09.2019 12:24 14,6 °C 80 % 1011,5 hPa 0,0 mm 12,7 km/h (3 Bft) W 279 ° 0 min 0,000 mm 2,6 UV-I 246 W/m² 11,2 °C 14,6 °C 22,5 km/h (4 Bft)
30.09.2019 12:25 14,6 °C 80 % 1011,5 hPa 0,0 mm 15,2 km/h (3 Bft) W-SW 240 ° 0 min 0,000 mm 2,5 UV-I 207 W/m² 11,2 °C 14,6 °C 25,7 km/h (4 Bft)
30.09.2019 12:26 14,6 °C 80 % 1011,5 hPa 0,0 mm 12,3 km/h (3 Bft) SW 219 ° 0 min 0,000 mm 2,5 UV-I 225 W/m² 11,2 °C 14,6 °C 25,7 km/h (4 Bft)
30.09.2019 12:27 14,7 °C 80 % 1011,5 hPa 0,0 mm 14,8 km/h (3 Bft) W-SW 242 ° 0 min 0,000 mm 4,2 UV-I 225 W/m² 11,3 °C 14,7 °C 27,4 km/h (4 Bft)
30.09.2019 12:28 14,7 °C 81 % 1011,4 hPa 0,0 mm 8,3 km/h (2 Bft) W-SW 256 ° 0 min 0,000 mm 4,2 UV-I 225 W/m² 11,5 °C 14,7 °C 17,7 km/h (3 Bft)
30.09.2019 12:29 14,9 °C 80 % 1011,4 hPa 0,0 mm 14,6 km/h (3 Bft) W 276 ° 1 min 0,000 mm 4,1 UV-I 663 W/m² 11,5 °C 14,9 °C 22,5 km/h (4 Bft)
30.09.2019 12:30 14,9 °C 79 % 1011,4 hPa 0,0 mm 12,2 km/h (2 Bft) W 272 ° 1 min 0,000 mm 3,7 UV-I 663 W/m² 11,3 °C 14,9 °C 20,9 km/h (4 Bft)
30.09.2019 12:31 15,1 °C 80 % 1011,4 hPa 0,0 mm 14,0 km/h (3 Bft) W 259 ° 1 min 0,000 mm 4,1 UV-I 663 W/m² 11,7 °C 15,1 °C 24,1 km/h (4 Bft)
30.09.2019 12:32 15,2 °C 79 % 1011,4 hPa 0,0 mm 11,9 km/h (2 Bft) SW 226 ° 1 min 0,000 mm 2,9 UV-I 663 W/m² 11,6 °C 15,2 °C 20,9 km/h (4 Bft)
30.09.2019 12:33 15,2 °C 78 % 1011,5 hPa 0,0 mm 17,6 km/h (3 Bft) W 259 ° 1 min 0,000 mm 4,1 UV-I 663 W/m² 11,4 °C 15,2 °C 22,5 km/h (4 Bft)
30.09.2019 12:34 15,2 °C 78 % 1011,5 hPa 0,0 mm 22,1 km/h (4 Bft) W-SW 257 ° 1 min 0,000 mm 4,1 UV-I 663 W/m² 11,4 °C 15,2 °C 30,6 km/h (5 Bft)
30.09.2019 12:35 15,2 °C 78 % 1011,5 hPa 0,0 mm 11,7 km/h (2 Bft) W 274 ° 0 min 0,000 mm 4,1 UV-I 594 W/m² 11,4 °C 15,2 °C 19,3 km/h (3 Bft)
30.09.2019 12:36 15,2 °C 77 % 1011,5 hPa 0,0 mm 10,9 km/h (2 Bft) W 277 ° 1 min 0,000 mm 4,2 UV-I 664 W/m² 11,2 °C 15,2 °C 16,1 km/h (3 Bft)
30.09.2019 12:37 15,3 °C 79 % 1011,4 hPa 0,0 mm 15,5 km/h (3 Bft) W-SW 246 ° 1 min 0,000 mm 3,4 UV-I 724 W/m² 11,7 °C 15,3 °C 32,2 km/h (5 Bft)
30.09.2019 12:38 15,3 °C 78 % 1011,4 hPa 0,0 mm 16,9 km/h (3 Bft) W 276 ° 1 min 0,000 mm 3,7 UV-I 724 W/m² 11,5 °C 15,3 °C 27,4 km/h (4 Bft)
30.09.2019 12:39 15,2 °C 78 % 1011,5 hPa 0,0 mm 18,9 km/h (3 Bft) W-SW 238 ° 1 min 0,000 mm 3,6 UV-I 724 W/m² 11,4 °C 15,2 °C 30,6 km/h (5 Bft)
30.09.2019 12:40 15,2 °C 78 % 1011,5 hPa 0,0 mm 11,7 km/h (2 Bft) W 268 ° 1 min 0,000 mm 4,3 UV-I 724 W/m² 11,4 °C 15,2 °C 14,5 km/h (3 Bft)
30.09.2019 12:41 15,3 °C 78 % 1011,5 hPa 0,0 mm 9,9 km/h (2 Bft) W-NW 286 ° 0 min 0,000 mm 4,3 UV-I 459 W/m² 11,5 °C 15,3 °C 20,9 km/h (4 Bft)
30.09.2019 12:42 15,3 °C 78 % 1011,5 hPa 0,0 mm 14,2 km/h (3 Bft) W 259 ° 0 min 0,000 mm 4,4 UV-I 459 W/m² 11,5 °C 15,3 °C 20,9 km/h (4 Bft)
30.09.2019 12:43 15,4 °C 78 % 1011,5 hPa 0,0 mm 10,7 km/h (2 Bft) W-NW 294 ° 0 min 0,000 mm 4,4 UV-I 459 W/m² 11,6 °C 15,4 °C 16,1 km/h (3 Bft)
30.09.2019 12:44 15,5 °C 78 % 1011,5 hPa 0,0 mm 12,3 km/h (3 Bft) W 259 ° 1 min 0,000 mm 4,3 UV-I 698 W/m² 11,7 °C 15,5 °C 19,3 km/h (3 Bft)
30.09.2019 12:45 15,6 °C 77 % 1011,5 hPa 0,0 mm 15,0 km/h (3 Bft) W 261 ° 1 min 0,000 mm 4,3 UV-I 694 W/m² 11,6 °C 15,6 °C 19,3 km/h (3 Bft)
30.09.2019 12:46 15,6 °C 77 % 1011,5 hPa 0,0 mm 14,4 km/h (3 Bft) W 273 ° 1 min 0,000 mm 4,3 UV-I 701 W/m² 11,6 °C 15,6 °C 19,3 km/h (3 Bft)
30.09.2019 12:47 15,7 °C 77 % 1011,5 hPa 0,0 mm 10,7 km/h (2 Bft) W 259 ° 1 min 0,000 mm 3,8 UV-I 677 W/m² 11,7 °C 15,7 °C 16,1 km/h (3 Bft)
30.09.2019 12:48 15,8 °C 77 % 1011,5 hPa 0,0 mm 8,8 km/h (2 Bft) W-SW 255 ° 1 min 0,000 mm 4,1 UV-I 682 W/m² 11,8 °C 15,8 °C 16,1 km/h (3 Bft)
30.09.2019 12:49 15,7 °C 76 % 1011,5 hPa 0,0 mm 20,3 km/h (4 Bft) W 263 ° 1 min 0,000 mm 4,0 UV-I 671 W/m² 11,5 °C 15,7 °C 30,6 km/h (5 Bft)
30.09.2019 12:50 15,7 °C 76 % 1011,5 hPa 0,0 mm 13,0 km/h (3 Bft) W-SW 252 ° 1 min 0,000 mm 3,8 UV-I 689 W/m² 11,5 °C 15,7 °C 19,3 km/h (3 Bft)
30.09.2019 12:51 15,6 °C 77 % 1011,5 hPa 0,0 mm 8,3 km/h (2 Bft) SO 130 ° 1 min 0,000 mm 2,9 UV-I 689 W/m² 11,6 °C 15,6 °C 14,5 km/h (3 Bft)
30.09.2019 12:52 15,6 °C 76 % 1011,5 hPa 0,0 mm 13,0 km/h (3 Bft) S-SW 212 ° 0 min 0,000 mm 2,5 UV-I 190 W/m² 11,4 °C 15,6 °C 22,5 km/h (4 Bft)
30.09.2019 12:53 15,4 °C 76 % 1011,5 hPa 0,0 mm 13,5 km/h (3 Bft) W 267 ° 0 min 0,000 mm 2,6 UV-I 190 W/m² 11,2 °C 15,4 °C 20,9 km/h (4 Bft)
30.09.2019 12:54 15,4 °C 77 % 1011,4 hPa 0,0 mm 11,7 km/h (2 Bft) W 261 ° 1 min 0,000 mm 4,3 UV-I 677 W/m² 11,4 °C 15,4 °C 16,1 km/h (3 Bft)
30.09.2019 12:55 15,4 °C 77 % 1011,6 hPa 0,0 mm 14,5 km/h (3 Bft) W-SW 251 ° 1 min 0,000 mm 3,2 UV-I 677 W/m² 11,4 °C 15,4 °C 24,1 km/h (4 Bft)
30.09.2019 12:56 15,4 °C 77 % 1011,5 hPa 0,0 mm 19,0 km/h (3 Bft) W-NW 285 ° 0 min 0,000 mm 2,8 UV-I 301 W/m² 11,4 °C 15,4 °C 29,0 km/h (5 Bft)
30.09.2019 12:57 15,4 °C 77 % 1011,6 hPa 0,0 mm 15,0 km/h (3 Bft) W-SW 249 ° 0 min 0,000 mm 4,3 UV-I 301 W/m² 11,4 °C 15,4 °C 17,7 km/h (3 Bft)
30.09.2019 12:58 15,4 °C 77 % 1011,6 hPa 0,0 mm 13,9 km/h (3 Bft) W 273 ° 0 min 0,000 mm 2,5 UV-I 301 W/m² 11,4 °C 15,4 °C 19,3 km/h (3 Bft)
30.09.2019 12:59 15,4 °C 77 % 1011,5 hPa 0,0 mm 10,8 km/h (2 Bft) SW 220 ° 1 min 0,000 mm 4,4 UV-I 703 W/m² 11,4 °C 15,4 °C 19,3 km/h (3 Bft)
30.09.2019 13:00 15,4 °C 78 % 1011,5 hPa 0,0 mm 18,7 km/h (3 Bft) SW 236 ° 1 min 0,000 mm 2,5 UV-I 703 W/m² 11,6 °C 15,4 °C 24,1 km/h (4 Bft)
30.09.2019 13:01 15,4 °C 77 % 1011,5 hPa 0,0 mm 20,0 km/h (4 Bft) W 279 ° 1 min 0,280 mm 4,4 UV-I 703 W/m² 11,4 °C 15,4 °C 25,7 km/h (4 Bft)
30.09.2019 13:02 15,3 °C 77 % 1011,5 hPa 0,0 mm 16,4 km/h (3 Bft) SW 229 ° 1 min 0,000 mm 3,6 UV-I 703 W/m² 11,3 °C 15,3 °C 20,9 km/h (4 Bft)
30.09.2019 13:03 15,3 °C 77 % 1011,5 hPa 0,0 mm 20,9 km/h (4 Bft) NW 304 ° 1 min 0,000 mm 2,5 UV-I 686 W/m² 11,3 °C 15,3 °C 29,0 km/h (5 Bft)
30.09.2019 13:04 15,3 °C 77 % 1011,5 hPa 0,0 mm 15,4 km/h (3 Bft) W-NW 290 ° 1 min 0,000 mm 2,7 UV-I 612 W/m² 11,3 °C 15,3 °C 20,9 km/h (4 Bft)
30.09.2019 13:05 15,2 °C 77 % 1011,5 hPa 0,0 mm 16,2 km/h (3 Bft) W 279 ° 1 min 0,000 mm 4,1 UV-I 612 W/m² 11,2 °C 15,2 °C 20,9 km/h (4 Bft)
30.09.2019 13:06 15,2 °C 77 % 1011,6 hPa 0,0 mm 16,4 km/h (3 Bft) SW 236 ° 0 min 0,000 mm 3,6 UV-I 533 W/m² 11,2 °C 15,2 °C 33,8 km/h (5 Bft)
30.09.2019 13:07 15,2 °C 78 % 1011,5 hPa 0,0 mm 10,3 km/h (2 Bft) W 276 ° 1 min 0,000 mm 4,3 UV-I 624 W/m² 11,4 °C 15,2 °C 25,7 km/h (4 Bft)
30.09.2019 13:08 15,1 °C 78 % 1011,6 hPa 0,0 mm 16,8 km/h (3 Bft) SW 232 ° 1 min 0,000 mm 2,5 UV-I 624 W/m² 11,3 °C 15,1 °C 30,6 km/h (5 Bft)
30.09.2019 13:09 15,0 °C 78 % 1011,6 hPa 0,0 mm 16,5 km/h (3 Bft) W-SW 254 ° 0 min 0,000 mm 2,4 UV-I 155 W/m² 11,2 °C 15,0 °C 24,1 km/h (4 Bft)
30.09.2019 13:10 14,9 °C 78 % 1011,6 hPa 0,0 mm 13,9 km/h (3 Bft) W 275 ° 0 min 0,000 mm 4,3 UV-I 155 W/m² 11,1 °C 14,9 °C 22,5 km/h (4 Bft)
30.09.2019 13:11 14,9 °C 79 % 1011,5 hPa 0,0 mm 18,1 km/h (3 Bft) W-SW 240 ° 0 min 0,000 mm 2,7 UV-I 155 W/m² 11,3 °C 14,9 °C 29,0 km/h (5 Bft)
30.09.2019 13:12 14,9 °C 78 % 1011,5 hPa 0,0 mm 19,6 km/h (3 Bft) W-NW 282 ° 0 min 0,000 mm 2,8 UV-I 227 W/m² 11,1 °C 14,9 °C 29,0 km/h (5 Bft)
30.09.2019 13:13 14,8 °C 79 % 1011,5 hPa 0,0 mm 12,9 km/h (3 Bft) SW 219 ° 0 min 0,000 mm 2,7 UV-I 295 W/m² 11,2 °C 14,8 °C 19,3 km/h (3 Bft)
30.09.2019 13:14 14,8 °C 80 % 1011,5 hPa 0,0 mm 15,6 km/h (3 Bft) W-NW 299 ° 0 min 0,000 mm 2,4 UV-I 295 W/m² 11,4 °C 14,8 °C 32,2 km/h (5 Bft)
30.09.2019 13:15 14,9 °C 79 % 1011,5 hPa 0,0 mm 19,4 km/h (3 Bft) S 191 ° 0 min 0,000 mm 2,5 UV-I 295 W/m² 11,3 °C 14,9 °C 32,2 km/h (5 Bft)
30.09.2019 13:16 14,9 °C 79 % 1011,5 hPa 0,0 mm 15,8 km/h (3 Bft) W-SW 258 ° 0 min 0,000 mm 4,2 UV-I 311 W/m² 11,3 °C 14,9 °C 27,4 km/h (4 Bft)
30.09.2019 13:17 14,9 °C 78 % 1011,5 hPa 0,0 mm 17,8 km/h (3 Bft) W-NW 294 ° 1 min 0,000 mm 3,3 UV-I 691 W/m² 11,1 °C 14,9 °C 27,4 km/h (4 Bft)
30.09.2019 13:18 14,9 °C 78 % 1011,4 hPa 0,0 mm 23,0 km/h (4 Bft) W 280 ° 1 min 0,000 mm 2,3 UV-I 691 W/m² 11,1 °C 14,9 °C 43,5 km/h (6 Bft)
30.09.2019 13:19 14,9 °C 79 % 1011,4 hPa 0,0 mm 11,0 km/h (2 Bft) W 265 ° 1 min 0,000 mm 3,2 UV-I 691 W/m² 11,3 °C 14,9 °C 16,1 km/h (3 Bft)
30.09.2019 13:20 15,0 °C 78 % 1011,5 hPa 0,0 mm 19,4 km/h (3 Bft) W 265 ° 1 min 0,000 mm 3,7 UV-I 671 W/m² 11,2 °C 15,0 °C 24,1 km/h (4 Bft)
30.09.2019 13:21 14,9 °C 78 % 1011,6 hPa 0,0 mm 26,2 km/h (4 Bft) W-NW 293 ° 1 min 0,000 mm 3,6 UV-I 671 W/m² 11,1 °C 14,9 °C 37,0 km/h (5 Bft)
30.09.2019 13:22 14,9 °C 77 % 1011,5 hPa 0,0 mm 19,8 km/h (3 Bft) W 261 ° 1 min 0,000 mm 4,1 UV-I 671 W/m² 10,9 °C 14,9 °C 33,8 km/h (5 Bft)
30.09.2019 13:23 14,9 °C 77 % 1011,4 hPa 0,0 mm 19,6 km/h (3 Bft) S-SW 211 ° 1 min 0,000 mm 2,2 UV-I 671 W/m² 10,9 °C 14,9 °C 30,6 km/h (5 Bft)
30.09.2019 13:24 14,9 °C 78 % 1011,5 hPa 0,0 mm 16,4 km/h (3 Bft) W-SW 255 ° 1 min 0,000 mm 4,1 UV-I 671 W/m² 11,1 °C 14,9 °C 30,6 km/h (5 Bft)
30.09.2019 13:25 14,9 °C 79 % 1011,4 hPa 0,0 mm 18,1 km/h (3 Bft) SW 232 ° 1 min 0,000 mm 4,1 UV-I 640 W/m² 11,3 °C 14,9 °C 35,4 km/h (5 Bft)
30.09.2019 13:26 14,9 °C 78 % 1011,5 hPa 0,0 mm 18,0 km/h (3 Bft) S-SW 196 ° 1 min 0,000 mm 4,1 UV-I 626 W/m² 11,1 °C 14,9 °C 27,4 km/h (4 Bft)
30.09.2019 13:27 15,0 °C 78 % 1011,4 hPa 0,0 mm 9,3 km/h (2 Bft) W-SW 245 ° 0 min 0,000 mm 3,0 UV-I 591 W/m² 11,2 °C 15,0 °C 19,3 km/h (3 Bft)
30.09.2019 13:28 15,1 °C 78 % 1011,4 hPa 0,0 mm 18,2 km/h (3 Bft) W 261 ° 1 min 0,000 mm 2,9 UV-I 652 W/m² 11,3 °C 15,1 °C 25,7 km/h (4 Bft)
30.09.2019 13:29 15,1 °C 78 % 1011,5 hPa 0,0 mm 12,3 km/h (3 Bft) W 269 ° 1 min 0,000 mm 4,1 UV-I 656 W/m² 11,3 °C 15,1 °C 25,7 km/h (4 Bft)
30.09.2019 13:30 15,2 °C 78 % 1011,6 hPa 0,0 mm 18,1 km/h (3 Bft) W 261 ° 1 min 0,000 mm 3,0 UV-I 656 W/m² 11,4 °C 15,2 °C 27,4 km/h (4 Bft)
30.09.2019 13:31 15,2 °C 78 % 1011,5 hPa 0,0 mm 16,3 km/h (3 Bft) W-NW 301 ° 1 min 0,000 mm 3,7 UV-I 656 W/m² 11,4 °C 15,2 °C 24,1 km/h (4 Bft)
30.09.2019 13:32 15,2 °C 77 % 1011,4 hPa 0,0 mm 16,6 km/h (3 Bft) SW 227 ° 1 min 0,000 mm 4,1 UV-I 649 W/m² 11,2 °C 15,2 °C 24,1 km/h (4 Bft)
30.09.2019 13:33 15,2 °C 77 % 1011,4 hPa 0,0 mm 17,0 km/h (3 Bft) W 271 ° 1 min 0,000 mm 2,8 UV-I 649 W/m² 11,2 °C 15,2 °C 29,0 km/h (5 Bft)
30.09.2019 13:34 15,3 °C 77 % 1011,5 hPa 0,0 mm 13,3 km/h (3 Bft) W 265 ° 1 min 0,000 mm 4,0 UV-I 615 W/m² 11,3 °C 15,3 °C 24,1 km/h (4 Bft)
30.09.2019 13:35 15,3 °C 77 % 1011,5 hPa 0,0 mm 19,2 km/h (3 Bft) W 279 ° 1 min 0,000 mm 4,1 UV-I 615 W/m² 11,3 °C 15,3 °C 29,0 km/h (5 Bft)
30.09.2019 13:36 15,3 °C 76 % 1011,5 hPa 0,0 mm 19,8 km/h (3 Bft) W-NW 299 ° 1 min 0,000 mm 4,0 UV-I 615 W/m² 11,1 °C 15,3 °C 32,2 km/h (5 Bft)
30.09.2019 13:37 15,3 °C 77 % 1011,4 hPa 0,0 mm 19,0 km/h (3 Bft) W-NW 296 ° 1 min 0,000 mm 3,9 UV-I 615 W/m² 11,3 °C 15,3 °C 30,6 km/h (5 Bft)
30.09.2019 13:38 15,4 °C 77 % 1011,4 hPa 0,0 mm 16,5 km/h (3 Bft) W-SW 238 ° 0 min 0,000 mm 4,1 UV-I 594 W/m² 11,4 °C 15,4 °C 22,5 km/h (4 Bft)
30.09.2019 13:39 15,4 °C 77 % 1011,4 hPa 0,0 mm 24,3 km/h (4 Bft) W-SW 256 ° 1 min 0,000 mm 3,8 UV-I 626 W/m² 11,4 °C 15,4 °C 40,2 km/h (6 Bft)
30.09.2019 13:40 15,4 °C 77 % 1011,4 hPa 0,0 mm 13,5 km/h (3 Bft) W-SW 258 ° 1 min 0,000 mm 3,4 UV-I 647 W/m² 11,4 °C 15,4 °C 20,9 km/h (4 Bft)
30.09.2019 13:41 15,5 °C 77 % 1011,5 hPa 0,0 mm 12,3 km/h (3 Bft) W 267 ° 1 min 0,000 mm 4,0 UV-I 647 W/m² 11,5 °C 15,5 °C 20,9 km/h (4 Bft)
30.09.2019 13:42 15,5 °C 76 % 1011,4 hPa 0,0 mm 24,3 km/h (4 Bft) W 261 ° 1 min 0,000 mm 3,6 UV-I 647 W/m² 11,3 °C 15,5 °C 33,8 km/h (5 Bft)
30.09.2019 13:43 15,5 °C 76 % 1011,4 hPa 0,0 mm 21,6 km/h (4 Bft) W-NW 284 ° 1 min 0,000 mm 4,1 UV-I 647 W/m² 11,3 °C 15,5 °C 32,2 km/h (5 Bft)
30.09.2019 13:44 15,5 °C 75 % 1011,3 hPa 0,0 mm 22,3 km/h (4 Bft) NW 313 ° 1 min 0,000 mm 2,5 UV-I 647 W/m² 11,1 °C 15,5 °C 33,8 km/h (5 Bft)
30.09.2019 13:45 15,4 °C 76 % 1011,3 hPa 0,0 mm 16,7 km/h (3 Bft) W-SW 244 ° 0 min 0,000 mm 2,3 UV-I 114 W/m² 11,2 °C 15,4 °C 19,3 km/h (3 Bft)
30.09.2019 13:46 15,4 °C 76 % 1011,4 hPa 0,0 mm 13,5 km/h (3 Bft) W-NW 284 ° 0 min 0,000 mm 2,2 UV-I 141 W/m² 11,2 °C 15,4 °C 30,6 km/h (5 Bft)
30.09.2019 13:47 15,3 °C 75 % 1011,5 hPa 0,0 mm 24,1 km/h (4 Bft) W 264 ° 0 min 0,000 mm 3,7 UV-I 141 W/m² 10,9 °C 15,3 °C 32,2 km/h (5 Bft)
30.09.2019 13:48 15,3 °C 75 % 1011,4 hPa 0,0 mm 13,6 km/h (3 Bft) W 281 ° 0 min 0,000 mm 4,0 UV-I 141 W/m² 10,9 °C 15,3 °C 20,9 km/h (4 Bft)
30.09.2019 13:49 15,3 °C 76 % 1011,5 hPa 0,0 mm 10,2 km/h (2 Bft) W 277 ° 0 min 0,000 mm 3,7 UV-I 272 W/m² 11,1 °C 15,3 °C 17,7 km/h (3 Bft)
30.09.2019 13:50 15,3 °C 77 % 1011,5 hPa 0,0 mm 21,6 km/h (4 Bft) W 259 ° 0 min 0,000 mm 2,4 UV-I 272 W/m² 11,3 °C 15,3 °C 25,7 km/h (4 Bft)
30.09.2019 13:51 15,3 °C 76 % 1011,4 hPa 0,0 mm 20,3 km/h (4 Bft) W-NW 298 ° 0 min 0,000 mm 3,2 UV-I 272 W/m² 11,1 °C 15,3 °C 25,7 km/h (4 Bft)
30.09.2019 13:52 15,3 °C 76 % 1011,4 hPa 0,0 mm 16,8 km/h (3 Bft) W 267 ° 0 min 0,000 mm 3,3 UV-I 272 W/m² 11,1 °C 15,3 °C 20,9 km/h (4 Bft)
30.09.2019 13:53 15,4 °C 76 % 1011,3 hPa 0,0 mm 17,4 km/h (3 Bft) W 274 ° 0 min 0,000 mm 2,8 UV-I 272 W/m² 11,2 °C 15,4 °C 24,1 km/h (4 Bft)
30.09.2019 13:54 15,4 °C 76 % 1011,3 hPa 0,0 mm 13,4 km/h (3 Bft) W-NW 282 ° 0 min 0,000 mm 4,1 UV-I 272 W/m² 11,2 °C 15,4 °C 25,7 km/h (4 Bft)
30.09.2019 13:55 15,4 °C 76 % 1011,4 hPa 0,0 mm 18,1 km/h (3 Bft) S 190 ° 0 min 0,000 mm 2,5 UV-I 272 W/m² 11,2 °C 15,4 °C 29,0 km/h (5 Bft)
30.09.2019 13:56 15,4 °C 76 % 1011,2 hPa 0,0 mm 8,0 km/h (2 Bft) W-SW 253 ° 0 min 0,000 mm 2,6 UV-I 272 W/m² 11,2 °C 15,4 °C 12,9 km/h (3 Bft)
30.09.2019 13:57 15,4 °C 76 % 1011,3 hPa 0,0 mm 8,4 km/h (2 Bft) W-SW 241 ° 0 min 0,000 mm 2,4 UV-I 207 W/m² 11,2 °C 15,4 °C 17,7 km/h (3 Bft)
30.09.2019 13:58 15,4 °C 77 % 1011,4 hPa 0,0 mm 15,5 km/h (3 Bft) W 259 ° 0 min 0,000 mm 3,0 UV-I 181 W/m² 11,4 °C 15,4 °C 22,5 km/h (4 Bft)
30.09.2019 13:59 15,4 °C 76 % 1011,4 hPa 0,0 mm 15,2 km/h (3 Bft) W-NW 292 ° 0 min 0,000 mm 2,3 UV-I 153 W/m² 11,2 °C 15,4 °C 27,4 km/h (4 Bft)
30.09.2019 14:00 15,4 °C 75 % 1011,4 hPa 0,0 mm 19,5 km/h (3 Bft) W 259 ° 0 min 0,000 mm 2,1 UV-I 132 W/m² 11,0 °C 15,4 °C 37,0 km/h (5 Bft)
30.09.2019 14:01 15,3 °C 75 % 1011,4 hPa 0,0 mm 21,2 km/h (4 Bft) W 265 ° 0 min 0,279 mm 2,3 UV-I 148 W/m² 10,9 °C 15,3 °C 35,4 km/h (5 Bft)
30.09.2019 14:02 15,3 °C 75 % 1011,4 hPa 0,0 mm 15,0 km/h (3 Bft) W 263 ° 0 min 0,000 mm 4,1 UV-I 148 W/m² 10,9 °C 15,3 °C 19,3 km/h (3 Bft)
30.09.2019 14:03 15,4 °C 76 % 1011,4 hPa 0,0 mm 10,6 km/h (2 Bft) W 259 ° 1 min 0,000 mm 4,1 UV-I 694 W/m² 11,2 °C 15,4 °C 14,5 km/h (3 Bft)
30.09.2019 14:04 15,5 °C 77 % 1011,4 hPa 0,0 mm 13,5 km/h (3 Bft) W-NW 290 ° 1 min 0,000 mm 3,8 UV-I 694 W/m² 11,5 °C 15,5 °C 25,7 km/h (4 Bft)
30.09.2019 14:05 15,7 °C 77 % 1011,4 hPa 0,0 mm 6,9 km/h (2 Bft) S 184 ° 1 min 0,000 mm 2,5 UV-I 650 W/m² 11,7 °C 15,7 °C 16,1 km/h (3 Bft)
30.09.2019 14:06 15,7 °C 76 % 1011,4 hPa 0,0 mm 12,9 km/h (3 Bft) W-SW 247 ° 1 min 0,000 mm 4,0 UV-I 645 W/m² 11,5 °C 15,7 °C 27,4 km/h (4 Bft)
30.09.2019 14:07 15,8 °C 74 % 1011,4 hPa 0,0 mm 10,1 km/h (2 Bft) W-SW 252 ° 1 min 0,000 mm 2,1 UV-I 645 W/m² 11,2 °C 15,8 °C 20,9 km/h (4 Bft)
30.09.2019 14:08 15,7 °C 74 % 1011,5 hPa 0,0 mm 14,1 km/h (3 Bft) W 279 ° 0 min 0,000 mm 2,1 UV-I 144 W/m² 11,1 °C 15,7 °C 19,3 km/h (3 Bft)
30.09.2019 14:09 15,6 °C 74 % 1011,4 hPa 0,0 mm 11,2 km/h (2 Bft) W-SW 239 ° 0 min 0,000 mm 2,1 UV-I 144 W/m² 11,0 °C 15,6 °C 24,1 km/h (4 Bft)
30.09.2019 14:10 15,6 °C 74 % 1011,5 hPa 0,0 mm 7,3 km/h (2 Bft) W-SW 245 ° 0 min 0,000 mm 3,9 UV-I 144 W/m² 11,0 °C 15,6 °C 14,5 km/h (3 Bft)
30.09.2019 14:11 15,6 °C 75 % 1011,5 hPa 0,0 mm 8,1 km/h (2 Bft) W-NW 290 ° 0 min 0,000 mm 3,9 UV-I 151 W/m² 11,2 °C 15,6 °C 12,9 km/h (3 Bft)
30.09.2019 14:12 15,6 °C 76 % 1011,4 hPa 0,0 mm 4,7 km/h (1 Bft) W-NW 293 ° 0 min 0,000 mm 4,0 UV-I 151 W/m² 11,4 °C 15,6 °C 11,3 km/h (2 Bft)
30.09.2019 14:13 15,7 °C 75 % 1011,5 hPa 0,0 mm 9,1 km/h (2 Bft) W 281 ° 0 min 0,000 mm 2,2 UV-I 151 W/m² 11,3 °C 15,7 °C 14,5 km/h (3 Bft)
30.09.2019 14:14 15,7 °C 75 % 1011,5 hPa 0,0 mm 11,5 km/h (2 Bft) W-SW 250 ° 0 min 0,000 mm 2,1 UV-I 216 W/m² 11,3 °C 15,7 °C 17,7 km/h (3 Bft)
30.09.2019 14:15 15,7 °C 74 % 1011,5 hPa 0,0 mm 15,9 km/h (3 Bft) NW 304 ° 0 min 0,000 mm 2,4 UV-I 178 W/m² 11,1 °C 15,7 °C 22,5 km/h (4 Bft)
30.09.2019 14:16 15,7 °C 74 % 1011,5 hPa 0,0 mm 14,0 km/h (3 Bft) W-SW 253 ° 0 min 0,000 mm 3,8 UV-I 178 W/m² 11,1 °C 15,7 °C 20,9 km/h (4 Bft)
30.09.2019 14:17 15,8 °C 74 % 1011,5 hPa 0,0 mm 15,3 km/h (3 Bft) W-NW 297 ° 1 min 0,000 mm 3,9 UV-I 664 W/m² 11,2 °C 15,8 °C 24,1 km/h (4 Bft)
30.09.2019 14:18 15,8 °C 73 % 1011,6 hPa 0,0 mm 21,1 km/h (4 Bft) W 267 ° 1 min 0,000 mm 3,9 UV-I 666 W/m² 11,0 °C 15,8 °C 29,0 km/h (5 Bft)
30.09.2019 14:19 15,8 °C 73 % 1011,5 hPa 0,0 mm 22,5 km/h (4 Bft) W 277 ° 1 min 0,000 mm 2,4 UV-I 666 W/m² 11,0 °C 15,8 °C 30,6 km/h (5 Bft)
30.09.2019 14:20 15,9 °C 73 % 1011,6 hPa 0,0 mm 17,0 km/h (3 Bft) W-NW 284 ° 1 min 0,000 mm 4,0 UV-I 666 W/m² 11,1 °C 15,9 °C 25,7 km/h (4 Bft)
30.09.2019 14:21 15,9 °C 73 % 1011,6 hPa 0,0 mm 16,4 km/h (3 Bft) W-NW 292 ° 1 min 0,000 mm 3,4 UV-I 635 W/m² 11,1 °C 15,9 °C 25,7 km/h (4 Bft)
30.09.2019 14:22 15,9 °C 73 % 1011,6 hPa 0,0 mm 12,0 km/h (2 Bft) N-NW 335 ° 1 min 0,000 mm 2,2 UV-I 643 W/m² 11,1 °C 15,9 °C 19,3 km/h (3 Bft)
30.09.2019 14:23 16,0 °C 72 % 1011,6 hPa 0,0 mm 12,3 km/h (3 Bft) W-NW 300 ° 1 min 0,000 mm 3,8 UV-I 621 W/m² 11,0 °C 16,0 °C 20,9 km/h (4 Bft)
30.09.2019 14:24 16,0 °C 72 % 1011,5 hPa 0,0 mm 11,7 km/h (2 Bft) W 262 ° 1 min 0,000 mm 2,8 UV-I 621 W/m² 11,0 °C 16,0 °C 20,9 km/h (4 Bft)
30.09.2019 14:25 16,0 °C 72 % 1011,6 hPa 0,0 mm 15,9 km/h (3 Bft) SW 226 ° 0 min 0,000 mm 3,8 UV-I 174 W/m² 11,0 °C 16,0 °C 30,6 km/h (5 Bft)
30.09.2019 14:26 16,0 °C 72 % 1011,6 hPa 0,0 mm 10,9 km/h (2 Bft) W 259 ° 0 min 0,000 mm 3,0 UV-I 174 W/m² 11,0 °C 16,0 °C 19,3 km/h (3 Bft)
30.09.2019 14:27 15,9 °C 72 % 1011,6 hPa 0,0 mm 9,7 km/h (2 Bft) W 259 ° 0 min 0,000 mm 2,6 UV-I 297 W/m² 10,9 °C 15,9 °C 14,5 km/h (3 Bft)
30.09.2019 14:28 15,9 °C 73 % 1011,7 hPa 0,0 mm 9,7 km/h (2 Bft) W-SW 257 ° 0 min 0,000 mm 3,7 UV-I 297 W/m² 11,1 °C 15,9 °C 17,7 km/h (3 Bft)
30.09.2019 14:29 16,0 °C 73 % 1011,7 hPa 0,0 mm 17,2 km/h (3 Bft) W-SW 257 ° 1 min 0,000 mm 3,6 UV-I 629 W/m² 11,2 °C 16,0 °C 27,4 km/h (4 Bft)
30.09.2019 14:30 16,0 °C 71 % 1011,7 hPa 0,0 mm 19,2 km/h (3 Bft) W 272 ° 1 min 0,000 mm 3,3 UV-I 629 W/m² 10,7 °C 16,0 °C 25,7 km/h (4 Bft)
30.09.2019 14:31 15,9 °C 71 % 1011,6 hPa 0,0 mm 12,0 km/h (2 Bft) NW 316 ° 1 min 0,000 mm 3,8 UV-I 629 W/m² 10,6 °C 15,9 °C 16,1 km/h (3 Bft)
30.09.2019 14:32 16,0 °C 73 % 1011,6 hPa 0,0 mm 13,6 km/h (3 Bft) W-SW 257 ° 1 min 0,000 mm 2,9 UV-I 629 W/m² 11,2 °C 16,0 °C 24,1 km/h (4 Bft)
30.09.2019 14:33 16,0 °C 72 % 1011,7 hPa 0,0 mm 16,2 km/h (3 Bft) W-NW 288 ° 0 min 0,000 mm 3,6 UV-I 547 W/m² 11,0 °C 16,0 °C 27,4 km/h (4 Bft)
30.09.2019 14:34 16,0 °C 73 % 1011,6 hPa 0,0 mm 9,2 km/h (2 Bft) W-NW 285 ° 0 min 0,000 mm 3,8 UV-I 582 W/m² 11,2 °C 16,0 °C 14,5 km/h (3 Bft)
30.09.2019 14:35 16,1 °C 72 % 1011,6 hPa 0,0 mm 12,6 km/h (3 Bft) NW 314 ° 1 min 0,000 mm 3,5 UV-I 656 W/m² 11,0 °C 16,1 °C 24,1 km/h (4 Bft)
30.09.2019 14:36 16,2 °C 72 % 1011,7 hPa 0,0 mm 10,8 km/h (2 Bft) W-SW 253 ° 1 min 0,000 mm 3,8 UV-I 661 W/m² 11,1 °C 16,2 °C 22,5 km/h (4 Bft)
30.09.2019 14:37 16,3 °C 71 % 1011,7 hPa 0,0 mm 20,9 km/h (4 Bft) W 259 ° 1 min 0,000 mm 3,8 UV-I 647 W/m² 11,0 °C 16,3 °C 30,6 km/h (5 Bft)
30.09.2019 14:38 16,3 °C 73 % 1011,6 hPa 0,0 mm 18,8 km/h (3 Bft) W-SW 252 ° 1 min 0,000 mm 3,8 UV-I 647 W/m² 11,4 °C 16,3 °C 29,0 km/h (5 Bft)
30.09.2019 14:39 16,3 °C 72 % 1011,6 hPa 0,0 mm 14,2 km/h (3 Bft) W 269 ° 1 min 0,000 mm 2,2 UV-I 647 W/m² 11,2 °C 16,3 °C 27,4 km/h (4 Bft)
30.09.2019 14:40 16,2 °C 71 % 1011,5 hPa 0,0 mm 13,6 km/h (3 Bft) W-NW 286 ° 0 min 0,000 mm 2,4 UV-I 216 W/m² 10,9 °C 16,2 °C 20,9 km/h (4 Bft)
30.09.2019 14:41 16,2 °C 71 % 1011,6 hPa 0,0 mm 19,7 km/h (3 Bft) W 276 ° 0 min 0,000 mm 3,5 UV-I 281 W/m² 10,9 °C 16,2 °C 25,7 km/h (4 Bft)
30.09.2019 14:42 16,2 °C 71 % 1011,5 hPa 0,0 mm 20,1 km/h (4 Bft) W 281 ° 0 min 0,000 mm 2,3 UV-I 378 W/m² 10,9 °C 16,2 °C 29,0 km/h (5 Bft)
30.09.2019 14:43 16,1 °C 70 % 1011,6 hPa 0,0 mm 20,5 km/h (4 Bft) W-SW 252 ° 0 min 0,000 mm 2,1 UV-I 378 W/m² 10,6 °C 16,1 °C 35,4 km/h (5 Bft)
30.09.2019 14:44 15,9 °C 70 % 1011,7 hPa 0,0 mm 26,8 km/h (4 Bft) W 278 ° 0 min 0,000 mm 3,5 UV-I 548 W/m² 10,4 °C 15,9 °C 41,8 km/h (6 Bft)
30.09.2019 14:45 15,9 °C 71 % 1011,6 hPa 0,0 mm 14,3 km/h (3 Bft) W 277 ° 0 min 0,000 mm 3,4 UV-I 548 W/m² 10,6 °C 15,9 °C 22,5 km/h (4 Bft)
30.09.2019 14:46 15,9 °C 71 % 1011,6 hPa 0,0 mm 18,6 km/h (3 Bft) W 279 ° 0 min 0,000 mm 2,2 UV-I 548 W/m² 10,6 °C 15,9 °C 25,7 km/h (4 Bft)
30.09.2019 14:47 15,9 °C 71 % 1011,6 hPa 0,0 mm 14,2 km/h (3 Bft) W 272 ° 0 min 0,000 mm 3,2 UV-I 371 W/m² 10,6 °C 15,9 °C 19,3 km/h (3 Bft)
30.09.2019 14:48 15,9 °C 72 % 1011,6 hPa 0,0 mm 9,2 km/h (2 Bft) W 261 ° 0 min 0,000 mm 3,0 UV-I 371 W/m² 10,9 °C 15,9 °C 16,1 km/h (3 Bft)
30.09.2019 14:49 15,8 °C 72 % 1011,6 hPa 0,0 mm 14,8 km/h (3 Bft) W-SW 242 ° 0 min 0,000 mm 1,9 UV-I 186 W/m² 10,8 °C 15,8 °C 20,9 km/h (4 Bft)
30.09.2019 14:50 15,8 °C 72 % 1011,6 hPa 0,0 mm 14,2 km/h (3 Bft) W-NW 288 ° 0 min 0,000 mm 1,9 UV-I 123 W/m² 10,8 °C 15,8 °C 17,7 km/h (3 Bft)
30.09.2019 14:51 15,7 °C 72 % 1011,6 hPa 0,0 mm 13,4 km/h (3 Bft) W 260 ° 0 min 0,000 mm 1,9 UV-I 125 W/m² 10,7 °C 15,7 °C 19,3 km/h (3 Bft)
30.09.2019 14:52 15,7 °C 73 % 1011,7 hPa 0,0 mm 18,1 km/h (3 Bft) W-NW 290 ° 0 min 0,000 mm 1,8 UV-I 127 W/m² 10,9 °C 15,7 °C 24,1 km/h (4 Bft)
30.09.2019 14:53 15,6 °C 72 % 1011,7 hPa 0,0 mm 13,7 km/h (3 Bft) W-SW 239 ° 0 min 0,000 mm 1,9 UV-I 146 W/m² 10,6 °C 15,6 °C 20,9 km/h (4 Bft)
30.09.2019 14:54 15,5 °C 72 % 1011,6 hPa 0,0 mm 19,2 km/h (3 Bft) W-NW 294 ° 0 min 0,000 mm 1,9 UV-I 137 W/m² 10,5 °C 15,5 °C 32,2 km/h (5 Bft)
30.09.2019 14:55 15,5 °C 72 % 1011,7 hPa 0,0 mm 19,4 km/h (3 Bft) SW 229 ° 0 min 0,000 mm 2,3 UV-I 155 W/m² 10,5 °C 15,5 °C 30,6 km/h (5 Bft)
30.09.2019 14:56 15,4 °C 73 % 1011,7 hPa 0,0 mm 16,8 km/h (3 Bft) W 279 ° 0 min 0,000 mm 1,8 UV-I 113 W/m² 10,6 °C 15,4 °C 32,2 km/h (5 Bft)
30.09.2019 14:57 15,4 °C 72 % 1011,7 hPa 0,0 mm 15,1 km/h (3 Bft) W 261 ° 0 min 0,000 mm 3,1 UV-I 113 W/m² 10,4 °C 15,4 °C 22,5 km/h (4 Bft)
30.09.2019 14:58 15,4 °C 72 % 1011,7 hPa 0,0 mm 14,6 km/h (3 Bft) W 273 ° 0 min 0,000 mm 3,3 UV-I 113 W/m² 10,4 °C 15,4 °C 20,9 km/h (4 Bft)
30.09.2019 14:59 15,4 °C 73 % 1011,7 hPa 0,0 mm 8,4 km/h (2 Bft) W-NW 289 ° 0 min 0,000 mm 3,3 UV-I 584 W/m² 10,6 °C 15,4 °C 12,9 km/h (3 Bft)
30.09.2019 15:00 15,6 °C 73 % 1011,7 hPa 0,0 mm 13,3 km/h (3 Bft) W 274 ° 0 min 0,000 mm 3,1 UV-I 584 W/m² 10,8 °C 15,6 °C 19,3 km/h (3 Bft)
30.09.2019 15:01 15,6 °C 73 % 1011,8 hPa 0,0 mm 22,0 km/h (4 Bft) W-NW 285 ° 0 min 0,254 mm 1,9 UV-I 584 W/m² 10,8 °C 15,6 °C 33,8 km/h (5 Bft)
30.09.2019 15:02 15,6 °C 72 % 1011,9 hPa 0,0 mm 19,7 km/h (3 Bft) W-NW 296 ° 0 min 0,000 mm 3,1 UV-I 584 W/m² 10,6 °C 15,6 °C 22,5 km/h (4 Bft)
30.09.2019 15:03 15,7 °C 71 % 1011,8 hPa 0,0 mm 18,2 km/h (3 Bft) W-NW 283 ° 0 min 0,000 mm 1,8 UV-I 584 W/m² 10,5 °C 15,7 °C 25,7 km/h (4 Bft)
30.09.2019 15:04 15,7 °C 71 % 1011,8 hPa 0,0 mm 16,2 km/h (3 Bft) W-NW 294 ° 0 min 0,000 mm 1,8 UV-I 128 W/m² 10,5 °C 15,7 °C 25,7 km/h (4 Bft)
30.09.2019 15:05 15,7 °C 71 % 1011,8 hPa 0,0 mm 16,2 km/h (3 Bft) W 260 ° 0 min 0,000 mm 2,6 UV-I 188 W/m² 10,5 °C 15,7 °C 25,7 km/h (4 Bft)
30.09.2019 15:06 15,6 °C 70 % 1011,9 hPa 0,0 mm 17,5 km/h (3 Bft) W 259 ° 0 min 0,000 mm 2,8 UV-I 188 W/m² 10,1 °C 15,6 °C 27,4 km/h (4 Bft)
30.09.2019 15:07 15,6 °C 71 % 1011,8 hPa 0,0 mm 20,8 km/h (4 Bft) W 279 ° 0 min 0,000 mm 1,8 UV-I 188 W/m² 10,4 °C 15,6 °C 32,2 km/h (5 Bft)
30.09.2019 15:08 15,6 °C 70 % 1011,8 hPa 0,0 mm 17,3 km/h (3 Bft) W-NW 296 ° 0 min 0,000 mm 2,9 UV-I 188 W/m² 10,1 °C 15,6 °C 22,5 km/h (4 Bft)
30.09.2019 15:09 15,6 °C 70 % 1011,8 hPa 0,0 mm 14,6 km/h (3 Bft) W-NW 295 ° 0 min 0,000 mm 2,9 UV-I 492 W/m² 10,1 °C 15,6 °C 20,9 km/h (4 Bft)
30.09.2019 15:10 15,7 °C 70 % 1011,8 hPa 0,0 mm 20,0 km/h (4 Bft) W-SW 255 ° 0 min 0,000 mm 2,8 UV-I 489 W/m² 10,2 °C 15,7 °C 27,4 km/h (4 Bft)
30.09.2019 15:11 15,7 °C 69 % 1011,9 hPa 0,0 mm 11,9 km/h (2 Bft) W-SW 257 ° 0 min 0,000 mm 2,8 UV-I 445 W/m² 10,0 °C 15,7 °C 16,1 km/h (3 Bft)
30.09.2019 15:12 15,8 °C 70 % 1011,8 hPa 0,0 mm 10,6 km/h (2 Bft) W 271 ° 0 min 0,000 mm 2,7 UV-I 441 W/m² 10,3 °C 15,8 °C 14,5 km/h (3 Bft)
30.09.2019 15:13 15,8 °C 70 % 1011,8 hPa 0,0 mm 14,8 km/h (3 Bft) N-NW 327 ° 0 min 0,000 mm 1,8 UV-I 464 W/m² 10,3 °C 15,8 °C 25,7 km/h (4 Bft)
30.09.2019 15:14 15,9 °C 69 % 1011,8 hPa 0,0 mm 15,1 km/h (3 Bft) W-NW 284 ° 0 min 0,000 mm 2,6 UV-I 165 W/m² 10,2 °C 15,9 °C 20,9 km/h (4 Bft)
30.09.2019 15:15 15,9 °C 70 % 1011,8 hPa 0,0 mm 24,5 km/h (4 Bft) W 267 ° 0 min 0,000 mm 2,6 UV-I 165 W/m² 10,4 °C 15,9 °C 32,2 km/h (5 Bft)
30.09.2019 15:16 15,9 °C 68 % 1011,9 hPa 0,0 mm 17,3 km/h (3 Bft) W-SW 250 ° 0 min 0,000 mm 1,9 UV-I 190 W/m² 10,0 °C 15,9 °C 19,3 km/h (3 Bft)
30.09.2019 15:17 15,8 °C 68 % 1011,9 hPa 0,0 mm 11,7 km/h (2 Bft) W 268 ° 0 min 0,000 mm 2,2 UV-I 148 W/m² 9,9 °C 15,8 °C 20,9 km/h (4 Bft)
30.09.2019 15:18 15,8 °C 68 % 1011,9 hPa 0,0 mm 10,1 km/h (2 Bft) W-NW 292 ° 0 min 0,000 mm 2,7 UV-I 148 W/m² 9,9 °C 15,8 °C 19,3 km/h (3 Bft)
30.09.2019 15:19 15,8 °C 68 % 1011,8 hPa 0,0 mm 13,2 km/h (3 Bft) W 273 ° 0 min 0,000 mm 2,0 UV-I 148 W/m² 9,9 °C 15,8 °C 24,1 km/h (4 Bft)
30.09.2019 15:20 15,8 °C 69 % 1011,8 hPa 0,0 mm 20,0 km/h (4 Bft) W-SW 253 ° 0 min 0,000 mm 2,9 UV-I 148 W/m² 10,1 °C 15,8 °C 33,8 km/h (5 Bft)
30.09.2019 15:21 15,8 °C 68 % 1011,8 hPa 0,0 mm 19,3 km/h (3 Bft) W-SW 238 ° 0 min 0,000 mm 2,9 UV-I 499 W/m² 9,9 °C 15,8 °C 24,1 km/h (4 Bft)
30.09.2019 15:22 15,7 °C 68 % 1011,7 hPa 0,0 mm 21,9 km/h (4 Bft) W 273 ° 0 min 0,000 mm 2,8 UV-I 494 W/m² 9,8 °C 15,7 °C 30,6 km/h (5 Bft)
30.09.2019 15:23 15,8 °C 69 % 1011,8 hPa 0,0 mm 21,8 km/h (4 Bft) W-SW 250 ° 0 min 0,000 mm 2,8 UV-I 492 W/m² 10,1 °C 15,8 °C 37,0 km/h (5 Bft)
30.09.2019 15:24 15,8 °C 69 % 1011,8 hPa 0,0 mm 19,2 km/h (3 Bft) W-NW 292 ° 0 min 0,000 mm 2,8 UV-I 501 W/m² 10,1 °C 15,8 °C 25,7 km/h (4 Bft)
30.09.2019 15:25 15,8 °C 68 % 1011,8 hPa 0,0 mm 19,2 km/h (3 Bft) W 280 ° 0 min 0,000 mm 2,8 UV-I 473 W/m² 9,9 °C 15,8 °C 24,1 km/h (4 Bft)
30.09.2019 15:26 15,8 °C 67 % 1011,7 hPa 0,0 mm 16,2 km/h (3 Bft) NW 325 ° 0 min 0,000 mm 2,8 UV-I 506 W/m² 9,7 °C 15,8 °C 30,6 km/h (5 Bft)
30.09.2019 15:27 15,9 °C 68 % 1011,7 hPa 0,0 mm 10,6 km/h (2 Bft) W-NW 284 ° 0 min 0,000 mm 2,8 UV-I 489 W/m² 10,0 °C 15,9 °C 16,1 km/h (3 Bft)
30.09.2019 15:28 15,9 °C 68 % 1011,8 hPa 0,0 mm 10,6 km/h (2 Bft) W 271 ° 0 min 0,000 mm 2,7 UV-I 480 W/m² 10,0 °C 15,9 °C 17,7 km/h (3 Bft)
30.09.2019 15:29 16,0 °C 67 % 1011,8 hPa 0,0 mm 20,4 km/h (4 Bft) W-SW 246 ° 0 min 0,000 mm 2,8 UV-I 489 W/m² 9,9 °C 16,0 °C 29,0 km/h (5 Bft)
30.09.2019 15:30 16,0 °C 68 % 1011,8 hPa 0,0 mm 17,9 km/h (3 Bft) W-NW 292 ° 0 min 0,000 mm 2,7 UV-I 471 W/m² 10,1 °C 16,0 °C 27,4 km/h (4 Bft)
30.09.2019 15:31 16,0 °C 68 % 1011,7 hPa 0,0 mm 14,8 km/h (3 Bft) NW 315 ° 0 min 0,000 mm 2,7 UV-I 483 W/m² 10,1 °C 16,0 °C 20,9 km/h (4 Bft)
30.09.2019 15:32 16,0 °C 68 % 1011,7 hPa 0,0 mm 10,3 km/h (2 Bft) W-NW 294 ° 0 min 0,000 mm 2,5 UV-I 483 W/m² 10,1 °C 16,0 °C 14,5 km/h (3 Bft)
30.09.2019 15:33 16,1 °C 69 % 1011,6 hPa 0,0 mm 9,0 km/h (2 Bft) W-NW 296 ° 0 min 0,000 mm 2,6 UV-I 483 W/m² 10,4 °C 16,1 °C 14,5 km/h (3 Bft)
30.09.2019 15:34 16,1 °C 68 % 1011,6 hPa 0,0 mm 13,0 km/h (3 Bft) NW 304 ° 0 min 0,000 mm 2,6 UV-I 461 W/m² 10,2 °C 16,1 °C 16,1 km/h (3 Bft)
30.09.2019 15:35 16,1 °C 68 % 1011,6 hPa 0,0 mm 9,5 km/h (2 Bft) W-SW 254 ° 0 min 0,000 mm 2,5 UV-I 445 W/m² 10,2 °C 16,1 °C 17,7 km/h (3 Bft)
30.09.2019 15:36 16,1 °C 69 % 1011,7 hPa 0,0 mm 7,4 km/h (2 Bft) W 275 ° 0 min 0,000 mm 2,5 UV-I 439 W/m² 10,4 °C 16,1 °C 11,3 km/h (2 Bft)
30.09.2019 15:37 16,1 °C 69 % 1011,7 hPa 0,0 mm 10,6 km/h (2 Bft) W-NW 292 ° 0 min 0,000 mm 2,5 UV-I 436 W/m² 10,4 °C 16,1 °C 20,9 km/h (4 Bft)
30.09.2019 15:38 16,1 °C 68 % 1011,7 hPa 0,2 mm 12,2 km/h (2 Bft) N-NW 347 ° 0 min 0,000 mm 2,5 UV-I 420 W/m² 10,2 °C 16,1 °C 24,1 km/h (4 Bft)
30.09.2019 15:39 16,0 °C 68 % 1011,5 hPa 0,0 mm 18,4 km/h (3 Bft) W-SW 257 ° 0 min 0,000 mm 2,4 UV-I 420 W/m² 10,1 °C 16,0 °C 22,5 km/h (4 Bft)
30.09.2019 15:40 16,0 °C 69 % 1011,7 hPa 0,0 mm 15,0 km/h (3 Bft) NW 323 ° 0 min 0,000 mm 2,4 UV-I 404 W/m² 10,3 °C 16,0 °C 22,5 km/h (4 Bft)
30.09.2019 15:41 16,0 °C 68 % 1011,7 hPa 0,0 mm 12,7 km/h (3 Bft) W 259 ° 0 min 0,000 mm 2,3 UV-I 404 W/m² 10,1 °C 16,0 °C 20,9 km/h (4 Bft)
30.09.2019 15:42 16,0 °C 68 % 1011,6 hPa 0,0 mm 9,5 km/h (2 Bft) W-NW 299 ° 0 min 0,000 mm 2,4 UV-I 432 W/m² 10,1 °C 16,0 °C 16,1 km/h (3 Bft)
30.09.2019 15:43 16,1 °C 69 % 1011,7 hPa 0,0 mm 8,8 km/h (2 Bft) W-NW 301 ° 0 min 0,000 mm 2,4 UV-I 417 W/m² 10,4 °C 16,1 °C 14,5 km/h (3 Bft)
30.09.2019 15:44 16,1 °C 68 % 1011,6 hPa 0,0 mm 11,3 km/h (2 Bft) W 276 ° 0 min 0,000 mm 2,4 UV-I 399 W/m² 10,2 °C 16,1 °C 32,2 km/h (5 Bft)
30.09.2019 15:45 16,1 °C 68 % 1011,6 hPa 0,0 mm 20,3 km/h (4 Bft) NW 311 ° 0 min 0,000 mm 2,3 UV-I 392 W/m² 10,2 °C 16,1 °C 29,0 km/h (5 Bft)
30.09.2019 15:46 16,1 °C 67 % 1011,6 hPa 0,0 mm 8,4 km/h (2 Bft) W-SW 254 ° 0 min 0,000 mm 2,3 UV-I 397 W/m² 10,0 °C 16,1 °C 11,3 km/h (2 Bft)
30.09.2019 15:47 16,1 °C 67 % 1011,8 hPa 0,0 mm 19,2 km/h (3 Bft) W 260 ° 0 min 0,000 mm 2,3 UV-I 385 W/m² 10,0 °C 16,1 °C 27,4 km/h (4 Bft)
30.09.2019 15:48 16,1 °C 67 % 1011,7 hPa 0,0 mm 22,2 km/h (4 Bft) W 268 ° 0 min 0,000 mm 2,3 UV-I 394 W/m² 10,0 °C 16,1 °C 33,8 km/h (5 Bft)
30.09.2019 15:49 16,1 °C 67 % 1011,8 hPa 0,0 mm 13,6 km/h (3 Bft) W 274 ° 0 min 0,000 mm 2,3 UV-I 422 W/m² 10,0 °C 16,1 °C 19,3 km/h (3 Bft)
30.09.2019 15:50 16,1 °C 67 % 1011,8 hPa 0,0 mm 16,4 km/h (3 Bft) W-SW 255 ° 0 min 0,000 mm 2,2 UV-I 397 W/m² 10,0 °C 16,1 °C 30,6 km/h (5 Bft)
30.09.2019 15:51 16,0 °C 67 % 1011,7 hPa 0,0 mm 11,6 km/h (2 Bft) W-NW 288 ° 0 min 0,000 mm 2,2 UV-I 385 W/m² 9,9 °C 16,0 °C 16,1 km/h (3 Bft)
30.09.2019 15:52 16,0 °C 68 % 1011,8 hPa 0,0 mm 19,0 km/h (3 Bft) W-SW 257 ° 0 min 0,000 mm 2,2 UV-I 334 W/m² 10,1 °C 16,0 °C 32,2 km/h (5 Bft)
30.09.2019 15:53 16,0 °C 68 % 1011,8 hPa 0,0 mm 16,9 km/h (3 Bft) W-NW 288 ° 0 min 0,000 mm 2,2 UV-I 406 W/m² 10,1 °C 16,0 °C 20,9 km/h (4 Bft)
30.09.2019 15:54 15,9 °C 68 % 1011,9 hPa 0,0 mm 22,1 km/h (4 Bft) SW 226 ° 0 min 0,000 mm 2,2 UV-I 385 W/m² 10,0 °C 15,9 °C 35,4 km/h (5 Bft)
30.09.2019 15:55 15,9 °C 67 % 1011,9 hPa 0,0 mm 26,6 km/h (4 Bft) W-SW 251 ° 0 min 0,000 mm 2,2 UV-I 399 W/m² 9,8 °C 15,9 °C 33,8 km/h (5 Bft)
30.09.2019 15:56 15,9 °C 68 % 1011,8 hPa 0,0 mm 17,7 km/h (3 Bft) W 261 ° 0 min 0,000 mm 2,2 UV-I 388 W/m² 10,0 °C 15,9 °C 27,4 km/h (4 Bft)
30.09.2019 15:57 15,9 °C 68 % 1011,8 hPa 0,0 mm 14,4 km/h (3 Bft) W 263 ° 0 min 0,000 mm 2,1 UV-I 350 W/m² 10,0 °C 15,9 °C 20,9 km/h (4 Bft)
30.09.2019 15:58 15,9 °C 67 % 1011,9 hPa 0,0 mm 19,4 km/h (3 Bft) W-SW 242 ° 0 min 0,000 mm 2,1 UV-I 374 W/m² 9,8 °C 15,9 °C 35,4 km/h (5 Bft)
30.09.2019 15:59 15,8 °C 67 % 1011,8 hPa 0,0 mm 13,2 km/h (3 Bft) W 265 ° 0 min 0,000 mm 2,1 UV-I 380 W/m² 9,7 °C 15,8 °C 19,3 km/h (3 Bft)
30.09.2019 16:00 15,9 °C 67 % 1011,8 hPa 0,0 mm 15,8 km/h (3 Bft) W 259 ° 0 min 0,000 mm 2,2 UV-I 387 W/m² 9,8 °C 15,9 °C 19,3 km/h (3 Bft)
30.09.2019 16:01 15,9 °C 68 % 1011,9 hPa 0,0 mm 10,6 km/h (2 Bft) S-SW 194 ° 0 min 0,254 mm 2,2 UV-I 397 W/m² 10,0 °C 15,9 °C 16,1 km/h (3 Bft)
30.09.2019 16:02 15,9 °C 69 % 1011,9 hPa 0,0 mm 10,3 km/h (2 Bft) W-NW 299 ° 0 min 0,000 mm 2,2 UV-I 424 W/m² 10,2 °C 15,9 °C 14,5 km/h (3 Bft)
30.09.2019 16:04 15,9 °C 68 % 1011,9 hPa 0,0 mm 15,3 km/h (3 Bft) W 277 ° 0 min 0,000 mm 2,1 UV-I 422 W/m² 10,0 °C 15,9 °C 20,9 km/h (4 Bft)
30.09.2019 16:05 16,0 °C 68 % 1011,9 hPa 0,0 mm 11,6 km/h (2 Bft) W 259 ° 0 min 0,000 mm 2,1 UV-I 427 W/m² 10,1 °C 16,0 °C 14,5 km/h (3 Bft)
30.09.2019 16:06 16,0 °C 68 % 1011,9 hPa 0,0 mm 10,3 km/h (2 Bft) W 273 ° 0 min 0,000 mm 2,1 UV-I 434 W/m² 10,1 °C 16,0 °C 17,7 km/h (3 Bft)
30.09.2019 16:07 16,1 °C 67 % 1012,0 hPa 0,0 mm 15,3 km/h (3 Bft) S-SW 213 ° 0 min 0,000 mm 1,8 UV-I 434 W/m² 10,0 °C 16,1 °C 19,3 km/h (3 Bft)
30.09.2019 16:08 16,0 °C 68 % 1011,9 hPa 0,0 mm 10,7 km/h (2 Bft) W 271 ° 0 min 0,000 mm 1,5 UV-I 156 W/m² 10,1 °C 16,0 °C 14,5 km/h (3 Bft)
30.09.2019 16:09 16,1 °C 69 % 1012,0 hPa 0,0 mm 14,6 km/h (3 Bft) W-NW 295 ° 0 min 0,000 mm 1,5 UV-I 156 W/m² 10,4 °C 16,1 °C 24,1 km/h (4 Bft)
30.09.2019 16:10 16,1 °C 69 % 1011,9 hPa 0,0 mm 11,9 km/h (2 Bft) S-SW 212 ° 0 min 0,000 mm 1,6 UV-I 156 W/m² 10,4 °C 16,1 °C 19,3 km/h (3 Bft)
30.09.2019 16:11 16,0 °C 68 % 1011,9 hPa 0,0 mm 10,8 km/h (2 Bft) SW 230 ° 0 min 0,000 mm 1,8 UV-I 373 W/m² 10,1 °C 16,0 °C 16,1 km/h (3 Bft)
30.09.2019 16:12 15,9 °C 68 % 1011,9 hPa 0,0 mm 16,2 km/h (3 Bft) W 267 ° 0 min 0,000 mm 2,0 UV-I 373 W/m² 10,0 °C 15,9 °C 30,6 km/h (5 Bft)
30.09.2019 16:13 15,9 °C 69 % 1011,9 hPa 0,0 mm 12,5 km/h (3 Bft) W 270 ° 0 min 0,000 mm 1,7 UV-I 216 W/m² 10,2 °C 15,9 °C 22,5 km/h (4 Bft)
30.09.2019 16:14 15,9 °C 70 % 1011,9 hPa 0,0 mm 19,2 km/h (3 Bft) W-SW 249 ° 0 min 0,000 mm 1,6 UV-I 216 W/m² 10,4 °C 15,9 °C 22,5 km/h (4 Bft)
30.09.2019 16:15 15,8 °C 69 % 1011,9 hPa 0,0 mm 7,3 km/h (2 Bft) NW 310 ° 0 min 0,000 mm 1,7 UV-I 278 W/m² 10,1 °C 15,8 °C 12,9 km/h (3 Bft)
30.09.2019 16:16 15,8 °C 69 % 1011,9 hPa 0,0 mm 4,8 km/h (1 Bft) W 273 ° 0 min 0,000 mm 1,5 UV-I 195 W/m² 10,1 °C 15,8 °C 9,7 km/h (2 Bft)
30.09.2019 16:17 15,8 °C 69 % 1011,9 hPa 0,0 mm 9,8 km/h (2 Bft) W 276 ° 0 min 0,000 mm 1,6 UV-I 109 W/m² 10,1 °C 15,8 °C 12,9 km/h (3 Bft)
30.09.2019 16:18 15,8 °C 69 % 1011,9 hPa 0,0 mm 9,1 km/h (2 Bft) W 281 ° 0 min 0,000 mm 1,4 UV-I 160 W/m² 10,1 °C 15,8 °C 16,1 km/h (3 Bft)
30.09.2019 16:19 15,8 °C 69 % 1011,9 hPa 0,0 mm 12,2 km/h (2 Bft) W-NW 295 ° 0 min 0,000 mm 1,4 UV-I 155 W/m² 10,1 °C 15,8 °C 19,3 km/h (3 Bft)
30.09.2019 16:20 15,8 °C 70 % 1012,0 hPa 0,0 mm 10,8 km/h (2 Bft) NW 306 ° 0 min 0,000 mm 1,4 UV-I 148 W/m² 10,3 °C 15,8 °C 16,1 km/h (3 Bft)
30.09.2019 16:21 15,8 °C 69 % 1012,0 hPa 0,0 mm 21,1 km/h (4 Bft) W-NW 290 ° 0 min 0,000 mm 1,4 UV-I 146 W/m² 10,1 °C 15,8 °C 29,0 km/h (5 Bft)
30.09.2019 16:22 15,8 °C 68 % 1012,0 hPa 0,0 mm 21,7 km/h (4 Bft) W-NW 284 ° 0 min 0,000 mm 1,4 UV-I 151 W/m² 9,9 °C 15,8 °C 30,6 km/h (5 Bft)
30.09.2019 16:23 15,8 °C 68 % 1012,0 hPa 0,0 mm 18,7 km/h (3 Bft) W-NW 288 ° 0 min 0,000 mm 1,4 UV-I 148 W/m² 9,9 °C 15,8 °C 25,7 km/h (4 Bft)
30.09.2019 16:24 15,8 °C 69 % 1011,9 hPa 0,0 mm 19,4 km/h (3 Bft) W 263 ° 0 min 0,000 mm 1,3 UV-I 209 W/m² 10,1 °C 15,8 °C 27,4 km/h (4 Bft)
30.09.2019 16:25 15,8 °C 69 % 1011,9 hPa 0,0 mm 12,4 km/h (3 Bft) W 281 ° 0 min 0,000 mm 1,4 UV-I 149 W/m² 10,1 °C 15,8 °C 19,3 km/h (3 Bft)
30.09.2019 16:26 15,9 °C 69 % 1011,9 hPa 0,0 mm 14,2 km/h (3 Bft) W 268 ° 0 min 0,000 mm 1,5 UV-I 158 W/m² 10,2 °C 15,9 °C 20,9 km/h (4 Bft)
30.09.2019 16:27 15,9 °C 69 % 1012,0 hPa 0,0 mm 19,0 km/h (3 Bft) W 276 ° 0 min 0,000 mm 1,4 UV-I 199 W/m² 10,2 °C 15,9 °C 33,8 km/h (5 Bft)
30.09.2019 16:28 15,9 °C 69 % 1011,9 hPa 0,0 mm 17,3 km/h (3 Bft) W-NW 283 ° 0 min 0,000 mm 1,4 UV-I 290 W/m² 10,2 °C 15,9 °C 22,5 km/h (4 Bft)
30.09.2019 16:29 15,9 °C 69 % 1011,9 hPa 0,0 mm 15,4 km/h (3 Bft) SW 233 ° 0 min 0,000 mm 1,4 UV-I 204 W/m² 10,2 °C 15,9 °C 24,1 km/h (4 Bft)
30.09.2019 16:30 15,9 °C 69 % 1012,1 hPa 0,0 mm 16,6 km/h (3 Bft) W-NW 285 ° 0 min 0,000 mm 1,4 UV-I 188 W/m² 10,2 °C 15,9 °C 24,1 km/h (4 Bft)
30.09.2019 16:31 15,8 °C 69 % 1012,1 hPa 0,0 mm 12,8 km/h (3 Bft) W-NW 301 ° 0 min 0,000 mm 1,3 UV-I 176 W/m² 10,1 °C 15,8 °C 20,9 km/h (4 Bft)
30.09.2019 16:32 15,9 °C 69 % 1012,1 hPa 0,0 mm 21,7 km/h (4 Bft) W-NW 300 ° 0 min 0,000 mm 1,3 UV-I 185 W/m² 10,2 °C 15,9 °C 32,2 km/h (5 Bft)
30.09.2019 16:33 15,9 °C 69 % 1012,1 hPa 0,0 mm 16,9 km/h (3 Bft) W 270 ° 0 min 0,000 mm 1,2 UV-I 172 W/m² 10,2 °C 15,9 °C 27,4 km/h (4 Bft)
30.09.2019 16:34 15,9 °C 70 % 1012,1 hPa 0,0 mm 16,5 km/h (3 Bft) W-SW 248 ° 0 min 0,000 mm 1,3 UV-I 153 W/m² 10,4 °C 15,9 °C 25,7 km/h (4 Bft)
30.09.2019 16:35 15,9 °C 69 % 1012,2 hPa 0,0 mm 21,5 km/h (4 Bft) W 261 ° 0 min 0,000 mm 1,2 UV-I 114 W/m² 10,2 °C 15,9 °C 32,2 km/h (5 Bft)
30.09.2019 16:36 15,8 °C 68 % 1012,1 hPa 0,0 mm 16,4 km/h (3 Bft) W-NW 283 ° 0 min 0,000 mm 1,1 UV-I 97 W/m² 9,9 °C 15,8 °C 22,5 km/h (4 Bft)
30.09.2019 16:37 15,9 °C 69 % 1012,0 hPa 0,0 mm 17,4 km/h (3 Bft) W 275 ° 0 min 0,000 mm 1,2 UV-I 137 W/m² 10,2 °C 15,9 °C 25,7 km/h (4 Bft)
30.09.2019 16:38 15,9 °C 69 % 1012,1 hPa 0,0 mm 14,3 km/h (3 Bft) W-SW 238 ° 0 min 0,000 mm 1,2 UV-I 137 W/m² 10,2 °C 15,9 °C 19,3 km/h (3 Bft)
30.09.2019 16:39 15,8 °C 70 % 1012,1 hPa 0,0 mm 8,2 km/h (2 Bft) S-SW 202 ° 0 min 0,000 mm 1,2 UV-I 151 W/m² 10,3 °C 15,8 °C 14,5 km/h (3 Bft)
30.09.2019 16:40 15,8 °C 70 % 1012,1 hPa 0,0 mm 8,4 km/h (2 Bft) W 281 ° 0 min 0,000 mm 1,1 UV-I 156 W/m² 10,3 °C 15,8 °C 12,9 km/h (3 Bft)
30.09.2019 16:41 15,8 °C 70 % 1012,1 hPa 0,0 mm 5,0 km/h (1 Bft) NW 308 ° 0 min 0,000 mm 1,1 UV-I 130 W/m² 10,3 °C 15,8 °C 12,9 km/h (3 Bft)
30.09.2019 16:42 15,9 °C 70 % 1012,1 hPa 0,0 mm 13,1 km/h (3 Bft) W-NW 296 ° 0 min 0,000 mm 1,1 UV-I 209 W/m² 10,4 °C 15,9 °C 19,3 km/h (3 Bft)
30.09.2019 16:43 15,9 °C 70 % 1012,2 hPa 0,0 mm 15,0 km/h (3 Bft) S-SW 194 ° 0 min 0,000 mm 1,2 UV-I 172 W/m² 10,4 °C 15,9 °C 22,5 km/h (4 Bft)
30.09.2019 16:44 15,9 °C 69 % 1012,1 hPa 0,0 mm 7,9 km/h (2 Bft) NW 304 ° 0 min 0,000 mm 1,1 UV-I 111 W/m² 10,2 °C 15,9 °C 16,1 km/h (3 Bft)
30.09.2019 16:45 15,9 °C 70 % 1012,1 hPa 0,0 mm 6,3 km/h (2 Bft) N-NW 330 ° 0 min 0,000 mm 1,1 UV-I 111 W/m² 10,4 °C 15,9 °C 11,3 km/h (2 Bft)
30.09.2019 16:46 15,9 °C 70 % 1012,1 hPa 0,0 mm 8,1 km/h (2 Bft) S-SW 209 ° 0 min 0,000 mm 1,1 UV-I 248 W/m² 10,4 °C 15,9 °C 12,9 km/h (3 Bft)
30.09.2019 16:47 15,9 °C 70 % 1012,1 hPa 0,0 mm 5,9 km/h (2 Bft) N-NW 330 ° 0 min 0,000 mm 1,1 UV-I 190 W/m² 10,4 °C 15,9 °C 14,5 km/h (3 Bft)
30.09.2019 16:48 15,8 °C 70 % 1012,1 hPa 0,0 mm 11,3 km/h (2 Bft) W-SW 257 ° 0 min 0,000 mm 1,1 UV-I 153 W/m² 10,3 °C 15,8 °C 22,5 km/h (4 Bft)
30.09.2019 16:49 15,8 °C 70 % 1012,0 hPa 0,0 mm 10,0 km/h (2 Bft) W-SW 253 ° 0 min 0,000 mm 1,2 UV-I 225 W/m² 10,3 °C 15,8 °C 16,1 km/h (3 Bft)
30.09.2019 16:50 15,7 °C 70 % 1012,1 hPa 0,0 mm 7,8 km/h (2 Bft) SW 227 ° 0 min 0,000 mm 1,1 UV-I 165 W/m² 10,2 °C 15,7 °C 14,5 km/h (3 Bft)
30.09.2019 16:51 15,7 °C 70 % 1012,0 hPa 0,0 mm 13,3 km/h (3 Bft) W 260 ° 0 min 0,000 mm 1,1 UV-I 141 W/m² 10,2 °C 15,7 °C 29,0 km/h (5 Bft)
30.09.2019 16:52 15,7 °C 71 % 1012,0 hPa 0,0 mm 16,1 km/h (3 Bft) W-NW 289 ° 0 min 0,000 mm 1,1 UV-I 100 W/m² 10,5 °C 15,7 °C 20,9 km/h (4 Bft)
30.09.2019 16:53 15,7 °C 70 % 1012,0 hPa 0,0 mm 13,2 km/h (3 Bft) NW 313 ° 0 min 0,000 mm 1,0 UV-I 125 W/m² 10,2 °C 15,7 °C 17,7 km/h (3 Bft)
30.09.2019 16:54 15,7 °C 70 % 1012,1 hPa 0,0 mm 12,3 km/h (3 Bft) W-SW 252 ° 0 min 0,000 mm 1,1 UV-I 118 W/m² 10,2 °C 15,7 °C 17,7 km/h (3 Bft)
30.09.2019 16:55 15,7 °C 70 % 1012,1 hPa 0,0 mm 10,5 km/h (2 Bft) W-SW 237 ° 0 min 0,000 mm 1,0 UV-I 125 W/m² 10,2 °C 15,7 °C 16,1 km/h (3 Bft)
30.09.2019 16:56 15,7 °C 70 % 1012,0 hPa 0,0 mm 9,7 km/h (2 Bft) W 268 ° 0 min 0,000 mm 1,0 UV-I 97 W/m² 10,2 °C 15,7 °C 20,9 km/h (4 Bft)
30.09.2019 16:57 15,7 °C 70 % 1012,1 hPa 0,0 mm 15,6 km/h (3 Bft) W 269 ° 0 min 0,000 mm 0,9 UV-I 97 W/m² 10,2 °C 15,7 °C 20,9 km/h (4 Bft)
30.09.2019 16:58 15,7 °C 70 % 1012,1 hPa 0,0 mm 10,5 km/h (2 Bft) W-SW 257 ° 0 min 0,000 mm 0,9 UV-I 102 W/m² 10,2 °C 15,7 °C 17,7 km/h (3 Bft)
30.09.2019 16:59 15,7 °C 70 % 1012,1 hPa 0,0 mm 15,8 km/h (3 Bft) W 278 ° 0 min 0,000 mm 0,9 UV-I 113 W/m² 10,2 °C 15,7 °C 20,9 km/h (4 Bft)
30.09.2019 17:00 15,7 °C 70 % 1012,1 hPa 0,0 mm 17,2 km/h (3 Bft) W-NW 286 ° 0 min 0,000 mm 0,9 UV-I 111 W/m² 10,2 °C 15,7 °C 24,1 km/h (4 Bft)
30.09.2019 17:01 15,7 °C 70 % 1012,0 hPa 0,0 mm 9,9 km/h (2 Bft) W 261 ° 0 min 0,153 mm 0,9 UV-I 111 W/m² 10,2 °C 15,7 °C 17,7 km/h (3 Bft)
30.09.2019 17:02 15,7 °C 70 % 1012,0 hPa 0,0 mm 17,4 km/h (3 Bft) W 281 ° 0 min 0,000 mm 0,9 UV-I 109 W/m² 10,2 °C 15,7 °C 24,1 km/h (4 Bft)
30.09.2019 17:03 15,7 °C 70 % 1012,1 hPa 0,0 mm 8,2 km/h (2 Bft) W-SW 257 ° 0 min 0,000 mm 0,9 UV-I 98 W/m² 10,2 °C 15,7 °C 14,5 km/h (3 Bft)
30.09.2019 17:04 15,6 °C 70 % 1012,1 hPa 0,0 mm 15,4 km/h (3 Bft) W 277 ° 0 min 0,000 mm 0,9 UV-I 95 W/m² 10,1 °C 15,6 °C 22,5 km/h (4 Bft)
30.09.2019 17:05 15,7 °C 70 % 1012,1 hPa 0,0 mm 11,7 km/h (2 Bft) W-SW 242 ° 0 min 0,000 mm 0,8 UV-I 95 W/m² 10,2 °C 15,7 °C 17,7 km/h (3 Bft)
30.09.2019 17:06 15,6 °C 70 % 1012,1 hPa 0,0 mm 12,7 km/h (3 Bft) W-NW 303 ° 0 min 0,000 mm 0,8 UV-I 95 W/m² 10,1 °C 15,6 °C 17,7 km/h (3 Bft)
30.09.2019 17:07 15,6 °C 71 % 1012,1 hPa 0,0 mm 7,7 km/h (2 Bft) W-NW 297 ° 0 min 0,000 mm 0,8 UV-I 97 W/m² 10,4 °C 15,6 °C 12,9 km/h (3 Bft)
30.09.2019 17:08 15,6 °C 70 % 1012,1 hPa 0,0 mm 6,6 km/h (2 Bft) W 277 ° 0 min 0,000 mm 0,8 UV-I 95 W/m² 10,1 °C 15,6 °C 14,5 km/h (3 Bft)
30.09.2019 17:09 15,6 °C 71 % 1012,0 hPa 0,0 mm 6,8 km/h (2 Bft) W-NW 284 ° 0 min 0,000 mm 0,8 UV-I 86 W/m² 10,4 °C 15,6 °C 14,5 km/h (3 Bft)
30.09.2019 17:10 15,6 °C 71 % 1012,0 hPa 0,0 mm 9,3 km/h (2 Bft) W 271 ° 0 min 0,000 mm 0,8 UV-I 88 W/m² 10,4 °C 15,6 °C 16,1 km/h (3 Bft)
30.09.2019 17:11 15,6 °C 71 % 1012,1 hPa 0,0 mm 14,0 km/h (3 Bft) W 265 ° 0 min 0,000 mm 0,8 UV-I 86 W/m² 10,4 °C 15,6 °C 22,5 km/h (4 Bft)
30.09.2019 17:12 15,6 °C 71 % 1012,0 hPa 0,0 mm 16,3 km/h (3 Bft) W 262 ° 0 min 0,000 mm 0,8 UV-I 90 W/m² 10,4 °C 15,6 °C 27,4 km/h (4 Bft)
30.09.2019 17:13 15,6 °C 71 % 1012,0 hPa 0,0 mm 8,8 km/h (2 Bft) W-NW 287 ° 0 min 0,000 mm 0,8 UV-I 86 W/m² 10,4 °C 15,6 °C 16,1 km/h (3 Bft)
30.09.2019 17:14 15,7 °C 71 % 1012,1 hPa 0,0 mm 8,1 km/h (2 Bft) NW 315 ° 0 min 0,000 mm 0,7 UV-I 86 W/m² 10,5 °C 15,7 °C 12,9 km/h (3 Bft)
30.09.2019 17:15 15,6 °C 71 % 1012,0 hPa 0,0 mm 8,1 km/h (2 Bft) NW 323 ° 0 min 0,000 mm 0,7 UV-I 90 W/m² 10,4 °C 15,6 °C 12,9 km/h (3 Bft)
30.09.2019 17:16 15,6 °C 71 % 1012,1 hPa 0,0 mm 8,3 km/h (2 Bft) NW 321 ° 0 min 0,000 mm 0,7 UV-I 90 W/m² 10,4 °C 15,6 °C 12,9 km/h (3 Bft)
30.09.2019 17:17 15,6 °C 71 % 1012,0 hPa 0,0 mm 4,9 km/h (1 Bft) NW 309 ° 0 min 0,000 mm 0,7 UV-I 84 W/m² 10,4 °C 15,6 °C 8,0 km/h (2 Bft)
30.09.2019 17:18 15,7 °C 71 % 1012,1 hPa 0,0 mm 5,7 km/h (1 Bft) W 279 ° 0 min 0,000 mm 0,7 UV-I 84 W/m² 10,5 °C 15,7 °C 11,3 km/h (2 Bft)
30.09.2019 17:19 15,6 °C 72 % 1012,0 hPa 0,0 mm 3,5 km/h (1 Bft) N 349 ° 0 min 0,000 mm 0,7 UV-I 88 W/m² 10,6 °C 15,6 °C 8,0 km/h (2 Bft)
30.09.2019 17:20 15,6 °C 72 % 1012,1 hPa 0,0 mm 5,4 km/h (1 Bft) NW 309 ° 0 min 0,000 mm 0,7 UV-I 90 W/m² 10,6 °C 15,6 °C 9,7 km/h (2 Bft)
30.09.2019 17:21 15,6 °C 71 % 1012,1 hPa 0,0 mm 6,8 km/h (2 Bft) W-NW 290 ° 0 min 0,000 mm 0,7 UV-I 86 W/m² 10,4 °C 15,6 °C 12,9 km/h (3 Bft)
30.09.2019 17:22 15,6 °C 71 % 1012,1 hPa 0,0 mm 9,3 km/h (2 Bft) W-NW 290 ° 0 min 0,000 mm 0,7 UV-I 90 W/m² 10,4 °C 15,6 °C 14,5 km/h (3 Bft)
30.09.2019 17:23 15,6 °C 72 % 1012,1 hPa 0,0 mm 10,7 km/h (2 Bft) W-NW 294 ° 0 min 0,000 mm 0,7 UV-I 86 W/m² 10,6 °C 15,6 °C 14,5 km/h (3 Bft)
30.09.2019 17:24 15,6 °C 71 % 1012,1 hPa 0,0 mm 11,6 km/h (2 Bft) W-NW 293 ° 0 min 0,000 mm 0,6 UV-I 86 W/m² 10,4 °C 15,6 °C 19,3 km/h (3 Bft)
30.09.2019 17:25 15,5 °C 71 % 1012,1 hPa 0,0 mm 11,9 km/h (2 Bft) W-NW 292 ° 0 min 0,000 mm 0,6 UV-I 88 W/m² 10,3 °C 15,5 °C 17,7 km/h (3 Bft)
30.09.2019 17:26 15,5 °C 71 % 1012,2 hPa 0,0 mm 14,7 km/h (3 Bft) W 267 ° 0 min 0,000 mm 0,6 UV-I 88 W/m² 10,3 °C 15,5 °C 20,9 km/h (4 Bft)
30.09.2019 17:27 15,4 °C 71 % 1012,2 hPa 0,0 mm 11,7 km/h (2 Bft) NW 319 ° 0 min 0,000 mm 0,5 UV-I 86 W/m² 10,2 °C 15,4 °C 19,3 km/h (3 Bft)
30.09.2019 17:28 15,3 °C 71 % 1012,2 hPa 0,0 mm 9,1 km/h (2 Bft) W-NW 287 ° 0 min 0,000 mm 0,5 UV-I 74 W/m² 10,1 °C 15,3 °C 14,5 km/h (3 Bft)
30.09.2019 17:29 15,3 °C 71 % 1012,2 hPa 0,0 mm 10,4 km/h (2 Bft) NW 308 ° 0 min 0,000 mm 0,0 UV-I 65 W/m² 10,1 °C 15,3 °C 19,3 km/h (3 Bft)
30.09.2019 17:30 15,2 °C 72 % 1012,3 hPa 0,0 mm 9,2 km/h (2 Bft) W-SW 248 ° 0 min 0,000 mm 0,0 UV-I 67 W/m² 10,2 °C 15,2 °C 16,1 km/h (3 Bft)
30.09.2019 17:31 15,3 °C 72 % 1012,3 hPa 0,0 mm 10,7 km/h (2 Bft) W-NW 291 ° 0 min 0,000 mm 0,0 UV-I 70 W/m² 10,3 °C 15,3 °C 16,1 km/h (3 Bft)
30.09.2019 17:32 15,2 °C 73 % 1012,3 hPa 0,0 mm 9,0 km/h (2 Bft) W-NW 286 ° 0 min 0,000 mm 0,0 UV-I 69 W/m² 10,4 °C 15,2 °C 12,9 km/h (3 Bft)
30.09.2019 17:33 15,2 °C 73 % 1012,3 hPa 0,0 mm 6,6 km/h (2 Bft) W-NW 287 ° 0 min 0,000 mm 0,0 UV-I 65 W/m² 10,4 °C 15,2 °C 8,0 km/h (2 Bft)
30.09.2019 17:34 15,1 °C 73 % 1012,3 hPa 0,0 mm 9,2 km/h (2 Bft) W 280 ° 0 min 0,000 mm 0,0 UV-I 58 W/m² 10,3 °C 15,1 °C 12,9 km/h (3 Bft)
30.09.2019 17:35 15,1 °C 73 % 1012,4 hPa 0,0 mm 14,7 km/h (3 Bft) W-NW 296 ° 0 min 0,000 mm 0,0 UV-I 51 W/m² 10,3 °C 15,1 °C 20,9 km/h (4 Bft)
30.09.2019 17:36 15,1 °C 72 % 1012,4 hPa 0,0 mm 9,0 km/h (2 Bft) W 275 ° 0 min 0,000 mm 0,0 UV-I 51 W/m² 10,1 °C 15,1 °C 16,1 km/h (3 Bft)
30.09.2019 17:37 15,1 °C 72 % 1012,4 hPa 0,0 mm 14,3 km/h (3 Bft) W-NW 288 ° 0 min 0,000 mm 0,0 UV-I 54 W/m² 10,1 °C 15,1 °C 22,5 km/h (4 Bft)
30.09.2019 17:38 15,1 °C 73 % 1012,3 hPa 0,0 mm 12,5 km/h (3 Bft) W 269 ° 0 min 0,000 mm 0,0 UV-I 60 W/m² 10,3 °C 15,1 °C 17,7 km/h (3 Bft)
30.09.2019 17:39 15,1 °C 73 % 1012,3 hPa 0,0 mm 13,9 km/h (3 Bft) W 277 ° 0 min 0,000 mm 0,0 UV-I 54 W/m² 10,3 °C 15,1 °C 20,9 km/h (4 Bft)
30.09.2019 17:40 15,1 °C 73 % 1012,3 hPa 0,0 mm 8,4 km/h (2 Bft) W 265 ° 0 min 0,000 mm 0,0 UV-I 51 W/m² 10,3 °C 15,1 °C 14,5 km/h (3 Bft)
30.09.2019 17:41 15,1 °C 73 % 1012,4 hPa 0,0 mm 8,7 km/h (2 Bft) W-NW 294 ° 0 min 0,000 mm 0,0 UV-I 56 W/m² 10,3 °C 15,1 °C 14,5 km/h (3 Bft)
30.09.2019 17:42 15,0 °C 73 % 1012,4 hPa 0,0 mm 8,8 km/h (2 Bft) W-SW 257 ° 0 min 0,000 mm 0,0 UV-I 60 W/m² 10,2 °C 15,0 °C 12,9 km/h (3 Bft)
30.09.2019 17:43 15,0 °C 74 % 1012,3 hPa 0,0 mm 8,0 km/h (2 Bft) W 260 ° 0 min 0,000 mm 0,0 UV-I 54 W/m² 10,4 °C 15,0 °C 14,5 km/h (3 Bft)
30.09.2019 17:44 14,9 °C 74 % 1012,4 hPa 0,0 mm 13,2 km/h (3 Bft) W-NW 293 ° 0 min 0,000 mm 0,0 UV-I 53 W/m² 10,3 °C 14,9 °C 19,3 km/h (3 Bft)
30.09.2019 17:45 14,9 °C 74 % 1012,5 hPa 0,0 mm 10,4 km/h (2 Bft) W 268 ° 0 min 0,000 mm 0,0 UV-I 53 W/m² 10,3 °C 14,9 °C 14,5 km/h (3 Bft)
30.09.2019 17:46 14,9 °C 74 % 1012,4 hPa 0,0 mm 8,1 km/h (2 Bft) NW 325 ° 0 min 0,000 mm 0,0 UV-I 46 W/m² 10,3 °C 14,9 °C 14,5 km/h (3 Bft)
30.09.2019 17:47 14,9 °C 74 % 1012,4 hPa 0,0 mm 12,2 km/h (2 Bft) W-SW 251 ° 0 min 0,000 mm 0,0 UV-I 47 W/m² 10,3 °C 14,9 °C 17,7 km/h (3 Bft)
30.09.2019 17:48 14,9 °C 74 % 1012,4 hPa 0,0 mm 10,8 km/h (2 Bft) W-NW 283 ° 0 min 0,000 mm 0,0 UV-I 49 W/m² 10,3 °C 14,9 °C 16,1 km/h (3 Bft)
30.09.2019 17:49 14,8 °C 74 % 1012,4 hPa 0,0 mm 9,7 km/h (2 Bft) W 275 ° 0 min 0,000 mm 0,0 UV-I 47 W/m² 10,2 °C 14,8 °C 14,5 km/h (3 Bft)
30.09.2019 17:50 14,8 °C 74 % 1012,4 hPa 0,0 mm 8,9 km/h (2 Bft) W-SW 250 ° 0 min 0,000 mm 0,0 UV-I 46 W/m² 10,2 °C 14,8 °C 12,9 km/h (3 Bft)
30.09.2019 17:51 14,8 °C 74 % 1012,4 hPa 0,0 mm 6,5 km/h (2 Bft) W 281 ° 0 min 0,000 mm 0,0 UV-I 44 W/m² 10,2 °C 14,8 °C 9,7 km/h (2 Bft)
30.09.2019 17:52 14,8 °C 74 % 1012,4 hPa 0,0 mm 8,9 km/h (2 Bft) W-NW 294 ° 0 min 0,000 mm 0,0 UV-I 46 W/m² 10,2 °C 14,8 °C 14,5 km/h (3 Bft)
30.09.2019 17:53 14,8 °C 75 % 1012,4 hPa 0,0 mm 9,3 km/h (2 Bft) W 261 ° 0 min 0,000 mm 0,0 UV-I 44 W/m² 10,4 °C 14,8 °C 14,5 km/h (3 Bft)
30.09.2019 17:54 14,7 °C 75 % 1012,4 hPa 0,0 mm 11,3 km/h (2 Bft) W-NW 290 ° 0 min 0,000 mm 0,0 UV-I 40 W/m² 10,3 °C 14,7 °C 17,7 km/h (3 Bft)
30.09.2019 17:55 14,7 °C 74 % 1012,5 hPa 0,0 mm 9,9 km/h (2 Bft) W-NW 288 ° 0 min 0,000 mm 0,0 UV-I 39 W/m² 10,1 °C 14,7 °C 16,1 km/h (3 Bft)
30.09.2019 17:56 14,7 °C 74 % 1012,4 hPa 0,0 mm 12,7 km/h (3 Bft) W-NW 300 ° 0 min 0,000 mm 0,0 UV-I 37 W/m² 10,1 °C 14,7 °C 16,1 km/h (3 Bft)
30.09.2019 17:57 14,7 °C 74 % 1012,4 hPa 0,0 mm 11,4 km/h (2 Bft) W-SW 253 ° 0 min 0,000 mm 0,0 UV-I 35 W/m² 10,1 °C 14,7 °C 19,3 km/h (3 Bft)
30.09.2019 17:58 14,7 °C 74 % 1012,4 hPa 0,0 mm 9,9 km/h (2 Bft) NW 306 ° 0 min 0,000 mm 0,0 UV-I 35 W/m² 10,1 °C 14,7 °C 16,1 km/h (3 Bft)
30.09.2019 17:59 14,7 °C 74 % 1012,5 hPa 0,0 mm 9,1 km/h (2 Bft) W-NW 288 ° 0 min 0,000 mm 0,0 UV-I 35 W/m² 10,1 °C 14,7 °C 14,5 km/h (3 Bft)
30.09.2019 18:00 14,7 °C 74 % 1012,5 hPa 0,0 mm 7,3 km/h (2 Bft) W 281 ° 0 min 0,000 mm 0,0 UV-I 33 W/m² 10,1 °C 14,7 °C 14,5 km/h (3 Bft)
30.09.2019 18:01 14,6 °C 74 % 1012,5 hPa 0,0 mm 5,7 km/h (1 Bft) W-SW 257 ° 0 min 0,076 mm 0,0 UV-I 32 W/m² 10,0 °C 14,6 °C 11,3 km/h (2 Bft)
30.09.2019 18:02 14,6 °C 75 % 1012,5 hPa 0,0 mm 5,9 km/h (2 Bft) W 272 ° 0 min 0,000 mm 0,0 UV-I 32 W/m² 10,2 °C 14,6 °C 9,7 km/h (2 Bft)
30.09.2019 18:03 14,6 °C 74 % 1012,5 hPa 0,0 mm 13,6 km/h (3 Bft) W-NW 289 ° 0 min 0,000 mm 0,0 UV-I 32 W/m² 10,0 °C 14,6 °C 25,7 km/h (4 Bft)
30.09.2019 18:04 14,6 °C 74 % 1012,5 hPa 0,0 mm 14,8 km/h (3 Bft) W-NW 302 ° 0 min 0,000 mm 0,0 UV-I 32 W/m² 10,0 °C 14,6 °C 20,9 km/h (4 Bft)
30.09.2019 18:05 14,6 °C 74 % 1012,4 hPa 0,0 mm 8,7 km/h (2 Bft) W-NW 292 ° 0 min 0,000 mm 0,0 UV-I 32 W/m² 10,0 °C 14,6 °C 12,9 km/h (3 Bft)
30.09.2019 18:06 14,5 °C 75 % 1012,4 hPa 0,0 mm 5,9 km/h (2 Bft) W 260 ° 0 min 0,000 mm 0,0 UV-I 32 W/m² 10,1 °C 14,5 °C 11,3 km/h (2 Bft)
30.09.2019 18:07 14,5 °C 75 % 1012,4 hPa 0,0 mm 7,4 km/h (2 Bft) W 277 ° 0 min 0,000 mm 0,0 UV-I 30 W/m² 10,1 °C 14,5 °C 12,9 km/h (3 Bft)
30.09.2019 18:08 14,4 °C 75 % 1012,4 hPa 0,0 mm 8,6 km/h (2 Bft) NW 325 ° 0 min 0,000 mm 0,0 UV-I 32 W/m² 10,0 °C 14,4 °C 12,9 km/h (3 Bft)
30.09.2019 18:09 14,4 °C 75 % 1012,5 hPa 0,0 mm 7,6 km/h (2 Bft) W-SW 251 ° 0 min 0,000 mm 0,0 UV-I 35 W/m² 10,0 °C 14,4 °C 11,3 km/h (2 Bft)
30.09.2019 18:10 14,4 °C 75 % 1012,5 hPa 0,0 mm 8,3 km/h (2 Bft) W-NW 300 ° 0 min 0,000 mm 0,0 UV-I 42 W/m² 10,0 °C 14,4 °C 12,9 km/h (3 Bft)
30.09.2019 18:11 14,4 °C 75 % 1012,4 hPa 0,0 mm 11,2 km/h (2 Bft) W 273 ° 0 min 0,000 mm 0,0 UV-I 42 W/m² 10,0 °C 14,4 °C 17,7 km/h (3 Bft)
30.09.2019 18:12 14,4 °C 75 % 1012,4 hPa 0,0 mm 7,1 km/h (2 Bft) W 261 ° 0 min 0,000 mm 0,0 UV-I 39 W/m² 10,0 °C 14,4 °C 11,3 km/h (2 Bft)
30.09.2019 18:13 14,4 °C 75 % 1012,4 hPa 0,0 mm 5,7 km/h (1 Bft) W 278 ° 0 min 0,000 mm 0,0 UV-I 35 W/m² 10,0 °C 14,4 °C 11,3 km/h (2 Bft)
30.09.2019 18:14 14,4 °C 75 % 1012,5 hPa 0,0 mm 5,3 km/h (1 Bft) W-SW 247 ° 0 min 0,000 mm 0,0 UV-I 32 W/m² 10,0 °C 14,4 °C 11,3 km/h (2 Bft)
30.09.2019 18:15 14,4 °C 76 % 1012,5 hPa 0,0 mm 2,8 km/h (1 Bft) W-NW 283 ° 0 min 0,000 mm 0,0 UV-I 30 W/m² 10,2 °C 14,4 °C 4,8 km/h (1 Bft)
30.09.2019 18:16 14,3 °C 76 % 1012,4 hPa 0,0 mm 1,5 km/h (1 Bft) W 277 ° 0 min 0,000 mm 0,0 UV-I 32 W/m² 10,1 °C 14,3 °C 4,8 km/h (1 Bft)
30.09.2019 18:17 14,3 °C 75 % 1012,5 hPa 0,0 mm 6,0 km/h (2 Bft) W-SW 254 ° 0 min 0,000 mm 0,0 UV-I 33 W/m² 9,9 °C 14,3 °C 12,9 km/h (3 Bft)
30.09.2019 18:18 14,3 °C 76 % 1012,5 hPa 0,0 mm 5,6 km/h (1 Bft) W-NW 284 ° 0 min 0,000 mm 0,0 UV-I 33 W/m² 10,1 °C 14,3 °C 12,9 km/h (3 Bft)
30.09.2019 18:19 14,3 °C 75 % 1012,5 hPa 0,0 mm 8,9 km/h (2 Bft) W 275 ° 0 min 0,000 mm 0,0 UV-I 33 W/m² 9,9 °C 14,3 °C 11,3 km/h (2 Bft)
30.09.2019 18:20 14,3 °C 76 % 1012,4 hPa 0,0 mm 5,9 km/h (2 Bft) W 265 ° 0 min 0,000 mm 0,0 UV-I 28 W/m² 10,1 °C 14,3 °C 11,3 km/h (2 Bft)
30.09.2019 18:21 14,3 °C 75 % 1012,4 hPa 0,0 mm 11,1 km/h (2 Bft) W-NW 296 ° 0 min 0,000 mm 0,0 UV-I 26 W/m² 9,9 °C 14,3 °C 14,5 km/h (3 Bft)
30.09.2019 18:22 14,3 °C 75 % 1012,4 hPa 0,0 mm 6,2 km/h (2 Bft) W 281 ° 0 min 0,000 mm 0,0 UV-I 26 W/m² 9,9 °C 14,3 °C 9,7 km/h (2 Bft)
30.09.2019 18:23 14,3 °C 76 % 1012,4 hPa 0,0 mm 2,1 km/h (1 Bft) W 280 ° 0 min 0,000 mm 0,0 UV-I 26 W/m² 10,1 °C 14,3 °C 6,4 km/h (2 Bft)
30.09.2019 18:24 14,2 °C 76 % 1012,4 hPa 0,0 mm 2,8 km/h (1 Bft) W 280 ° 0 min 0,000 mm 0,0 UV-I 26 W/m² 10,0 °C 14,2 °C 3,2 km/h (1 Bft)
30.09.2019 18:25 14,2 °C 76 % 1012,4 hPa 0,0 mm 5,0 km/h (1 Bft) W 264 ° 0 min 0,000 mm 0,0 UV-I 26 W/m² 10,0 °C 14,2 °C 9,7 km/h (2 Bft)
30.09.2019 18:26 14,2 °C 76 % 1012,4 hPa 0,0 mm 1,4 km/h (1 Bft) W 263 ° 0 min 0,000 mm 0,0 UV-I 26 W/m² 10,0 °C 14,2 °C 3,2 km/h (1 Bft)
30.09.2019 18:27 14,1 °C 76 % 1012,5 hPa 0,0 mm 2,0 km/h (1 Bft) W 263 ° 0 min 0,000 mm 0,0 UV-I 25 W/m² 9,9 °C 14,1 °C 4,8 km/h (1 Bft)
30.09.2019 18:28 14,1 °C 76 % 1012,5 hPa 0,0 mm 1,6 km/h (1 Bft) W 264 ° 0 min 0,000 mm 0,0 UV-I 21 W/m² 9,9 °C 14,1 °C 4,8 km/h (1 Bft)
30.09.2019 18:29 14,1 °C 77 % 1012,5 hPa 0,0 mm 3,8 km/h (1 Bft) W 268 ° 0 min 0,000 mm 0,0 UV-I 21 W/m² 10,1 °C 14,1 °C 6,4 km/h (2 Bft)
30.09.2019 18:30 14,1 °C 77 % 1012,5 hPa 0,0 mm 3,8 km/h (1 Bft) W-SW 257 ° 0 min 0,000 mm 0,0 UV-I 21 W/m² 10,1 °C 14,1 °C 4,8 km/h (1 Bft)
30.09.2019 18:31 14,1 °C 77 % 1012,5 hPa 0,0 mm 2,3 km/h (1 Bft) W-SW 257 ° 0 min 0,000 mm 0,0 UV-I 21 W/m² 10,1 °C 14,1 °C 3,2 km/h (1 Bft)
30.09.2019 18:32 14,1 °C 77 % 1012,5 hPa 0,0 mm 1,3 km/h (1 Bft) W-SW 257 ° 0 min 0,000 mm 0,0 UV-I 19 W/m² 10,1 °C 14,1 °C 3,2 km/h (1 Bft)
30.09.2019 18:33 14,0 °C 77 % 1012,6 hPa 0,0 mm 2,2 km/h (1 Bft) W-SW 257 ° 0 min 0,000 mm 0,0 UV-I 19 W/m² 10,0 °C 14,0 °C 4,8 km/h (1 Bft)
30.09.2019 18:34 14,0 °C 77 % 1012,7 hPa 0,0 mm 4,0 km/h (1 Bft) W 260 ° 0 min 0,000 mm 0,0 UV-I 18 W/m² 10,0 °C 14,0 °C 9,7 km/h (2 Bft)
30.09.2019 18:35 13,9 °C 78 % 1012,7 hPa 0,0 mm 6,4 km/h (2 Bft) W 262 ° 0 min 0,000 mm 0,0 UV-I 16 W/m² 10,1 °C 13,9 °C 11,3 km/h (2 Bft)
30.09.2019 18:36 13,9 °C 78 % 1012,7 hPa 0,0 mm 4,8 km/h (1 Bft) W-NW 284 ° 0 min 0,000 mm 0,0 UV-I 16 W/m² 10,1 °C 13,9 °C 8,0 km/h (2 Bft)
30.09.2019 18:37 13,8 °C 78 % 1012,7 hPa 0,0 mm 3,9 km/h (1 Bft) W-SW 241 ° 0 min 0,000 mm 0,0 UV-I 14 W/m² 10,0 °C 13,8 °C 11,3 km/h (2 Bft)
30.09.2019 18:38 13,8 °C 78 % 1012,7 hPa 0,0 mm 0,0 km/h (0 Bft) W-SW 242 ° 0 min 0,000 mm 0,0 UV-I 14 W/m² 10,0 °C 13,8 °C 0,0 km/h (0 Bft)
30.09.2019 18:39 13,8 °C 78 % 1012,7 hPa 0,0 mm 0,0 km/h (0 Bft) W-SW 242 ° 0 min 0,000 mm 0,0 UV-I 14 W/m² 10,0 °C 13,8 °C 0,0 km/h (0 Bft)
30.09.2019 18:40 13,8 °C 78 % 1012,7 hPa 0,0 mm 0,0 km/h (0 Bft) W-SW 241 ° 0 min 0,000 mm 0,0 UV-I 12 W/m² 10,0 °C 13,8 °C 0,0 km/h (0 Bft)
30.09.2019 18:41 13,8 °C 78 % 1012,7 hPa 0,0 mm 3,8 km/h (1 Bft) W-SW 252 ° 0 min 0,000 mm 0,0 UV-I 12 W/m² 10,0 °C 13,8 °C 8,0 km/h (2 Bft)
30.09.2019 18:42 13,8 °C 78 % 1012,7 hPa 0,0 mm 5,3 km/h (1 Bft) W 261 ° 0 min 0,000 mm 0,0 UV-I 11 W/m² 10,0 °C 13,8 °C 9,7 km/h (2 Bft)
30.09.2019 18:43 13,8 °C 79 % 1012,7 hPa 0,0 mm 1,3 km/h (1 Bft) W 261 ° 0 min 0,000 mm 0,0 UV-I 11 W/m² 10,2 °C 13,8 °C 4,8 km/h (1 Bft)
30.09.2019 18:44 13,8 °C 78 % 1012,7 hPa 0,0 mm 0,0 km/h (0 Bft) W 261 ° 0 min 0,000 mm 0,0 UV-I 9 W/m² 10,0 °C 13,8 °C 0,0 km/h (0 Bft)
30.09.2019 18:45 13,8 °C 78 % 1012,7 hPa 0,0 mm 0,0 km/h (0 Bft) W 261 ° 0 min 0,000 mm 0,0 UV-I 9 W/m² 10,0 °C 13,8 °C 0,0 km/h (0 Bft)
30.09.2019 18:46 13,7 °C 78 % 1012,7 hPa 0,0 mm 1,4 km/h (1 Bft) W 259 ° 0 min 0,000 mm 0,0 UV-I 7 W/m² 9,9 °C 13,7 °C 3,2 km/h (1 Bft)
30.09.2019 18:47 13,7 °C 79 % 1012,7 hPa 0,0 mm 0,7 km/h (0 Bft) W 259 ° 0 min 0,000 mm 0,0 UV-I 7 W/m² 10,1 °C 13,7 °C 3,2 km/h (1 Bft)
30.09.2019 18:48 13,7 °C 79 % 1012,7 hPa 0,0 mm 0,3 km/h (0 Bft) W 259 ° 0 min 0,000 mm 0,0 UV-I 7 W/m² 10,1 °C 13,7 °C 1,6 km/h (1 Bft)
30.09.2019 18:49 13,7 °C 79 % 1012,7 hPa 0,0 mm 0,0 km/h (0 Bft) W 259 ° 0 min 0,000 mm 0,0 UV-I 5 W/m² 10,1 °C 13,7 °C 0,0 km/h (0 Bft)
30.09.2019 18:50 13,7 °C 79 % 1012,7 hPa 0,0 mm 1,9 km/h (1 Bft) S 186 ° 0 min 0,000 mm 0,0 UV-I 5 W/m² 10,1 °C 13,7 °C 4,8 km/h (1 Bft)
30.09.2019 18:51 13,7 °C 78 % 1012,7 hPa 0,0 mm 0,5 km/h (0 Bft) SW 218 ° 0 min 0,000 mm 0,0 UV-I 5 W/m² 9,9 °C 13,7 °C 3,2 km/h (1 Bft)
30.09.2019 18:52 13,7 °C 78 % 1012,7 hPa 0,0 mm 4,0 km/h (1 Bft) SW 218 ° 0 min 0,000 mm 0,0 UV-I 5 W/m² 9,9 °C 13,7 °C 6,4 km/h (2 Bft)
30.09.2019 18:53 13,7 °C 78 % 1012,8 hPa 0,0 mm 0,7 km/h (0 Bft) SW 218 ° 0 min 0,000 mm 0,0 UV-I 0 W/m² 9,9 °C 13,7 °C 3,2 km/h (1 Bft)
30.09.2019 18:54 13,7 °C 78 % 1012,8 hPa 0,0 mm 0,0 km/h (0 Bft) SW 218 ° 0 min 0,000 mm 0,0 UV-I 0 W/m² 9,9 °C 13,7 °C 0,0 km/h (0 Bft)
30.09.2019 18:55 13,7 °C 78 % 1012,8 hPa 0,0 mm 1,5 km/h (1 Bft) SW 219 ° 0 min 0,000 mm 0,0 UV-I 0 W/m² 9,9 °C 13,7 °C 4,8 km/h (1 Bft)
30.09.2019 18:56 13,7 °C 78 % 1012,7 hPa 0,0 mm 2,6 km/h (1 Bft) SW 219 ° 0 min 0,000 mm 0,0 UV-I 0 W/m² 9,9 °C 13,7 °C 3,2 km/h (1 Bft)
30.09.2019 18:57 13,7 °C 79 % 1012,8 hPa 0,0 mm 2,9 km/h (1 Bft) SW 219 ° 0 min 0,000 mm 0,0 UV-I 0 W/m² 10,1 °C 13,7 °C 3,2 km/h (1 Bft)
30.09.2019 18:58 13,6 °C 78 % 1012,8 hPa 0,0 mm 1,5 km/h (1 Bft) SW 219 ° 0 min 0,000 mm 0,0 UV-I 0 W/m² 9,8 °C 13,6 °C 3,2 km/h (1 Bft)
30.09.2019 18:59 13,6 °C 79 % 1012,8 hPa 0,0 mm 0,0 km/h (0 Bft) SW 219 ° 0 min 0,000 mm 0,0 UV-I 0 W/m² 10,0 °C 13,6 °C 0,0 km/h (0 Bft)
30.09.2019 19:00 13,6 °C 79 % 1012,8 hPa 0,0 mm 0,0 km/h (0 Bft) SW 219 ° 0 min 0,000 mm 0,0 UV-I 0 W/m² 10,0 °C 13,6 °C 0,0 km/h (0 Bft)
30.09.2019 19:01 13,5 °C 80 % 1012,8 hPa 0,0 mm 4,4 km/h (1 Bft) W 267 ° 0 min 0,025 mm 0,0 UV-I 0 W/m² 10,1 °C 13,5 °C 9,7 km/h (2 Bft)
30.09.2019 19:02 13,4 °C 80 % 1012,7 hPa 0,0 mm 0,7 km/h (0 Bft) W 267 ° 0 min 0,000 mm 0,0 UV-I 0 W/m² 10,0 °C 13,4 °C 3,2 km/h (1 Bft)
30.09.2019 19:03 13,4 °C 80 % 1012,7 hPa 0,0 mm 0,0 km/h (0 Bft) W 267 ° 0 min 0,000 mm 0,0 UV-I 0 W/m² 10,0 °C 13,4 °C 0,0 km/h (0 Bft)
30.09.2019 19:04 13,4 °C 80 % 1012,7 hPa 0,0 mm 4,7 km/h (1 Bft) W 260 ° 0 min 0,000 mm 0,0 UV-I 0 W/m² 10,0 °C 13,4 °C 6,4 km/h (2 Bft)
30.09.2019 19:05 13,4 °C 80 % 1012,7 hPa 0,0 mm 3,0 km/h (1 Bft) W 266 ° 0 min 0,000 mm 0,0 UV-I 0 W/m² 10,0 °C 13,4 °C 6,4 km/h (2 Bft)
30.09.2019 19:06 13,4 °C 80 % 1012,7 hPa 0,0 mm 0,6 km/h (0 Bft) W 266 ° 0 min 0,000 mm 0,0 UV-I 0 W/m² 10,0 °C 13,4 °C 3,2 km/h (1 Bft)
30.09.2019 19:07 13,3 °C 80 % 1012,7 hPa 0,0 mm 0,0 km/h (0 Bft) W 265 ° 0 min 0,000 mm 0,0 UV-I 0 W/m² 9,9 °C 13,3 °C 0,0 km/h (0 Bft)
30.09.2019 19:08 13,3 °C 80 % 1012,7 hPa 0,0 mm 0,0 km/h (0 Bft) W 265 ° 0 min 0,000 mm 0,0 UV-I 0 W/m² 9,9 °C 13,3 °C 0,0 km/h (0 Bft)
30.09.2019 19:09 13,3 °C 80 % 1012,7 hPa 0,0 mm 0,0 km/h (0 Bft) W 265 ° 0 min 0,000 mm 0,0 UV-I 0 W/m² 9,9 °C 13,3 °C 0,0 km/h (0 Bft)
30.09.2019 19:10 13,3 °C 80 % 1012,7 hPa 0,0 mm 0,0 km/h (0 Bft) W 265 ° 0 min 0,000 mm 0,0 UV-I 0 W/m² 9,9 °C 13,3 °C 0,0 km/h (0 Bft)
30.09.2019 19:11 13,3 °C 81 % 1012,7 hPa 0,0 mm 0,0 km/h (0 Bft) W 265 ° 0 min 0,000 mm 0,0 UV-I 0 W/m² 10,1 °C 13,3 °C 0,0 km/h (0 Bft)
30.09.2019 19:12 13,3 °C 81 % 1012,7 hPa 0,0 mm 0,0 km/h (0 Bft) W 265 ° 0 min 0,000 mm 0,0 UV-I 0 W/m² 10,1 °C 13,3 °C 0,0 km/h (0 Bft)
30.09.2019 19:13 13,2 °C 81 % 1012,7 hPa 0,0 mm 0,0 km/h (0 Bft) W 265 ° 0 min 0,000 mm 0,0 UV-I 0 W/m² 10,0 °C 13,2 °C 0,0 km/h (0 Bft)
30.09.2019 19:14 13,2 °C 81 % 1012,7 hPa 0,0 mm 0,0 km/h (0 Bft) W 265 ° 0 min 0,000 mm 0,0 UV-I 0 W/m² 10,0 °C 13,2 °C 0,0 km/h (0 Bft)
30.09.2019 19:15 13,2 °C 81 % 1012,7 hPa 0,0 mm 0,0 km/h (0 Bft) W 265 ° 0 min 0,000 mm 0,0 UV-I 0 W/m² 10,0 °C 13,2 °C 0,0 km/h (0 Bft)
30.09.2019 19:16 13,2 °C 82 % 1012,7 hPa 0,0 mm 0,0 km/h (0 Bft) W 265 ° 0 min 0,000 mm 0,0 UV-I 0 W/m² 10,2 °C 13,2 °C 0,0 km/h (0 Bft)
30.09.2019 19:17 13,2 °C 82 % 1012,7 hPa 0,0 mm 0,8 km/h (0 Bft) W 265 ° 0 min 0,000 mm 0,0 UV-I 0 W/m² 10,2 °C 13,2 °C 4,8 km/h (1 Bft)
30.09.2019 19:18 13,2 °C 82 % 1012,7 hPa 0,0 mm 3,8 km/h (1 Bft) W 265 ° 0 min 0,000 mm 0,0 UV-I 0 W/m² 10,2 °C 13,2 °C 4,8 km/h (1 Bft)
30.09.2019 19:19 13,2 °C 82 % 1012,7 hPa 0,0 mm 2,5 km/h (1 Bft) W 265 ° 0 min 0,000 mm 0,0 UV-I 0 W/m² 10,2 °C 13,2 °C 4,8 km/h (1 Bft)
30.09.2019 19:20 13,2 °C 82 % 1012,6 hPa 0,0 mm 3,9 km/h (1 Bft) S-SW 211 ° 0 min 0,000 mm 0,0 UV-I 0 W/m² 10,2 °C 13,2 °C 6,4 km/h (2 Bft)
30.09.2019 19:21 13,2 °C 82 % 1012,7 hPa 0,0 mm 1,8 km/h (1 Bft) S-SW 211 ° 0 min 0,000 mm 0,0 UV-I 0 W/m² 10,2 °C 13,2 °C 4,8 km/h (1 Bft)
30.09.2019 19:22 13,1 °C 83 % 1012,7 hPa 0,0 mm 0,0 km/h (0 Bft) SW 215 ° 0 min 0,000 mm 0,0 UV-I 0 W/m² 10,3 °C 13,1 °C 0,0 km/h (0 Bft)
30.09.2019 19:23 13,1 °C 82 % 1012,7 hPa 0,0 mm 0,0 km/h (0 Bft) SW 214 ° 0 min 0,000 mm 0,0 UV-I 0 W/m² 10,1 °C 13,1 °C 0,0 km/h (0 Bft)
30.09.2019 19:24 13,1 °C 82 % 1012,7 hPa 0,0 mm 0,0 km/h (0 Bft) SW 214 ° 0 min 0,000 mm 0,0 UV-I 0 W/m² 10,1 °C 13,1 °C 0,0 km/h (0 Bft)
30.09.2019 19:25 13,2 °C 82 % 1012,8 hPa 0,0 mm 0,0 km/h (0 Bft) SW 214 ° 0 min 0,000 mm 0,0 UV-I 0 W/m² 10,2 °C 13,2 °C 0,0 km/h (0 Bft)
30.09.2019 19:26 13,2 °C 82 % 1012,7 hPa 0,0 mm 0,0 km/h (0 Bft) SW 215 ° 0 min 0,000 mm 0,0 UV-I 0 W/m² 10,2 °C 13,2 °C 0,0 km/h (0 Bft)
30.09.2019 19:27 13,1 °C 83 % 1012,8 hPa 0,0 mm 0,0 km/h (0 Bft) SW 215 ° 0 min 0,000 mm 0,0 UV-I 0 W/m² 10,3 °C 13,1 °C 0,0 km/h (0 Bft)
30.09.2019 19:28 13,1 °C 82 % 1012,7 hPa 0,0 mm 0,0 km/h (0 Bft) SW 215 ° 0 min 0,000 mm 0,0 UV-I 0 W/m² 10,1 °C 13,1 °C 0,0 km/h (0 Bft)
30.09.2019 19:29 13,1 °C 82 % 1012,7 hPa 0,0 mm 0,0 km/h (0 Bft) SW 215 ° 0 min 0,000 mm 0,0 UV-I 0 W/m² 10,1 °C 13,1 °C 0,0 km/h (0 Bft)
30.09.2019 19:30 13,0 °C 82 % 1012,7 hPa 0,0 mm 0,0 km/h (0 Bft) SW 215 ° 0 min 0,000 mm 0,0 UV-I 0 W/m² 10,0 °C 13,0 °C 0,0 km/h (0 Bft)
30.09.2019 19:31 13,1 °C 82 % 1012,7 hPa 0,0 mm 0,0 km/h (0 Bft) SW 215 ° 0 min 0,000 mm 0,0 UV-I 0 W/m² 10,1 °C 13,1 °C 0,0 km/h (0 Bft)
30.09.2019 19:32 13,1 °C 82 % 1012,7 hPa 0,0 mm 0,0 km/h (0 Bft) SW 215 ° 0 min 0,000 mm 0,0 UV-I 0 W/m² 10,1 °C 13,1 °C 0,0 km/h (0 Bft)
30.09.2019 19:33 13,0 °C 82 % 1012,7 hPa 0,0 mm 2,0 km/h (1 Bft) SW 215 ° 0 min 0,000 mm 0,0 UV-I 0 W/m² 10,0 °C 13,0 °C 4,8 km/h (1 Bft)
30.09.2019 19:34 13,0 °C 82 % 1012,6 hPa 0,0 mm 2,1 km/h (1 Bft) SW 215 ° 0 min 0,000 mm 0,0 UV-I 0 W/m² 10,0 °C 13,0 °C 3,2 km/h (1 Bft)
30.09.2019 19:35 13,1 °C 82 % 1012,7 hPa 0,0 mm 0,3 km/h (0 Bft) SW 215 ° 0 min 0,000 mm 0,0 UV-I 0 W/m² 10,1 °C 13,1 °C 3,2 km/h (1 Bft)
30.09.2019 19:36 13,0 °C 82 % 1012,6 hPa 0,0 mm 2,3 km/h (1 Bft) SW 234 ° 0 min 0,000 mm 0,0 UV-I 0 W/m² 10,0 °C 13,0 °C 6,4 km/h (2 Bft)
30.09.2019 19:37 12,9 °C 82 % 1012,6 hPa 0,0 mm 2,5 km/h (1 Bft) SW 232 ° 0 min 0,000 mm 0,0 UV-I 0 W/m² 9,9 °C 12,9 °C 4,8 km/h (1 Bft)
30.09.2019 19:38 12,9 °C 82 % 1012,6 hPa 0,0 mm 2,8 km/h (1 Bft) W-SW 244 ° 0 min 0,000 mm 0,0 UV-I 0 W/m² 9,9 °C 12,9 °C 4,8 km/h (1 Bft)
30.09.2019 19:39 12,9 °C 82 % 1012,6 hPa 0,0 mm 4,4 km/h (1 Bft) W-SW 250 ° 0 min 0,000 mm 0,0 UV-I 0 W/m² 9,9 °C 12,9 °C 9,7 km/h (2 Bft)
30.09.2019 19:40 12,9 °C 82 % 1012,5 hPa 0,0 mm 2,9 km/h (1 Bft) W 263 ° 0 min 0,000 mm 0,0 UV-I 0 W/m² 9,9 °C 12,9 °C 6,4 km/h (2 Bft)
30.09.2019 19:41 12,9 °C 82 % 1012,5 hPa 0,0 mm 2,1 km/h (1 Bft) W 262 ° 0 min 0,000 mm 0,0 UV-I 0 W/m² 9,9 °C 12,9 °C 6,4 km/h (2 Bft)
30.09.2019 19:42 12,9 °C 82 % 1012,5 hPa 0,0 mm 3,9 km/h (1 Bft) W 263 ° 0 min 0,000 mm 0,0 UV-I 0 W/m² 9,9 °C 12,9 °C 4,8 km/h (1 Bft)
30.09.2019 19:43 12,9 °C 82 % 1012,5 hPa 0,0 mm 2,7 km/h (1 Bft) W 263 ° 0 min 0,000 mm 0,0 UV-I 0 W/m² 9,9 °C 12,9 °C 4,8 km/h (1 Bft)
30.09.2019 19:44 12,8 °C 82 % 1012,5 hPa 0,0 mm 2,2 km/h (1 Bft) W 262 ° 0 min 0,000 mm 0,0 UV-I 0 W/m² 9,8 °C 12,8 °C 3,2 km/h (1 Bft)
30.09.2019 19:45 12,8 °C 82 % 1012,5 hPa 0,0 mm 4,4 km/h (1 Bft) W 277 ° 0 min 0,000 mm 0,0 UV-I 0 W/m² 9,8 °C 12,8 °C 9,7 km/h (2 Bft)
30.09.2019 19:46 12,7 °C 82 % 1012,5 hPa 0,0 mm 4,8 km/h (1 Bft) W 265 ° 0 min 0,000 mm 0,0 UV-I 0 W/m² 9,7 °C 12,7 °C 9,7 km/h (2 Bft)
30.09.2019 19:47 12,7 °C 82 % 1012,5 hPa 0,0 mm 3,3 km/h (1 Bft) W 260 ° 0 min 0,000 mm 0,0 UV-I 0 W/m² 9,7 °C 12,7 °C 4,8 km/h (1 Bft)
30.09.2019 19:48 12,6 °C 82 % 1012,6 hPa 0,0 mm 1,6 km/h (1 Bft) W 260 ° 0 min 0,000 mm 0,0 UV-I 0 W/m² 9,6 °C 12,6 °C 3,2 km/h (1 Bft)
30.09.2019 19:49 12,6 °C 82 % 1012,5 hPa 0,0 mm 0,8 km/h (0 Bft) W 265 ° 0 min 0,000 mm 0,0 UV-I 0 W/m² 9,6 °C 12,6 °C 4,8 km/h (1 Bft)
30.09.2019 19:50 12,5 °C 82 % 1012,6 hPa 0,0 mm 6,4 km/h (2 Bft) W-SW 258 ° 0 min 0,000 mm 0,0 UV-I 0 W/m² 9,5 °C 12,5 °C 12,9 km/h (3 Bft)
30.09.2019 19:51 12,5 °C 83 % 1012,6 hPa 0,0 mm 8,8 km/h (2 Bft) W 278 ° 0 min 0,000 mm 0,0 UV-I 0 W/m² 9,7 °C 12,5 °C 16,1 km/h (3 Bft)
30.09.2019 19:52 12,5 °C 83 % 1012,6 hPa 0,0 mm 5,4 km/h (1 Bft) W-SW 252 ° 0 min 0,000 mm 0,0 UV-I 0 W/m² 9,7 °C 12,5 °C 11,3 km/h (2 Bft)
30.09.2019 19:53 12,6 °C 83 % 1012,5 hPa 0,0 mm 3,5 km/h (1 Bft) SW 236 ° 0 min 0,000 mm 0,0 UV-I 0 W/m² 9,8 °C 12,6 °C 6,4 km/h (2 Bft)
30.09.2019 19:54 12,6 °C 83 % 1012,5 hPa 0,0 mm 4,2 km/h (1 Bft) W-SW 256 ° 0 min 0,000 mm 0,0 UV-I 0 W/m² 9,8 °C 12,6 °C 6,4 km/h (2 Bft)
30.09.2019 19:55 12,6 °C 82 % 1012,5 hPa 0,0 mm 4,6 km/h (1 Bft) W 267 ° 0 min 0,000 mm 0,0 UV-I 0 W/m² 9,6 °C 12,6 °C 9,7 km/h (2 Bft)
30.09.2019 19:56 12,6 °C 82 % 1012,6 hPa 0,0 mm 5,0 km/h (1 Bft) W 269 ° 0 min 0,000 mm 0,0 UV-I 0 W/m² 9,6 °C 12,6 °C 9,7 km/h (2 Bft)
30.09.2019 19:57 12,6 °C 82 % 1012,5 hPa 0,0 mm 0,1 km/h (0 Bft) W 269 ° 0 min 0,000 mm 0,0 UV-I 0 W/m² 9,6 °C 12,6 °C 1,6 km/h (1 Bft)
30.09.2019 19:58 12,6 °C 82 % 1012,6 hPa 0,0 mm 2,7 km/h (1 Bft) W 266 ° 0 min 0,000 mm 0,0 UV-I 0 W/m² 9,6 °C 12,6 °C 4,8 km/h (1 Bft)
30.09.2019 19:59 12,6 °C 82 % 1012,6 hPa 0,0 mm 0,8 km/h (0 Bft) W 266 ° 0 min 0,000 mm 0,0 UV-I 0 W/m² 9,6 °C 12,6 °C 4,8 km/h (1 Bft)
30.09.2019 20:00 12,6 °C 82 % 1012,5 hPa 0,0 mm 1,3 km/h (1 Bft) W-SW 256 ° 0 min 0,000 mm 0,0 UV-I 0 W/m² 9,6 °C 12,6 °C 3,2 km/h (1 Bft)
30.09.2019 20:01 12,5 °C 82 % 1012,5 hPa 0,0 mm 1,1 km/h (1 Bft) W-SW 255 ° 0 min 0,000 mm 0,0 UV-I 0 W/m² 9,5 °C 12,5 °C 3,2 km/h (1 Bft)
30.09.2019 20:02 12,5 °C 82 % 1012,5 hPa 0,0 mm 1,9 km/h (1 Bft) W 260 ° 0 min 0,000 mm 0,0 UV-I 0 W/m² 9,5 °C 12,5 °C 9,7 km/h (2 Bft)
30.09.2019 20:03 12,5 °C 82 % 1012,5 hPa 0,0 mm 3,6 km/h (1 Bft) W 259 ° 0 min 0,000 mm 0,0 UV-I 0 W/m² 9,5 °C 12,5 °C 4,8 km/h (1 Bft)
30.09.2019 20:04 12,5 °C 82 % 1012,5 hPa 0,0 mm 4,1 km/h (1 Bft) W 262 ° 0 min 0,000 mm 0,0 UV-I 0 W/m² 9,5 °C 12,5 °C 11,3 km/h (2 Bft)
30.09.2019 20:05 12,4 °C 82 % 1012,5 hPa 0,0 mm 7,6 km/h (2 Bft) W 271 ° 0 min 0,000 mm 0,0 UV-I 0 W/m² 9,4 °C 12,4 °C 12,9 km/h (3 Bft)
30.09.2019 20:06 12,4 °C 83 % 1012,5 hPa 0,0 mm 6,2 km/h (2 Bft) W 277 ° 0 min 0,000 mm 0,0 UV-I 0 W/m² 9,6 °C 12,4 °C 12,9 km/h (3 Bft)
30.09.2019 20:07 12,3 °C 83 % 1012,5 hPa 0,0 mm 2,5 km/h (1 Bft) W 277 ° 0 min 0,000 mm 0,0 UV-I 0 W/m² 9,5 °C 12,3 °C 3,2 km/h (1 Bft)
30.09.2019 20:08 12,3 °C 83 % 1012,5 hPa 0,0 mm 3,9 km/h (1 Bft) W-SW 257 ° 0 min 0,000 mm 0,0 UV-I 0 W/m² 9,5 °C 12,3 °C 6,4 km/h (2 Bft)
30.09.2019 20:09 12,2 °C 83 % 1012,5 hPa 0,0 mm 3,0 km/h (1 Bft) W-NW 294 ° 0 min 0,000 mm 0,0 UV-I 0 W/m² 9,4 °C 12,2 °C 6,4 km/h (2 Bft)
30.09.2019 20:10 12,3 °C 83 % 1012,6 hPa 0,0 mm 5,7 km/h (1 Bft) W 260 ° 0 min 0,000 mm 0,0 UV-I 0 W/m² 9,5 °C 12,3 °C 11,3 km/h (2 Bft)
30.09.2019 20:11 12,3 °C 83 % 1012,6 hPa 0,0 mm 4,3 km/h (1 Bft) W 268 ° 0 min 0,000 mm 0,0 UV-I 0 W/m² 9,5 °C 12,3 °C 9,7 km/h (2 Bft)
30.09.2019 20:12 12,3 °C 83 % 1012,6 hPa 0,0 mm 3,1 km/h (1 Bft) SW 229 ° 0 min 0,000 mm 0,0 UV-I 0 W/m² 9,5 °C 12,3 °C 6,4 km/h (2 Bft)
30.09.2019 20:13 12,3 °C 83 % 1012,6 hPa 0,0 mm 1,2 km/h (1 Bft) SW 229 ° 0 min 0,000 mm 0,0 UV-I 0 W/m² 9,5 °C 12,3 °C 3,2 km/h (1 Bft)
30.09.2019 20:14 12,3 °C 83 % 1012,6 hPa 0,0 mm 2,8 km/h (1 Bft) SW 229 ° 0 min 0,000 mm 0,0 UV-I 0 W/m² 9,5 °C 12,3 °C 4,8 km/h (1 Bft)
30.09.2019 20:15 12,3 °C 83 % 1012,7 hPa 0,0 mm 2,8 km/h (1 Bft) SW 229 ° 0 min 0,000 mm 0,0 UV-I 0 W/m² 9,5 °C 12,3 °C 4,8 km/h (1 Bft)
30.09.2019 20:16 12,3 °C 83 % 1012,6 hPa 0,0 mm 3,3 km/h (1 Bft) W-SW 244 ° 0 min 0,000 mm 0,0 UV-I 0 W/m² 9,5 °C 12,3 °C 6,4 km/h (2 Bft)
30.09.2019 20:17 12,3 °C 83 % 1012,6 hPa 0,0 mm 6,4 km/h (2 Bft) W-SW 258 ° 0 min 0,000 mm 0,0 UV-I 0 W/m² 9,5 °C 12,3 °C 11,3 km/h (2 Bft)
30.09.2019 20:18 12,2 °C 83 % 1012,6 hPa 0,0 mm 5,8 km/h (2 Bft) W 276 ° 0 min 0,000 mm 0,0 UV-I 0 W/m² 9,4 °C 12,2 °C 8,0 km/h (2 Bft)
30.09.2019 20:19 12,2 °C 83 % 1012,7 hPa 0,0 mm 3,9 km/h (1 Bft) W 268 ° 0 min 0,000 mm 0,0 UV-I 0 W/m² 9,4 °C 12,2 °C 4,8 km/h (1 Bft)
30.09.2019 20:20 12,1 °C 84 % 1012,7 hPa 0,0 mm 2,7 km/h (1 Bft) W-NW 287 ° 0 min 0,000 mm 0,0 UV-I 0 W/m² 9,5 °C 12,1 °C 6,4 km/h (2 Bft)
30.09.2019 20:21 12,1 °C 84 % 1012,6 hPa 0,0 mm 7,2 km/h (2 Bft) W 269 ° 0 min 0,000 mm 0,0 UV-I 0 W/m² 9,5 °C 12,1 °C 11,3 km/h (2 Bft)
30.09.2019 20:22 12,1 °C 84 % 1012,6 hPa 0,0 mm 2,5 km/h (1 Bft) W 269 ° 0 min 0,000 mm 0,0 UV-I 0 W/m² 9,5 °C 12,1 °C 3,2 km/h (1 Bft)
30.09.2019 20:23 12,1 °C 84 % 1012,6 hPa 0,0 mm 2,6 km/h (1 Bft) W 271 ° 0 min 0,000 mm 0,0 UV-I 0 W/m² 9,5 °C 12,1 °C 6,4 km/h (2 Bft)
30.09.2019 20:24 12,1 °C 84 % 1012,6 hPa 0,0 mm 3,1 km/h (1 Bft) W 274 ° 0 min 0,000 mm 0,0 UV-I 0 W/m² 9,5 °C 12,1 °C 4,8 km/h (1 Bft)
30.09.2019 20:25 12,1 °C 84 % 1012,6 hPa 0,0 mm 2,7 km/h (1 Bft) W 275 ° 0 min 0,000 mm 0,0 UV-I 0 W/m² 9,5 °C 12,1 °C 4,8 km/h (1 Bft)
30.09.2019 20:26 12,1 °C 84 % 1012,6 hPa 0,0 mm 3,9 km/h (1 Bft) W 275 ° 0 min 0,000 mm 0,0 UV-I 0 W/m² 9,5 °C 12,1 °C 4,8 km/h (1 Bft)
30.09.2019 20:27 12,1 °C 84 % 1012,7 hPa 0,0 mm 2,8 km/h (1 Bft) W 274 ° 0 min 0,000 mm 0,0 UV-I 0 W/m² 9,5 °C 12,1 °C 4,8 km/h (1 Bft)
30.09.2019 20:28 12,0 °C 84 % 1012,7 hPa 0,0 mm 1,7 km/h (1 Bft) W 274 ° 0 min 0,000 mm 0,0 UV-I 0 W/m² 9,4 °C 12,0 °C 4,8 km/h (1 Bft)
30.09.2019 20:29 11,9 °C 84 % 1012,7 hPa 0,0 mm 1,7 km/h (1 Bft) W 274 ° 0 min 0,000 mm 0,0 UV-I 0 W/m² 9,3 °C 11,9 °C 4,8 km/h (1 Bft)
30.09.2019 20:30 11,9 °C 84 % 1012,7 hPa 0,0 mm 4,5 km/h (1 Bft) SW 214 ° 0 min 0,000 mm 0,0 UV-I 0 W/m² 9,3 °C 11,9 °C 8,0 km/h (2 Bft)
30.09.2019 20:31 11,8 °C 84 % 1012,7 hPa 0,0 mm 7,2 km/h (2 Bft) W 261 ° 0 min 0,000 mm 0,0 UV-I 0 W/m² 9,2 °C 11,8 °C 11,3 km/h (2 Bft)
30.09.2019 20:32 11,8 °C 85 % 1012,7 hPa 0,0 mm 5,3 km/h (1 Bft) W-SW 254 ° 0 min 0,000 mm 0,0 UV-I 0 W/m² 9,4 °C 11,8 °C 11,3 km/h (2 Bft)
30.09.2019 20:33 11,8 °C 85 % 1012,7 hPa 0,0 mm 6,2 km/h (2 Bft) W 279 ° 0 min 0,000 mm 0,0 UV-I 0 W/m² 9,4 °C 11,8 °C 9,7 km/h (2 Bft)
30.09.2019 20:34 11,8 °C 85 % 1012,6 hPa 0,0 mm 4,2 km/h (1 Bft) W 264 ° 0 min 0,000 mm 0,0 UV-I 0 W/m² 9,4 °C 11,8 °C 6,4 km/h (2 Bft)
30.09.2019 20:35 11,8 °C 85 % 1012,7 hPa 0,0 mm 4,2 km/h (1 Bft) W 265 ° 0 min 0,000 mm 0,0 UV-I 0 W/m² 9,4 °C 11,8 °C 6,4 km/h (2 Bft)
30.09.2019 20:36 11,7 °C 85 % 1012,7 hPa 0,0 mm 3,4 km/h (1 Bft) W 266 ° 0 min 0,000 mm 0,0 UV-I 0 W/m² 9,3 °C 11,7 °C 4,8 km/h (1 Bft)
30.09.2019 20:37 11,8 °C 85 % 1012,6 hPa 0,0 mm 5,1 km/h (1 Bft) W 275 ° 0 min 0,000 mm 0,0 UV-I 0 W/m² 9,4 °C 11,8 °C 9,7 km/h (2 Bft)
30.09.2019 20:38 11,7 °C 85 % 1012,7 hPa 0,0 mm 4,7 km/h (1 Bft) W-SW 240 ° 0 min 0,000 mm 0,0 UV-I 0 W/m² 9,3 °C 11,7 °C 6,4 km/h (2 Bft)
30.09.2019 20:39 11,7 °C 85 % 1012,6 hPa 0,0 mm 3,9 km/h (1 Bft) W 263 ° 0 min 0,000 mm 0,0 UV-I 0 W/m² 9,3 °C 11,7 °C 6,4 km/h (2 Bft)
30.09.2019 20:40 11,7 °C 85 % 1012,7 hPa 0,0 mm 4,4 km/h (1 Bft) W 271 ° 0 min 0,000 mm 0,0 UV-I 0 W/m² 9,3 °C 11,7 °C 6,4 km/h (2 Bft)
30.09.2019 20:41 11,7 °C 85 % 1012,7 hPa 0,0 mm 4,2 km/h (1 Bft) W 268 ° 0 min 0,000 mm 0,0 UV-I 0 W/m² 9,3 °C 11,7 °C 6,4 km/h (2 Bft)
30.09.2019 20:42 11,7 °C 86 % 1012,6 hPa 0,0 mm 0,9 km/h (0 Bft) W-SW 254 ° 0 min 0,000 mm 0,0 UV-I 0 W/m² 9,4 °C 11,7 °C 3,2 km/h (1 Bft)
30.09.2019 20:43 11,7 °C 86 % 1012,7 hPa 0,0 mm 5,0 km/h (1 Bft) W 263 ° 0 min 0,000 mm 0,0 UV-I 0 W/m² 9,4 °C 11,7 °C 6,4 km/h (2 Bft)
30.09.2019 20:44 11,6 °C 86 % 1012,6 hPa 0,2 mm 4,4 km/h (1 Bft) W 265 ° 0 min 0,000 mm 0,0 UV-I 0 W/m² 9,3 °C 11,6 °C 9,7 km/h (2 Bft)
30.09.2019 20:45 11,6 °C 86 % 1012,7 hPa 0,0 mm 2,6 km/h (1 Bft) W 262 ° 0 min 0,000 mm 0,0 UV-I 0 W/m² 9,3 °C 11,6 °C 4,8 km/h (1 Bft)
30.09.2019 20:46 11,7 °C 86 % 1012,7 hPa 0,0 mm 1,9 km/h (1 Bft) W-SW 258 ° 0 min 0,000 mm 0,0 UV-I 0 W/m² 9,4 °C 11,7 °C 4,8 km/h (1 Bft)
30.09.2019 20:47 11,7 °C 86 % 1012,7 hPa 0,0 mm 1,4 km/h (1 Bft) W-SW 255 ° 0 min 0,000 mm 0,0 UV-I 0 W/m² 9,4 °C 11,7 °C 4,8 km/h (1 Bft)
30.09.2019 20:48 11,7 °C 86 % 1012,7 hPa 0,0 mm 2,5 km/h (1 Bft) W 275 ° 0 min 0,000 mm 0,0 UV-I 0 W/m² 9,4 °C 11,7 °C 4,8 km/h (1 Bft)
30.09.2019 20:49 11,7 °C 86 % 1012,7 hPa 0,0 mm 3,6 km/h (1 Bft) W 275 ° 0 min 0,000 mm 0,0 UV-I 0 W/m² 9,4 °C 11,7 °C 4,8 km/h (1 Bft)
30.09.2019 20:50 11,7 °C 86 % 1012,7 hPa 0,0 mm 1,3 km/h (1 Bft) W 275 ° 0 min 0,000 mm 0,0 UV-I 0 W/m² 9,4 °C 11,7 °C 4,8 km/h (1 Bft)
30.09.2019 20:51 11,7 °C 86 % 1012,7 hPa 0,0 mm 1,5 km/h (1 Bft) W 270 ° 0 min 0,000 mm 0,0 UV-I 0 W/m² 9,4 °C 11,7 °C 4,8 km/h (1 Bft)
30.09.2019 20:52 11,7 °C 86 % 1012,7 hPa 0,0 mm 3,3 km/h (1 Bft) W 267 ° 0 min 0,000 mm 0,0 UV-I 0 W/m² 9,4 °C 11,7 °C 4,8 km/h (1 Bft)
30.09.2019 20:53 11,7 °C 86 % 1012,7 hPa 0,0 mm 3,4 km/h (1 Bft) W 267 ° 0 min 0,000 mm 0,0 UV-I 0 W/m² 9,4 °C 11,7 °C 6,4 km/h (2 Bft)
30.09.2019 20:54 11,7 °C 86 % 1012,7 hPa 0,0 mm 1,4 km/h (1 Bft) W 267 ° 0 min 0,000 mm 0,0 UV-I 0 W/m² 9,4 °C 11,7 °C 4,8 km/h (1 Bft)
30.09.2019 20:55 11,7 °C 86 % 1012,7 hPa 0,0 mm 1,4 km/h (1 Bft) W 267 ° 0 min 0,000 mm 0,0 UV-I 0 W/m² 9,4 °C 11,7 °C 4,8 km/h (1 Bft)
30.09.2019 20:56 11,7 °C 86 % 1012,7 hPa 0,0 mm 4,3 km/h (1 Bft) W-SW 247 ° 0 min 0,000 mm 0,0 UV-I 0 W/m² 9,4 °C 11,7 °C 4,8 km/h (1 Bft)
30.09.2019 20:57 11,6 °C 86 % 1012,7 hPa 0,0 mm 5,0 km/h (1 Bft) W 267 ° 0 min 0,000 mm 0,0 UV-I 0 W/m² 9,3 °C 11,6 °C 6,4 km/h (2 Bft)
30.09.2019 20:58 11,6 °C 86 % 1012,7 hPa 0,0 mm 3,6 km/h (1 Bft) W 265 ° 0 min 0,000 mm 0,0 UV-I 0 W/m² 9,3 °C 11,6 °C 6,4 km/h (2 Bft)
30.09.2019 20:59 11,6 °C 86 % 1012,7 hPa 0,0 mm 1,3 km/h (1 Bft) W 261 ° 0 min 0,000 mm 0,0 UV-I 0 W/m² 9,3 °C 11,6 °C 3,2 km/h (1 Bft)
30.09.2019 21:00 11,6 °C 86 % 1012,7 hPa 0,0 mm 0,6 km/h (0 Bft) W 261 ° 0 min 0,000 mm 0,0 UV-I 0 W/m² 9,3 °C 11,6 °C 4,8 km/h (1 Bft)
30.09.2019 21:01 11,6 °C 86 % 1012,7 hPa 0,0 mm 4,3 km/h (1 Bft) W-SW 251 ° 0 min 0,026 mm 0,0 UV-I 0 W/m² 9,3 °C 11,6 °C 6,4 km/h (2 Bft)
30.09.2019 21:02 11,6 °C 86 % 1012,7 hPa 0,0 mm 2,6 km/h (1 Bft) W-SW 252 ° 0 min 0,000 mm 0,0 UV-I 0 W/m² 9,3 °C 11,6 °C 4,8 km/h (1 Bft)
30.09.2019 21:03 11,6 °C 86 % 1012,7 hPa 0,0 mm 1,9 km/h (1 Bft) W-SW 252 ° 0 min 0,000 mm 0,0 UV-I 0 W/m² 9,3 °C 11,6 °C 3,2 km/h (1 Bft)
30.09.2019 21:04 11,6 °C 86 % 1012,7 hPa 0,0 mm 1,7 km/h (1 Bft) W-SW 251 ° 0 min 0,000 mm 0,0 UV-I 0 W/m² 9,3 °C 11,6 °C 3,2 km/h (1 Bft)
30.09.2019 21:05 11,5 °C 86 % 1012,8 hPa 0,0 mm 2,2 km/h (1 Bft) W-SW 252 ° 0 min 0,000 mm 0,0 UV-I 0 W/m² 9,2 °C 11,5 °C 4,8 km/h (1 Bft)
30.09.2019 21:06 11,5 °C 87 % 1012,7 hPa 0,0 mm 2,8 km/h (1 Bft) W-SW 250 ° 0 min 0,000 mm 0,0 UV-I 0 W/m² 9,4 °C 11,5 °C 4,8 km/h (1 Bft)
30.09.2019 21:07 11,4 °C 87 % 1012,7 hPa 0,0 mm 0,0 km/h (0 Bft) W-SW 246 ° 0 min 0,000 mm 0,0 UV-I 0 W/m² 9,3 °C 11,4 °C 0,0 km/h (0 Bft)
30.09.2019 21:08 11,4 °C 87 % 1012,8 hPa 0,0 mm 1,8 km/h (1 Bft) W-SW 248 ° 0 min 0,000 mm 0,0 UV-I 0 W/m² 9,3 °C 11,4 °C 4,8 km/h (1 Bft)
30.09.2019 21:09 11,4 °C 87 % 1012,7 hPa 0,0 mm 0,0 km/h (0 Bft) W-SW 248 ° 0 min 0,000 mm 0,0 UV-I 0 W/m² 9,3 °C 11,4 °C 0,0 km/h (0 Bft)
30.09.2019 21:10 11,4 °C 87 % 1012,7 hPa 0,0 mm 0,0 km/h (0 Bft) W-SW 248 ° 0 min 0,000 mm 0,0 UV-I 0 W/m² 9,3 °C 11,4 °C 0,0 km/h (0 Bft)
30.09.2019 21:11 11,4 °C 87 % 1012,7 hPa 0,0 mm 0,0 km/h (0 Bft) W-SW 248 ° 0 min 0,000 mm 0,0 UV-I 0 W/m² 9,3 °C 11,4 °C 0,0 km/h (0 Bft)
30.09.2019 21:12 11,3 °C 87 % 1012,7 hPa 0,0 mm 0,0 km/h (0 Bft) W-SW 248 ° 0 min 0,000 mm 0,0 UV-I 0 W/m² 9,2 °C 11,3 °C 0,0 km/h (0 Bft)
30.09.2019 21:13 11,4 °C 87 % 1012,7 hPa 0,0 mm 0,0 km/h (0 Bft) W-SW 248 ° 0 min 0,000 mm 0,0 UV-I 0 W/m² 9,3 °C 11,4 °C 0,0 km/h (0 Bft)
30.09.2019 21:14 11,3 °C 87 % 1012,8 hPa 0,0 mm 0,0 km/h (0 Bft) W-SW 248 ° 0 min 0,000 mm 0,0 UV-I 0 W/m² 9,2 °C 11,3 °C 0,0 km/h (0 Bft)
30.09.2019 21:15 11,3 °C 87 % 1012,7 hPa 0,0 mm 0,3 km/h (0 Bft) W-SW 248 ° 0 min 0,000 mm 0,0 UV-I 0 W/m² 9,2 °C 11,3 °C 1,6 km/h (1 Bft)
30.09.2019 21:16 11,3 °C 87 % 1012,7 hPa 0,0 mm 0,1 km/h (0 Bft) W-SW 248 ° 0 min 0,000 mm 0,0 UV-I 0 W/m² 9,2 °C 11,3 °C 1,6 km/h (1 Bft)
30.09.2019 21:17 11,3 °C 87 % 1012,7 hPa 0,0 mm 0,0 km/h (0 Bft) W-SW 248 ° 0 min 0,000 mm 0,0 UV-I 0 W/m² 9,2 °C 11,3 °C 0,0 km/h (0 Bft)
30.09.2019 21:18 11,3 °C 87 % 1012,8 hPa 0,0 mm 0,0 km/h (0 Bft) W-SW 248 ° 0 min 0,000 mm 0,0 UV-I 0 W/m² 9,2 °C 11,3 °C 0,0 km/h (0 Bft)
30.09.2019 21:19 11,4 °C 87 % 1012,7 hPa 0,0 mm 0,0 km/h (0 Bft) W-SW 248 ° 0 min 0,000 mm 0,0 UV-I 0 W/m² 9,3 °C 11,4 °C 0,0 km/h (0 Bft)
30.09.2019 21:20 11,4 °C 87 % 1012,8 hPa 0,0 mm 0,0 km/h (0 Bft) W-SW 248 ° 0 min 0,000 mm 0,0 UV-I 0 W/m² 9,3 °C 11,4 °C 0,0 km/h (0 Bft)
30.09.2019 21:21 11,4 °C 87 % 1012,7 hPa 0,0 mm 0,0 km/h (0 Bft) W-SW 248 ° 0 min 0,000 mm 0,0 UV-I 0 W/m² 9,3 °C 11,4 °C 0,0 km/h (0 Bft)
30.09.2019 21:22 11,4 °C 87 % 1012,7 hPa 0,0 mm 0,0 km/h (0 Bft) W-SW 248 ° 0 min 0,000 mm 0,0 UV-I 0 W/m² 9,3 °C 11,4 °C 0,0 km/h (0 Bft)
30.09.2019 21:23 11,4 °C 87 % 1012,7 hPa 0,0 mm 0,0 km/h (0 Bft) W-SW 248 ° 0 min 0,000 mm 0,0 UV-I 0 W/m² 9,3 °C 11,4 °C 0,0 km/h (0 Bft)
30.09.2019 21:24 11,4 °C 87 % 1012,7 hPa 0,0 mm 0,0 km/h (0 Bft) W-SW 248 ° 0 min 0,000 mm 0,0 UV-I 0 W/m² 9,3 °C 11,4 °C 0,0 km/h (0 Bft)
30.09.2019 21:25 11,4 °C 87 % 1012,7 hPa 0,0 mm 0,0 km/h (0 Bft) W-SW 248 ° 0 min 0,000 mm 0,0 UV-I 0 W/m² 9,3 °C 11,4 °C 0,0 km/h (0 Bft)
30.09.2019 21:26 11,4 °C 87 % 1012,7 hPa 0,0 mm 0,0 km/h (0 Bft) W-SW 248 ° 0 min 0,000 mm 0,0 UV-I 0 W/m² 9,3 °C 11,4 °C 0,0 km/h (0 Bft)
30.09.2019 21:27 11,4 °C 87 % 1012,7 hPa 0,0 mm 0,0 km/h (0 Bft) W-SW 248 ° 0 min 0,000 mm 0,0 UV-I 0 W/m² 9,3 °C 11,4 °C 0,0 km/h (0 Bft)
30.09.2019 21:28 11,4 °C 87 % 1012,7 hPa 0,0 mm 0,0 km/h (0 Bft) W-SW 248 ° 0 min 0,000 mm 0,0 UV-I 0 W/m² 9,3 °C 11,4 °C 0,0 km/h (0 Bft)
30.09.2019 21:29 11,4 °C 87 % 1012,7 hPa 0,0 mm 0,0 km/h (0 Bft) W-SW 248 ° 0 min 0,000 mm 0,0 UV-I 0 W/m² 9,3 °C 11,4 °C 0,0 km/h (0 Bft)
30.09.2019 21:30 11,3 °C 86 % 1012,7 hPa 0,0 mm 0,0 km/h (0 Bft) W-SW 248 ° 0 min 0,000 mm 0,0 UV-I 0 W/m² 9,0 °C 11,3 °C 0,0 km/h (0 Bft)
30.09.2019 21:31 11,2 °C 87 % 1012,7 hPa 0,0 mm 0,0 km/h (0 Bft) W-SW 248 ° 0 min 0,000 mm 0,0 UV-I 0 W/m² 9,1 °C 11,2 °C 0,0 km/h (0 Bft)
30.09.2019 21:32 11,2 °C 87 % 1012,7 hPa 0,0 mm 0,0 km/h (0 Bft) W-SW 248 ° 0 min 0,000 mm 0,0 UV-I 0 W/m² 9,1 °C 11,2 °C 0,0 km/h (0 Bft)
30.09.2019 21:33 11,0 °C 87 % 1012,7 hPa 0,0 mm 0,0 km/h (0 Bft) W-SW 248 ° 0 min 0,000 mm 0,0 UV-I 0 W/m² 8,9 °C 11,0 °C 0,0 km/h (0 Bft)
30.09.2019 21:34 10,9 °C 87 % 1012,7 hPa 0,0 mm 0,0 km/h (0 Bft) W-SW 248 ° 0 min 0,000 mm 0,0 UV-I 0 W/m² 8,8 °C 10,9 °C 0,0 km/h (0 Bft)
30.09.2019 21:35 10,8 °C 87 % 1012,7 hPa 0,0 mm 0,0 km/h (0 Bft) W-SW 248 ° 0 min 0,000 mm 0,0 UV-I 0 W/m² 8,7 °C 10,8 °C 0,0 km/h (0 Bft)
30.09.2019 21:36 10,7 °C 87 % 1012,7 hPa 0,0 mm 0,0 km/h (0 Bft) W-SW 248 ° 0 min 0,000 mm 0,0 UV-I 0 W/m² 8,6 °C 10,7 °C 0,0 km/h (0 Bft)
30.09.2019 21:37 10,6 °C 88 % 1012,7 hPa 0,0 mm 0,0 km/h (0 Bft) W-SW 248 ° 0 min 0,000 mm 0,0 UV-I 0 W/m² 8,7 °C 10,6 °C 0,0 km/h (0 Bft)
30.09.2019 21:38 10,5 °C 88 % 1012,7 hPa 0,0 mm 0,0 km/h (0 Bft) W-SW 248 ° 0 min 0,000 mm 0,0 UV-I 0 W/m² 8,6 °C 10,5 °C 0,0 km/h (0 Bft)
30.09.2019 21:39 10,4 °C 89 % 1012,8 hPa 0,0 mm 0,0 km/h (0 Bft) W-SW 248 ° 0 min 0,000 mm 0,0 UV-I 0 W/m² 8,7 °C 10,4 °C 0,0 km/h (0 Bft)
30.09.2019 21:40 10,4 °C 89 % 1012,8 hPa 0,0 mm 0,0 km/h (0 Bft) W-SW 248 ° 0 min 0,000 mm 0,0 UV-I 0 W/m² 8,7 °C 10,4 °C 0,0 km/h (0 Bft)
30.09.2019 21:41 10,3 °C 89 % 1012,7 hPa 0,0 mm 0,0 km/h (0 Bft) W-SW 248 ° 0 min 0,000 mm 0,0 UV-I 0 W/m² 8,6 °C 10,3 °C 0,0 km/h (0 Bft)
30.09.2019 21:42 10,3 °C 89 % 1012,7 hPa 0,0 mm 0,0 km/h (0 Bft) W-SW 248 ° 0 min 0,000 mm 0,0 UV-I 0 W/m² 8,6 °C 10,3 °C 0,0 km/h (0 Bft)
30.09.2019 21:43 10,3 °C 89 % 1012,7 hPa 0,0 mm 0,0 km/h (0 Bft) W-SW 248 ° 0 min 0,000 mm 0,0 UV-I 0 W/m² 8,6 °C 10,3 °C 0,0 km/h (0 Bft)
30.09.2019 21:44 10,2 °C 90 % 1012,7 hPa 0,0 mm 0,0 km/h (0 Bft) W-SW 248 ° 0 min 0,000 mm 0,0 UV-I 0 W/m² 8,6 °C 10,2 °C 0,0 km/h (0 Bft)
30.09.2019 21:45 10,2 °C 90 % 1012,7 hPa 0,0 mm 0,0 km/h (0 Bft) W-SW 248 ° 0 min 0,000 mm 0,0 UV-I 0 W/m² 8,6 °C 10,2 °C 0,0 km/h (0 Bft)
30.09.2019 21:46 10,2 °C 90 % 1012,7 hPa 0,0 mm 0,0 km/h (0 Bft) W-SW 248 ° 0 min 0,000 mm 0,0 UV-I 0 W/m² 8,6 °C 10,2 °C 0,0 km/h (0 Bft)
30.09.2019 21:47 10,2 °C 90 % 1012,7 hPa 0,0 mm 0,0 km/h (0 Bft) W-SW 248 ° 0 min 0,000 mm 0,0 UV-I 0 W/m² 8,6 °C 10,2 °C 0,0 km/h (0 Bft)
30.09.2019 21:48 10,1 °C 90 % 1012,7 hPa 0,0 mm 0,0 km/h (0 Bft) W-SW 248 ° 0 min 0,000 mm 0,0 UV-I 0 W/m² 8,5 °C 10,1 °C 0,0 km/h (0 Bft)
30.09.2019 21:49 10,1 °C 90 % 1012,7 hPa 0,0 mm 0,0 km/h (0 Bft) W-SW 248 ° 0 min 0,000 mm 0,0 UV-I 0 W/m² 8,5 °C 10,1 °C 0,0 km/h (0 Bft)
30.09.2019 21:50 10,1 °C 90 % 1012,7 hPa 0,0 mm 0,0 km/h (0 Bft) W-SW 248 ° 0 min 0,000 mm 0,0 UV-I 0 W/m² 8,5 °C 10,1 °C 0,0 km/h (0 Bft)
30.09.2019 21:51 10,1 °C 90 % 1012,8 hPa 0,0 mm 0,0 km/h (0 Bft) W-SW 248 ° 0 min 0,000 mm 0,0 UV-I 0 W/m² 8,5 °C 10,1 °C 0,0 km/h (0 Bft)
30.09.2019 21:52 10,0 °C 90 % 1012,8 hPa 0,0 mm 0,0 km/h (0 Bft) W-SW 248 ° 0 min 0,000 mm 0,0 UV-I 0 W/m² 8,4 °C 10,0 °C 0,0 km/h (0 Bft)
30.09.2019 21:53 9,9 °C 90 % 1012,8 hPa 0,0 mm 0,0 km/h (0 Bft) W-SW 248 ° 0 min 0,000 mm 0,0 UV-I 0 W/m² 8,3 °C 9,9 °C 0,0 km/h (0 Bft)
30.09.2019 21:54 9,9 °C 90 % 1012,8 hPa 0,0 mm 0,0 km/h (0 Bft) W-SW 248 ° 0 min 0,000 mm 0,0 UV-I 0 W/m² 8,3 °C 9,9 °C 0,0 km/h (0 Bft)
30.09.2019 21:55 9,9 °C 91 % 1012,7 hPa 0,0 mm 0,0 km/h (0 Bft) W-SW 248 ° 0 min 0,000 mm 0,0 UV-I 0 W/m² 8,5 °C 9,9 °C 0,0 km/h (0 Bft)
30.09.2019 21:56 9,9 °C 91 % 1012,7 hPa 0,0 mm 0,0 km/h (0 Bft) W-SW 248 ° 0 min 0,000 mm 0,0 UV-I 0 W/m² 8,5 °C 9,9 °C 0,0 km/h (0 Bft)
30.09.2019 21:57 9,8 °C 91 % 1012,8 hPa 0,0 mm 0,0 km/h (0 Bft) W-SW 248 ° 0 min 0,000 mm 0,0 UV-I 0 W/m² 8,4 °C 9,8 °C 0,0 km/h (0 Bft)
30.09.2019 21:58 9,8 °C 91 % 1012,7 hPa 0,0 mm 0,0 km/h (0 Bft) W-SW 248 ° 0 min 0,000 mm 0,0 UV-I 0 W/m² 8,4 °C 9,8 °C 0,0 km/h (0 Bft)
30.09.2019 21:59 9,8 °C 91 % 1012,8 hPa 0,0 mm 0,0 km/h (0 Bft) W-SW 248 ° 0 min 0,000 mm 0,0 UV-I 0 W/m² 8,4 °C 9,8 °C 0,0 km/h (0 Bft)
30.09.2019 22:00 9,8 °C 91 % 1012,7 hPa 0,0 mm 0,0 km/h (0 Bft) W-SW 248 ° 0 min 0,000 mm 0,0 UV-I 0 W/m² 8,4 °C 9,8 °C 0,0 km/h (0 Bft)
30.09.2019 22:01 9,8 °C 91 % 1012,7 hPa 0,0 mm 0,0 km/h (0 Bft) W-SW 248 ° 0 min 0,000 mm 0,0 UV-I 0 W/m² 8,4 °C 9,8 °C 0,0 km/h (0 Bft)
30.09.2019 22:02 9,8 °C 91 % 1012,7 hPa 0,0 mm 0,0 km/h (0 Bft) W-SW 248 ° 0 min 0,000 mm 0,0 UV-I 0 W/m² 8,4 °C 9,8 °C 0,0 km/h (0 Bft)
30.09.2019 22:03 9,8 °C 91 % 1012,7 hPa 0,0 mm 0,0 km/h (0 Bft) W-SW 248 ° 0 min 0,000 mm 0,0 UV-I 0 W/m² 8,4 °C 9,8 °C 0,0 km/h (0 Bft)
30.09.2019 22:04 9,8 °C 91 % 1012,8 hPa 0,0 mm 0,0 km/h (0 Bft) W-SW 248 ° 0 min 0,000 mm 0,0 UV-I 0 W/m² 8,4 °C 9,8 °C 0,0 km/h (0 Bft)
30.09.2019 22:05 9,7 °C 91 % 1012,8 hPa 0,0 mm 0,0 km/h (0 Bft) W-SW 248 ° 0 min 0,000 mm 0,0 UV-I 0 W/m² 8,3 °C 9,7 °C 0,0 km/h (0 Bft)
30.09.2019 22:06 9,7 °C 91 % 1012,9 hPa 0,0 mm 0,0 km/h (0 Bft) W-SW 248 ° 0 min 0,000 mm 0,0 UV-I 0 W/m² 8,3 °C 9,7 °C 0,0 km/h (0 Bft)
30.09.2019 22:07 9,6 °C 91 % 1012,9 hPa 0,0 mm 0,0 km/h (0 Bft) W-SW 248 ° 0 min 0,000 mm 0,0 UV-I 0 W/m² 8,2 °C 9,6 °C 0,0 km/h (0 Bft)
30.09.2019 22:08 9,6 °C 91 % 1012,9 hPa 0,0 mm 0,0 km/h (0 Bft) W-SW 248 ° 0 min 0,000 mm 0,0 UV-I 0 W/m² 8,2 °C 9,6 °C 0,0 km/h (0 Bft)
30.09.2019 22:09 9,5 °C 91 % 1012,9 hPa 0,0 mm 0,0 km/h (0 Bft) W-SW 248 ° 0 min 0,000 mm 0,0 UV-I 0 W/m² 8,1 °C 9,5 °C 0,0 km/h (0 Bft)
30.09.2019 22:10 9,5 °C 92 % 1012,9 hPa 0,0 mm 0,0 km/h (0 Bft) W-SW 248 ° 0 min 0,000 mm 0,0 UV-I 0 W/m² 8,3 °C 9,5 °C 0,0 km/h (0 Bft)
30.09.2019 22:11 9,6 °C 92 % 1012,9 hPa 0,0 mm 0,0 km/h (0 Bft) W-SW 248 ° 0 min 0,000 mm 0,0 UV-I 0 W/m² 8,4 °C 9,6 °C 0,0 km/h (0 Bft)
30.09.2019 22:12 9,6 °C 92 % 1012,9 hPa 0,0 mm 0,0 km/h (0 Bft) W-SW 248 ° 0 min 0,000 mm 0,0 UV-I 0 W/m² 8,4 °C 9,6 °C 0,0 km/h (0 Bft)
30.09.2019 22:13 9,6 °C 92 % 1012,8 hPa 0,0 mm 0,0 km/h (0 Bft) W-SW 248 ° 0 min 0,000 mm 0,0 UV-I 0 W/m² 8,4 °C 9,6 °C 0,0 km/h (0 Bft)
30.09.2019 22:14 9,6 °C 92 % 1012,9 hPa 0,0 mm 0,0 km/h (0 Bft) W-SW 248 ° 0 min 0,000 mm 0,0 UV-I 0 W/m² 8,4 °C 9,6 °C 0,0 km/h (0 Bft)
30.09.2019 22:15 9,6 °C 92 % 1012,8 hPa 0,0 mm 0,0 km/h (0 Bft) W-SW 248 ° 0 min 0,000 mm 0,0 UV-I 0 W/m² 8,4 °C 9,6 °C 0,0 km/h (0 Bft)
30.09.2019 22:16 9,6 °C 92 % 1012,9 hPa 0,0 mm 0,0 km/h (0 Bft) W-SW 248 ° 0 min 0,000 mm 0,0 UV-I 0 W/m² 8,4 °C 9,6 °C 0,0 km/h (0 Bft)
30.09.2019 22:17 9,4 °C 92 % 1012,9 hPa 0,0 mm 0,0 km/h (0 Bft) W-SW 248 ° 0 min 0,000 mm 0,0 UV-I 0 W/m² 8,2 °C 9,4 °C 0,0 km/h (0 Bft)
30.09.2019 22:18 9,4 °C 92 % 1012,9 hPa 0,0 mm 0,0 km/h (0 Bft) W-SW 248 ° 0 min 0,000 mm 0,0 UV-I 0 W/m² 8,2 °C 9,4 °C 0,0 km/h (0 Bft)
30.09.2019 22:19 9,3 °C 92 % 1012,8 hPa 0,0 mm 0,0 km/h (0 Bft) W-SW 248 ° 0 min 0,000 mm 0,0 UV-I 0 W/m² 8,1 °C 9,3 °C 0,0 km/h (0 Bft)
30.09.2019 22:20 9,4 °C 92 % 1012,9 hPa 0,0 mm 0,0 km/h (0 Bft) W-SW 248 ° 0 min 0,000 mm 0,0 UV-I 0 W/m² 8,2 °C 9,4 °C 0,0 km/h (0 Bft)
30.09.2019 22:21 9,4 °C 92 % 1012,9 hPa 0,0 mm 0,0 km/h (0 Bft) W-SW 248 ° 0 min 0,000 mm 0,0 UV-I 0 W/m² 8,2 °C 9,4 °C 0,0 km/h (0 Bft)
30.09.2019 22:22 9,6 °C 92 % 1012,9 hPa 0,0 mm 0,0 km/h (0 Bft) W-SW 248 ° 0 min 0,000 mm 0,0 UV-I 0 W/m² 8,4 °C 9,6 °C 0,0 km/h (0 Bft)
30.09.2019 22:23 9,7 °C 93 % 1012,9 hPa 0,0 mm 0,0 km/h (0 Bft) W-SW 248 ° 0 min 0,000 mm 0,0 UV-I 0 W/m² 8,6 °C 9,7 °C 0,0 km/h (0 Bft)
30.09.2019 22:24 9,6 °C 92 % 1012,9 hPa 0,0 mm 0,0 km/h (0 Bft) W-SW 248 ° 0 min 0,000 mm 0,0 UV-I 0 W/m² 8,4 °C 9,6 °C 0,0 km/h (0 Bft)
30.09.2019 22:25 9,4 °C 91 % 1012,9 hPa 0,0 mm 0,0 km/h (0 Bft) W-SW 248 ° 0 min 0,000 mm 0,0 UV-I 0 W/m² 8,0 °C 9,4 °C 0,0 km/h (0 Bft)
30.09.2019 22:26 9,4 °C 92 % 1012,9 hPa 0,0 mm 0,0 km/h (0 Bft) W-SW 248 ° 0 min 0,000 mm 0,0 UV-I 0 W/m² 8,2 °C 9,4 °C 0,0 km/h (0 Bft)
30.09.2019 22:27 9,3 °C 92 % 1013,0 hPa 0,0 mm 0,0 km/h (0 Bft) W-SW 248 ° 0 min 0,000 mm 0,0 UV-I 0 W/m² 8,1 °C 9,3 °C 0,0 km/h (0 Bft)
30.09.2019 22:28 9,2 °C 92 % 1013,0 hPa 0,0 mm 0,0 km/h (0 Bft) W-SW 248 ° 0 min 0,000 mm 0,0 UV-I 0 W/m² 8,0 °C 9,2 °C 0,0 km/h (0 Bft)
30.09.2019 22:29 9,2 °C 92 % 1012,9 hPa 0,0 mm 0,0 km/h (0 Bft) W-SW 248 ° 0 min 0,000 mm 0,0 UV-I 0 W/m² 8,0 °C 9,2 °C 0,0 km/h (0 Bft)
30.09.2019 22:30 9,2 °C 92 % 1013,0 hPa 0,0 mm 0,0 km/h (0 Bft) W-SW 248 ° 0 min 0,000 mm 0,0 UV-I 0 W/m² 8,0 °C 9,2 °C 0,0 km/h (0 Bft)
30.09.2019 22:31 9,3 °C 92 % 1012,9 hPa 0,0 mm 0,0 km/h (0 Bft) W-SW 248 ° 0 min 0,000 mm 0,0 UV-I 0 W/m² 8,1 °C 9,3 °C 0,0 km/h (0 Bft)
30.09.2019 22:32 9,3 °C 92 % 1013,0 hPa 0,0 mm 0,0 km/h (0 Bft) W-SW 248 ° 0 min 0,000 mm 0,0 UV-I 0 W/m² 8,1 °C 9,3 °C 0,0 km/h (0 Bft)
30.09.2019 22:33 9,3 °C 92 % 1013,0 hPa 0,0 mm 0,0 km/h (0 Bft) W-SW 248 ° 0 min 0,000 mm 0,0 UV-I 0 W/m² 8,1 °C 9,3 °C 0,0 km/h (0 Bft)
30.09.2019 22:34 9,2 °C 92 % 1013,0 hPa 0,0 mm 0,0 km/h (0 Bft) W-SW 248 ° 0 min 0,000 mm 0,0 UV-I 0 W/m² 8,0 °C 9,2 °C 0,0 km/h (0 Bft)
30.09.2019 22:35 9,2 °C 92 % 1013,0 hPa 0,0 mm 0,0 km/h (0 Bft) W-SW 248 ° 0 min 0,000 mm 0,0 UV-I 0 W/m² 8,0 °C 9,2 °C 0,0 km/h (0 Bft)
30.09.2019 22:36 9,1 °C 92 % 1013,0 hPa 0,0 mm 0,0 km/h (0 Bft) W-SW 248 ° 0 min 0,000 mm 0,0 UV-I 0 W/m² 7,9 °C 9,1 °C 0,0 km/h (0 Bft)
30.09.2019 22:37 9,0 °C 92 % 1013,0 hPa 0,0 mm 0,0 km/h (0 Bft) W-SW 248 ° 0 min 0,000 mm 0,0 UV-I 0 W/m² 7,8 °C 9,0 °C 0,0 km/h (0 Bft)
30.09.2019 22:38 9,0 °C 92 % 1013,0 hPa 0,0 mm 0,0 km/h (0 Bft) W-SW 248 ° 0 min 0,000 mm 0,0 UV-I 0 W/m² 7,8 °C 9,0 °C 0,0 km/h (0 Bft)
30.09.2019 22:39 8,9 °C 92 % 1013,0 hPa 0,0 mm 0,0 km/h (0 Bft) W-SW 248 ° 0 min 0,000 mm 0,0 UV-I 0 W/m² 7,7 °C 8,9 °C 0,0 km/h (0 Bft)
30.09.2019 22:40 8,9 °C 92 % 1013,1 hPa 0,0 mm 0,0 km/h (0 Bft) W-SW 248 ° 0 min 0,000 mm 0,0 UV-I 0 W/m² 7,7 °C 8,9 °C 0,0 km/h (0 Bft)
30.09.2019 22:41 8,9 °C 92 % 1013,1 hPa 0,0 mm 0,0 km/h (0 Bft) W-SW 248 ° 0 min 0,000 mm 0,0 UV-I 0 W/m² 7,7 °C 8,9 °C 0,0 km/h (0 Bft)
30.09.2019 22:42 8,9 °C 92 % 1013,0 hPa 0,0 mm 0,0 km/h (0 Bft) W-SW 248 ° 0 min 0,000 mm 0,0 UV-I 0 W/m² 7,7 °C 8,9 °C 0,0 km/h (0 Bft)
30.09.2019 22:43 9,0 °C 92 % 1013,0 hPa 0,0 mm 0,0 km/h (0 Bft) W-SW 248 ° 0 min 0,000 mm 0,0 UV-I 0 W/m² 7,8 °C 9,0 °C 0,0 km/h (0 Bft)
30.09.2019 22:44 9,0 °C 92 % 1013,0 hPa 0,0 mm 0,0 km/h (0 Bft) W-SW 248 ° 0 min 0,000 mm 0,0 UV-I 0 W/m² 7,8 °C 9,0 °C 0,0 km/h (0 Bft)
30.09.2019 22:45 9,1 °C 92 % 1013,0 hPa 0,0 mm 0,0 km/h (0 Bft) W-SW 248 ° 0 min 0,000 mm 0,0 UV-I 0 W/m² 7,9 °C 9,1 °C 0,0 km/h (0 Bft)
30.09.2019 22:46 9,1 °C 92 % 1013,0 hPa 0,0 mm 0,0 km/h (0 Bft) W-SW 248 ° 0 min 0,000 mm 0,0 UV-I 0 W/m² 7,9 °C 9,1 °C 0,0 km/h (0 Bft)
30.09.2019 22:47 9,0 °C 92 % 1013,0 hPa 0,0 mm 0,0 km/h (0 Bft) W-SW 248 ° 0 min 0,000 mm 0,0 UV-I 0 W/m² 7,8 °C 9,0 °C 0,0 km/h (0 Bft)
30.09.2019 22:48 8,9 °C 92 % 1013,0 hPa 0,0 mm 0,0 km/h (0 Bft) W-SW 248 ° 0 min 0,000 mm 0,0 UV-I 0 W/m² 7,7 °C 8,9 °C 0,0 km/h (0 Bft)
30.09.2019 22:49 8,9 °C 92 % 1013,0 hPa 0,0 mm 0,0 km/h (0 Bft) W-SW 248 ° 0 min 0,000 mm 0,0 UV-I 0 W/m² 7,7 °C 8,9 °C 0,0 km/h (0 Bft)
30.09.2019 22:50 8,8 °C 92 % 1012,9 hPa 0,0 mm 0,0 km/h (0 Bft) W-SW 248 ° 0 min 0,000 mm 0,0 UV-I 0 W/m² 7,6 °C 8,8 °C 0,0 km/h (0 Bft)
30.09.2019 22:51 8,8 °C 92 % 1012,9 hPa 0,0 mm 0,0 km/h (0 Bft) W-SW 248 ° 0 min 0,000 mm 0,0 UV-I 0 W/m² 7,6 °C 8,8 °C 0,0 km/h (0 Bft)
30.09.2019 22:52 8,8 °C 92 % 1012,9 hPa 0,0 mm 0,0 km/h (0 Bft) W-SW 248 ° 0 min 0,000 mm 0,0 UV-I 0 W/m² 7,6 °C 8,8 °C 0,0 km/h (0 Bft)
30.09.2019 22:53 8,8 °C 92 % 1012,9 hPa 0,0 mm 0,0 km/h (0 Bft) W-SW 248 ° 0 min 0,000 mm 0,0 UV-I 0 W/m² 7,6 °C 8,8 °C 0,0 km/h (0 Bft)
30.09.2019 22:54 8,8 °C 92 % 1012,9 hPa 0,0 mm 0,0 km/h (0 Bft) W-SW 248 ° 0 min 0,000 mm 0,0 UV-I 0 W/m² 7,6 °C 8,8 °C 0,0 km/h (0 Bft)
30.09.2019 22:55 8,8 °C 93 % 1012,9 hPa 0,0 mm 0,0 km/h (0 Bft) W-SW 248 ° 0 min 0,000 mm 0,0 UV-I 0 W/m² 7,7 °C 8,8 °C 0,0 km/h (0 Bft)
30.09.2019 22:56 8,8 °C 92 % 1012,9 hPa 0,0 mm 0,0 km/h (0 Bft) W-SW 248 ° 0 min 0,000 mm 0,0 UV-I 0 W/m² 7,6 °C 8,8 °C 0,0 km/h (0 Bft)
30.09.2019 22:57 8,7 °C 92 % 1012,9 hPa 0,0 mm 0,0 km/h (0 Bft) W-SW 248 ° 0 min 0,000 mm 0,0 UV-I 0 W/m² 7,5 °C 8,7 °C 0,0 km/h (0 Bft)
30.09.2019 22:58 8,6 °C 92 % 1012,9 hPa 0,0 mm 0,0 km/h (0 Bft) W-SW 248 ° 0 min 0,000 mm 0,0 UV-I 0 W/m² 7,4 °C 8,6 °C 0,0 km/h (0 Bft)
30.09.2019 22:59 8,6 °C 92 % 1012,9 hPa 0,0 mm 0,0 km/h (0 Bft) W-SW 248 ° 0 min 0,000 mm 0,0 UV-I 0 W/m² 7,4 °C 8,6 °C 0,0 km/h (0 Bft)
30.09.2019 23:00 8,5 °C 92 % 1012,9 hPa 0,0 mm 0,0 km/h (0 Bft) W-SW 248 ° 0 min 0,000 mm 0,0 UV-I 0 W/m² 7,3 °C 8,5 °C 0,0 km/h (0 Bft)
30.09.2019 23:01 8,6 °C 92 % 1012,9 hPa 0,0 mm 0,0 km/h (0 Bft) W-SW 248 ° 0 min 0,000 mm 0,0 UV-I 0 W/m² 7,4 °C 8,6 °C 0,0 km/h (0 Bft)
30.09.2019 23:02 8,4 °C 92 % 1012,9 hPa 0,0 mm 0,0 km/h (0 Bft) W-SW 248 ° 0 min 0,000 mm 0,0 UV-I 0 W/m² 7,2 °C 8,4 °C 0,0 km/h (0 Bft)
30.09.2019 23:03 8,3 °C 92 % 1012,9 hPa 0,0 mm 0,0 km/h (0 Bft) W-SW 248 ° 0 min 0,000 mm 0,0 UV-I 0 W/m² 7,1 °C 8,3 °C 0,0 km/h (0 Bft)
30.09.2019 23:04 8,3 °C 92 % 1012,9 hPa 0,0 mm 0,0 km/h (0 Bft) W-SW 248 ° 0 min 0,000 mm 0,0 UV-I 0 W/m² 7,1 °C 8,3 °C 0,0 km/h (0 Bft)
30.09.2019 23:05 8,3 °C 92 % 1012,9 hPa 0,0 mm 0,0 km/h (0 Bft) W-SW 248 ° 0 min 0,000 mm 0,0 UV-I 0 W/m² 7,1 °C 8,3 °C 0,0 km/h (0 Bft)
30.09.2019 23:06 8,3 °C 92 % 1012,9 hPa 0,0 mm 0,0 km/h (0 Bft) W-SW 248 ° 0 min 0,000 mm 0,0 UV-I 0 W/m² 7,1 °C 8,3 °C 0,0 km/h (0 Bft)
30.09.2019 23:07 8,3 °C 93 % 1012,9 hPa 0,0 mm 0,0 km/h (0 Bft) W-SW 248 ° 0 min 0,000 mm 0,0 UV-I 0 W/m² 7,2 °C 8,3 °C 0,0 km/h (0 Bft)
30.09.2019 23:08 8,4 °C 93 % 1012,9 hPa 0,0 mm 0,0 km/h (0 Bft) W-SW 248 ° 0 min 0,000 mm 0,0 UV-I 0 W/m² 7,3 °C 8,4 °C 0,0 km/h (0 Bft)
30.09.2019 23:09 8,4 °C 93 % 1012,9 hPa 0,0 mm 0,0 km/h (0 Bft) W-SW 248 ° 0 min 0,000 mm 0,0 UV-I 0 W/m² 7,3 °C 8,4 °C 0,0 km/h (0 Bft)
30.09.2019 23:10 8,6 °C 93 % 1012,9 hPa 0,0 mm 0,0 km/h (0 Bft) W-SW 248 ° 0 min 0,000 mm 0,0 UV-I 0 W/m² 7,5 °C 8,6 °C 0,0 km/h (0 Bft)
30.09.2019 23:11 8,6 °C 93 % 1012,9 hPa 0,0 mm 0,0 km/h (0 Bft) W-SW 248 ° 0 min 0,000 mm 0,0 UV-I 0 W/m² 7,5 °C 8,6 °C 0,0 km/h (0 Bft)
30.09.2019 23:12 8,4 °C 93 % 1012,9 hPa 0,0 mm 0,0 km/h (0 Bft) W-SW 248 ° 0 min 0,000 mm 0,0 UV-I 0 W/m² 7,3 °C 8,4 °C 0,0 km/h (0 Bft)
30.09.2019 23:13 8,4 °C 93 % 1012,9 hPa 0,0 mm 0,0 km/h (0 Bft) W-SW 248 ° 0 min 0,000 mm 0,0 UV-I 0 W/m² 7,3 °C 8,4 °C 0,0 km/h (0 Bft)
30.09.2019 23:14 8,4 °C 93 % 1012,9 hPa 0,0 mm 0,0 km/h (0 Bft) W-SW 248 ° 0 min 0,000 mm 0,0 UV-I 0 W/m² 7,3 °C 8,4 °C 0,0 km/h (0 Bft)
30.09.2019 23:15 8,4 °C 93 % 1012,9 hPa 0,0 mm 0,0 km/h (0 Bft) W-SW 248 ° 0 min 0,000 mm 0,0 UV-I 0 W/m² 7,3 °C 8,4 °C 0,0 km/h (0 Bft)
30.09.2019 23:16 8,4 °C 93 % 1012,9 hPa 0,0 mm 0,0 km/h (0 Bft) W-SW 248 ° 0 min 0,000 mm 0,0 UV-I 0 W/m² 7,3 °C 8,4 °C 0,0 km/h (0 Bft)
30.09.2019 23:17 8,4 °C 93 % 1012,9 hPa 0,0 mm 0,0 km/h (0 Bft) W-SW 248 ° 0 min 0,000 mm 0,0 UV-I 0 W/m² 7,3 °C 8,4 °C 0,0 km/h (0 Bft)
30.09.2019 23:18 8,4 °C 93 % 1012,9 hPa 0,0 mm 0,0 km/h (0 Bft) W-SW 248 ° 0 min 0,000 mm 0,0 UV-I 0 W/m² 7,3 °C 8,4 °C 0,0 km/h (0 Bft)
30.09.2019 23:19 8,4 °C 93 % 1012,9 hPa 0,0 mm 0,0 km/h (0 Bft) W-SW 248 ° 0 min 0,000 mm 0,0 UV-I 0 W/m² 7,3 °C 8,4 °C 0,0 km/h (0 Bft)
30.09.2019 23:20 8,5 °C 93 % 1012,8 hPa 0,0 mm 0,0 km/h (0 Bft) W-SW 248 ° 0 min 0,000 mm 0,0 UV-I 0 W/m² 7,4 °C 8,5 °C 0,0 km/h (0 Bft)
30.09.2019 23:21 8,4 °C 93 % 1012,9 hPa 0,0 mm 0,0 km/h (0 Bft) W-SW 248 ° 0 min 0,000 mm 0,0 UV-I 0 W/m² 7,3 °C 8,4 °C 0,0 km/h (0 Bft)
30.09.2019 23:22 8,5 °C 93 % 1012,9 hPa 0,0 mm 0,0 km/h (0 Bft) W-SW 248 ° 0 min 0,000 mm 0,0 UV-I 0 W/m² 7,4 °C 8,5 °C 0,0 km/h (0 Bft)
30.09.2019 23:23 8,6 °C 93 % 1012,8 hPa 0,0 mm 0,0 km/h (0 Bft) W-SW 248 ° 0 min 0,000 mm 0,0 UV-I 0 W/m² 7,5 °C 8,6 °C 0,0 km/h (0 Bft)
30.09.2019 23:24 8,5 °C 93 % 1012,9 hPa 0,0 mm 0,0 km/h (0 Bft) W-SW 248 ° 0 min 0,000 mm 0,0 UV-I 0 W/m² 7,4 °C 8,5 °C 0,0 km/h (0 Bft)
30.09.2019 23:25 8,5 °C 93 % 1012,9 hPa 0,0 mm 0,0 km/h (0 Bft) W-SW 248 ° 0 min 0,000 mm 0,0 UV-I 0 W/m² 7,4 °C 8,5 °C 0,0 km/h (0 Bft)
30.09.2019 23:26 8,6 °C 93 % 1012,9 hPa 0,0 mm 0,0 km/h (0 Bft) W-SW 248 ° 0 min 0,000 mm 0,0 UV-I 0 W/m² 7,5 °C 8,6 °C 0,0 km/h (0 Bft)
30.09.2019 23:27 8,6 °C 93 % 1012,8 hPa 0,0 mm 0,0 km/h (0 Bft) W-SW 248 ° 0 min 0,000 mm 0,0 UV-I 0 W/m² 7,5 °C 8,6 °C 0,0 km/h (0 Bft)
30.09.2019 23:28 8,6 °C 93 % 1012,8 hPa 0,0 mm 0,0 km/h (0 Bft) W-SW 248 ° 0 min 0,000 mm 0,0 UV-I 0 W/m² 7,5 °C 8,6 °C 0,0 km/h (0 Bft)
30.09.2019 23:29 8,6 °C 93 % 1012,8 hPa 0,0 mm 0,0 km/h (0 Bft) W-SW 248 ° 0 min 0,000 mm 0,0 UV-I 0 W/m² 7,5 °C 8,6 °C 0,0 km/h (0 Bft)
30.09.2019 23:30 8,6 °C 93 % 1012,8 hPa 0,0 mm 0,0 km/h (0 Bft) W-SW 248 ° 0 min 0,000 mm 0,0 UV-I 0 W/m² 7,5 °C 8,6 °C 0,0 km/h (0 Bft)
30.09.2019 23:31 8,7 °C 93 % 1012,8 hPa 0,0 mm 0,0 km/h (0 Bft) W-SW 248 ° 0 min 0,000 mm 0,0 UV-I 0 W/m² 7,6 °C 8,7 °C 0,0 km/h (0 Bft)
30.09.2019 23:32 8,7 °C 94 % 1012,8 hPa 0,0 mm 0,0 km/h (0 Bft) W-SW 248 ° 0 min 0,000 mm 0,0 UV-I 0 W/m² 7,8 °C 8,7 °C 0,0 km/h (0 Bft)
30.09.2019 23:33 8,7 °C 94 % 1012,8 hPa 0,0 mm 0,0 km/h (0 Bft) W-SW 248 ° 0 min 0,000 mm 0,0 UV-I 0 W/m² 7,8 °C 8,7 °C 0,0 km/h (0 Bft)
30.09.2019 23:34 8,7 °C 93 % 1012,8 hPa 0,0 mm 0,0 km/h (0 Bft) W-SW 248 ° 0 min 0,000 mm 0,0 UV-I 0 W/m² 7,6 °C 8,7 °C 0,0 km/h (0 Bft)
30.09.2019 23:35 8,6 °C 93 % 1012,8 hPa 0,0 mm 0,0 km/h (0 Bft) W-SW 248 ° 0 min 0,000 mm 0,0 UV-I 0 W/m² 7,5 °C 8,6 °C 0,0 km/h (0 Bft)
30.09.2019 23:36 8,6 °C 93 % 1012,8 hPa 0,0 mm 0,0 km/h (0 Bft) W-SW 248 ° 0 min 0,000 mm 0,0 UV-I 0 W/m² 7,5 °C 8,6 °C 0,0 km/h (0 Bft)
30.09.2019 23:37 8,6 °C 93 % 1012,8 hPa 0,0 mm 0,0 km/h (0 Bft) W-SW 248 ° 0 min 0,000 mm 0,0 UV-I 0 W/m² 7,5 °C 8,6 °C 0,0 km/h (0 Bft)
30.09.2019 23:38 8,6 °C 93 % 1012,8 hPa 0,0 mm 0,0 km/h (0 Bft) W-SW 248 ° 0 min 0,000 mm 0,0 UV-I 0 W/m² 7,5 °C 8,6 °C 0,0 km/h (0 Bft)
30.09.2019 23:39 8,6 °C 93 % 1012,8 hPa 0,0 mm 0,0 km/h (0 Bft) W-SW 248 ° 0 min 0,000 mm 0,0 UV-I 0 W/m² 7,5 °C 8,6 °C 0,0 km/h (0 Bft)
30.09.2019 23:40 8,6 °C 93 % 1012,7 hPa 0,0 mm 0,0 km/h (0 Bft) W-SW 248 ° 0 min 0,000 mm 0,0 UV-I 0 W/m² 7,5 °C 8,6 °C 0,0 km/h (0 Bft)
30.09.2019 23:41 8,6 °C 93 % 1012,7 hPa 0,0 mm 0,0 km/h (0 Bft) W-SW 248 ° 0 min 0,000 mm 0,0 UV-I 0 W/m² 7,5 °C 8,6 °C 0,0 km/h (0 Bft)
30.09.2019 23:42 8,6 °C 93 % 1012,8 hPa 0,0 mm 0,0 km/h (0 Bft) W-SW 248 ° 0 min 0,000 mm 0,0 UV-I 0 W/m² 7,5 °C 8,6 °C 0,0 km/h (0 Bft)
30.09.2019 23:43 8,6 °C 93 % 1012,7 hPa 0,0 mm 0,0 km/h (0 Bft) W-SW 248 ° 0 min 0,000 mm 0,0 UV-I 0 W/m² 7,5 °C 8,6 °C 0,0 km/h (0 Bft)
30.09.2019 23:44 8,6 °C 93 % 1012,7 hPa 0,0 mm 0,0 km/h (0 Bft) W-SW 248 ° 0 min 0,000 mm 0,0 UV-I 0 W/m² 7,5 °C 8,6 °C 0,0 km/h (0 Bft)
30.09.2019 23:45 8,5 °C 93 % 1012,8 hPa 0,0 mm 0,0 km/h (0 Bft) W-SW 248 ° 0 min 0,000 mm 0,0 UV-I 0 W/m² 7,4 °C 8,5 °C 0,0 km/h (0 Bft)
30.09.2019 23:46 8,5 °C 93 % 1012,8 hPa 0,0 mm 0,0 km/h (0 Bft) W-SW 248 ° 0 min 0,000 mm 0,0 UV-I 0 W/m² 7,4 °C 8,5 °C 0,0 km/h (0 Bft)
30.09.2019 23:47 8,4 °C 93 % 1012,8 hPa 0,0 mm 0,0 km/h (0 Bft) W-SW 248 ° 0 min 0,000 mm 0,0 UV-I 0 W/m² 7,3 °C 8,4 °C 0,0 km/h (0 Bft)
30.09.2019 23:48 8,4 °C 93 % 1012,7 hPa 0,0 mm 0,0 km/h (0 Bft) W-SW 248 ° 0 min 0,000 mm 0,0 UV-I 0 W/m² 7,3 °C 8,4 °C 0,0 km/h (0 Bft)
30.09.2019 23:49 8,4 °C 93 % 1012,8 hPa 0,0 mm 0,0 km/h (0 Bft) W-SW 248 ° 0 min 0,000 mm 0,0 UV-I 0 W/m² 7,3 °C 8,4 °C 0,0 km/h (0 Bft)
30.09.2019 23:50 8,4 °C 94 % 1012,8 hPa 0,0 mm 0,0 km/h (0 Bft) W-SW 248 ° 0 min 0,000 mm 0,0 UV-I 0 W/m² 7,5 °C 8,4 °C 0,0 km/h (0 Bft)
30.09.2019 23:51 8,4 °C 94 % 1012,8 hPa 0,0 mm 0,0 km/h (0 Bft) W-SW 248 ° 0 min 0,000 mm 0,0 UV-I 0 W/m² 7,5 °C 8,4 °C 0,0 km/h (0 Bft)
30.09.2019 23:52 8,6 °C 94 % 1012,8 hPa 0,0 mm 0,0 km/h (0 Bft) W-SW 248 ° 0 min 0,000 mm 0,0 UV-I 0 W/m² 7,7 °C 8,6 °C 0,0 km/h (0 Bft)
30.09.2019 23:53 8,6 °C 94 % 1012,8 hPa 0,0 mm 0,0 km/h (0 Bft) W-SW 248 ° 0 min 0,000 mm 0,0 UV-I 0 W/m² 7,7 °C 8,6 °C 0,0 km/h (0 Bft)
30.09.2019 23:54 8,6 °C 94 % 1012,8 hPa 0,0 mm 0,0 km/h (0 Bft) W-SW 248 ° 0 min 0,000 mm 0,0 UV-I 0 W/m² 7,7 °C 8,6 °C 0,0 km/h (0 Bft)
30.09.2019 23:55 8,6 °C 94 % 1012,8 hPa 0,0 mm 0,0 km/h (0 Bft) W-SW 248 ° 0 min 0,000 mm 0,0 UV-I 0 W/m² 7,7 °C 8,6 °C 0,0 km/h (0 Bft)
30.09.2019 23:56 8,7 °C 94 % 1012,8 hPa 0,0 mm 0,0 km/h (0 Bft) W-SW 248 ° 0 min 0,000 mm 0,0 UV-I 0 W/m² 7,8 °C 8,7 °C 0,0 km/h (0 Bft)
30.09.2019 23:57 8,5 °C 94 % 1012,8 hPa 0,0 mm 0,0 km/h (0 Bft) W-SW 248 ° 0 min 0,000 mm 0,0 UV-I 0 W/m² 7,6 °C 8,5 °C 0,0 km/h (0 Bft)
30.09.2019 23:58 8,4 °C 93 % 1012,8 hPa 0,0 mm 0,0 km/h (0 Bft) W-SW 248 ° 0 min 0,000 mm 0,0 UV-I 0 W/m² 7,3 °C 8,4 °C 0,0 km/h (0 Bft)
30.09.2019 23:59 8,4 °C 94 % 1012,8 hPa 0,0 mm 0,0 km/h (0 Bft) W-SW 248 ° 0 min 0,000 mm 0,0 UV-I 0 W/m² 7,5 °C 8,4 °C 0,0 km/h (0 Bft)
_ Min-Zeit 23:07 00:45 00:28 - 23:59 - - - - - - 23:06 23:07 23:59
Minimum _ 8,3 °C 57 % 1004,8 hPa - 0,0 km/h (0 Bft) - - - - - - 7,1 °C 8,3 °C 0,0 km/h (0 Bft)
_ Max-Zeit 02:35 23:59 22:41 20:44 09:41 - - 14:39 13:01 13:01 12:40 12:48 02:35 09:41
Maximum _ 17,6 °C 94 % 1013,1 hPa 0,2 mm 41,4 km/h
W-NW (6 Bft)
- - 1 min 0,280 mm 4,4 UV-I 724 W/m² 11,8 °C 17,6 °C 59,5 km/h
W (7 Bft)
Durchschnitt _ 14,6 °C 75 % 1009,5 hPa #1,4 mm 12,9 km/h (3 Bft) W - #1:22 h #2,515 mm 2,1 UV-I 109 W/m² 10,1 °C 14,6 °C 20,3 km/h (4 Bft)